[[[{"header":{"parameterUnit":"kt","parameterCategory":2,"dx":1,"dy":1,"la1":29.285339999999998,"la2":30.599998999999997,"lo1":-89.70041500000002,"lo2":-87.6738589999976,"nx":112,"ny":82,"refTime":"2022-09-17T18:00:00:Z","depth":0,"parameterNumber":1,"parameterNumberName":"U-component_of_WINDS"},"data":[3.9505,3.9654,3.9086,3.8782,3.8307,3.7852,3.7548,3.7073,3.6675,3.6675,3.584,3.5175,3.5403,3.5004,3.4739,3.4966,3.5004,3.5004,0.0,3.5004,3.5004,3.5004,3.5004,3.5555,3.6903,3.732,3.8061,3.9427,3.9882,4.0053,4.0053,4.0053,4.0186,4.0433,4.0433,4.0585,4.0966,4.0966,4.0966,4.0966,4.0966,4.0966,4.0966,4.0966,4.0966,4.0966,4.0966,4.0966,4.0966,4.0966,4.0966,4.0928,4.0566,4.0433,4.0395,4.0167,4.0053,4.0053,4.0053,4.0053,4.0053,4.0053,4.0053,4.0053,4.0053,4.0053,4.0053,4.0053,4.0053,4.0053,4.0053,4.0053,4.0053,4.0053,4.0053,4.0053,4.0053,4.0053,4.0053,4.0053,3.9429,3.8955,3.8955,3.7158,3.4872,3.2269,3.062,2.9923,3.0715,3.0071,2.9357,2.8559,2.9209,2.9276,2.8559,2.7851,2.7385,2.7385,2.7385,2.7385,2.7385,2.7385,2.7476,2.7684,2.7489,2.7476,2.7684,2.7476,2.7385,2.7385,2.7385,2.7385,3.8848,3.8934,3.8231,3.7875,3.7472,3.6998,3.6713,3.6219,3.5753,3.5753,3.4947,3.4359,3.4909,3.4568,3.4283,3.4549,3.4833,3.4909,0.0,3.4833,3.5004,3.5004,3.5251,3.5953,3.7358,3.7738,0.0,0.0,4.0053,0.0,4.0053,4.0053,4.0053,4.0053,4.0053,4.0053,4.0053,4.0053,4.0053,4.0053,4.0053,4.0053,4.0053,4.0053,4.0053,4.0053,4.0053,4.0053,4.0053,4.0053,4.0053,4.0053,4.0053,4.0053,4.0053,4.0053,4.0053,4.0053,4.0053,4.0053,4.0053,4.0053,4.0053,4.0053,4.0053,4.0053,4.0053,4.0053,4.0053,4.0053,4.0053,4.0053,4.0053,4.0053,4.0053,4.0053,4.0053,3.9505,3.8955,3.8955,3.7849,3.6814,3.6814,3.5635,3.3537,3.0071,2.8328,2.77,2.8328,2.7851,2.7385,2.7385,2.7385,2.7385,2.7385,2.7385,2.7385,2.7385,2.7385,2.7385,2.7385,2.7385,2.7385,2.7385,2.7385,2.7385,2.7385,2.7385,2.7385,2.7385,2.7385,2.7385,3.7364,3.7936,3.7174,3.629,3.6063,3.5923,3.5194,3.5004,3.5004,3.5004,3.4985,3.4966,3.5004,3.4985,3.472,3.396,3.4492,0.0,0.0,3.4511,3.5023,3.5042,3.5677,3.6511,0.0,3.825,3.9067,0.0,4.0053,4.0053,4.0053,4.0053,4.0053,4.0053,4.0053,4.0053,4.0053,4.0053,4.0053,4.0053,4.0053,4.0053,4.0053,4.0053,4.0053,4.0053,4.0053,4.0053,4.0053,4.0053,4.0053,4.0053,4.0053,4.0053,4.0053,4.0053,4.0053,4.0053,4.0053,4.0053,4.0053,4.0053,4.0053,4.0053,4.0053,4.0053,4.0053,4.0053,4.0053,4.0053,4.0053,3.9978,3.9978,3.9978,3.9902,3.9808,3.9808,3.825,3.6849,3.6849,3.3442,3.0591,3.0591,3.0511,3.1072,3.3157,3.0004,2.8164,3.0203,2.864,2.7385,2.7385,2.7385,2.7385,2.7385,2.7385,2.7385,2.7385,2.7385,2.7385,2.7385,2.7385,2.7385,2.7385,2.7385,2.7385,2.7385,2.7385,2.7385,2.7385,2.7385,2.7385,3.3462,3.4111,3.445,3.4235,3.4745,3.5289,3.5061,3.5004,3.5004,3.5004,3.453,0.0,0.0,0.0,3.4245,3.4606,0.0,3.4928,3.4701,3.4871,3.5232,3.5753,3.6018,0.0,0.0,3.8573,3.9067,3.9977,4.0053,4.0053,4.0053,4.0053,4.0053,4.0053,4.0053,4.0053,4.0053,4.0053,4.0053,4.0053,4.0053,4.0053,4.0053,4.0053,4.0053,4.0053,4.0053,4.0053,4.0053,4.0053,4.0053,4.0053,4.0053,4.0053,4.0053,4.0053,4.0053,4.0053,4.0053,4.0053,4.0053,4.0053,4.0053,4.0053,4.0053,4.0053,4.0053,4.0053,4.0053,4.0053,4.0053,3.8879,3.7791,3.7791,3.6523,3.5341,3.5341,3.495,3.4575,3.4575,3.3616,3.2746,3.2746,3.0232,2.8491,2.9046,2.8178,2.7618,2.8164,2.7782,2.7385,2.7385,2.7385,2.7385,2.7385,2.7385,2.7385,2.7385,2.7385,2.7385,2.7385,2.7385,2.7385,2.7385,2.7385,2.7385,2.7385,2.7385,2.7385,2.7385,2.7385,2.7385,3.1168,3.1613,3.1988,3.2767,3.3388,3.4019,3.4806,3.5004,3.5004,3.5004,0.0,0.0,0.0,0.0,0.0,0.0,3.4795,3.489,3.4549,3.4795,3.5308,3.6056,0.0,0.0,3.8519,3.9029,3.9446,4.0015,4.0053,4.0053,4.0053,4.0053,4.0053,4.0053,4.0053,4.0053,4.0053,4.0053,4.0053,4.0053,4.0053,4.0053,4.0053,4.0053,4.0053,4.0053,4.0053,4.0053,4.0053,4.0053,4.0053,3.9977,3.9274,3.9007,3.9007,3.9007,3.9007,3.9007,3.9007,3.9007,3.9007,3.9007,3.9007,3.9007,3.9007,3.9007,3.9007,3.9007,3.9007,3.9007,3.9007,3.8103,3.7266,3.7593,3.6036,3.4507,3.49,3.3616,3.2349,3.2349,3.1567,3.0859,3.0377,2.8287,2.6671,2.6671,2.6671,2.6671,2.6671,2.6879,2.7022,2.7022,2.7243,2.7385,2.7385,2.7385,2.7385,2.7385,2.7385,2.7385,2.7385,2.7385,2.7385,2.7385,2.7385,2.7385,2.7385,2.7385,2.7139,2.6671,2.6671,2.6671,2.9462,2.9589,2.9612,3.1238,3.1781,3.2424,3.4037,0.0,3.4389,3.4389,0.0,3.4455,3.4654,0.0,0.0,3.4055,3.453,3.4758,3.4036,3.4504,3.5237,3.5977,3.7028,3.7947,3.8763,3.9616,4.0053,4.0053,4.0053,4.0053,4.0053,4.0053,4.0053,4.0053,3.9958,3.992,3.992,3.9806,3.9768,3.9768,3.9768,3.9768,3.9768,3.9768,3.9768,3.9768,3.9768,3.9768,3.9768,3.9768,3.9768,3.9616,3.8061,3.7491,3.7491,3.7491,3.7491,3.7491,3.7491,3.7491,3.7491,3.7491,3.7491,3.7491,3.7259,3.7046,3.6886,3.6886,3.6886,3.6886,3.6886,3.6672,3.6696,3.7418,3.5998,3.4675,3.5509,3.2669,2.9988,2.9988,2.8517,2.6866,2.5853,2.5684,2.5684,2.5684,2.5684,2.5684,2.5684,2.6035,2.6345,2.6345,2.6879,2.7191,2.7191,2.7191,2.7191,2.7191,2.7191,2.7191,2.7191,2.7191,2.7191,2.7191,2.7191,2.7191,2.7191,2.7191,2.6671,2.5684,2.5684,2.5684,2.5126,2.6169,2.7266,2.76,2.8922,3.0162,0.0,0.0,0.0,3.0573,3.0573,3.1051,3.2541,3.2796,3.3248,3.4532,3.4909,3.4947,3.4795,3.4591,3.4844,3.5608,3.7327,3.8801,3.973,3.9958,4.0053,4.0053,4.0053,4.0053,4.0053,4.0053,4.0053,4.0053,3.9313,3.8953,3.8953,3.8288,3.7966,3.7966,3.7966,3.7966,3.7966,3.7966,3.7966,3.7966,3.7966,3.7966,3.7966,3.7966,3.7966,3.7947,3.7624,3.7491,3.7491,3.7491,3.7491,3.7491,3.7491,3.7491,3.7491,3.7491,3.7491,3.7278,3.5742,3.4228,3.294,3.294,3.294,3.294,3.294,3.1708,3.0495,3.0619,2.9114,2.7599,2.7787,2.7211,2.6605,2.6605,2.623,2.5931,2.571,2.5684,2.5684,2.5684,2.5684,2.5684,2.5684,2.5775,2.584,2.584,2.5944,2.6009,2.6009,2.6009,2.6009,2.6009,2.6009,2.6009,2.6009,2.6009,2.6009,2.6009,2.6009,2.6009,2.6009,2.6009,2.5892,2.5684,2.5684,2.5684,2.3568,2.4393,2.5447,2.6366,2.7406,0.0,0.0,2.9544,2.9544,2.9544,2.9544,2.9819,3.0761,3.0932,3.1272,3.2472,3.2662,3.2715,3.3029,3.3275,3.3975,3.5415,3.6871,3.8435,3.994,4.0053,4.0053,4.0053,3.9579,3.9162,3.8836,3.8798,3.8798,3.8798,3.8326,3.8099,3.8099,3.77,3.7491,3.7491,3.7491,3.7491,3.7491,3.7491,3.7491,3.7491,3.7491,3.7491,3.7491,3.7491,3.6998,3.6257,3.6257,3.6257,3.617,3.522,3.4856,3.4787,3.3867,3.3518,3.3518,3.3518,3.3518,3.3378,3.2466,3.1513,3.0715,3.0715,3.0715,3.0715,3.0715,2.9945,2.9247,2.9642,2.8142,2.6716,2.7156,2.6412,2.5684,2.5684,2.5204,2.4801,2.4801,2.4801,2.4801,2.4801,2.4801,2.4801,2.4801,2.5048,2.5305,2.5305,2.5503,2.5684,2.5684,2.5684,2.5684,2.5684,2.5684,2.5684,2.5684,2.5684,2.5684,2.5684,2.5684,2.5684,2.5684,2.5087,2.4801,2.4801,2.4801,2.4801,2.3235,2.3469,2.4131,2.5702,2.6084,0.0,2.8089,2.8436,2.8436,2.8436,2.8436,2.8575,2.8922,2.9102,2.944,3.0208,3.0399,3.049,3.0352,3.1392,3.2735,3.4373,3.5466,3.6757,3.8469,3.8566,3.8455,3.8455,3.777,3.7123,3.6477,3.644,3.644,3.644,3.6594,3.6732,3.6732,3.6933,3.7016,3.7016,3.7016,3.7016,3.7016,3.7016,3.7016,3.7016,3.7016,3.7016,3.7016,3.7016,3.6219,3.5004,3.5004,3.4806,3.4304,3.2827,3.2069,3.151,3.0025,2.9544,2.9544,2.9544,2.9544,2.9475,2.9129,2.8991,2.8922,2.8575,2.8436,2.8436,2.8436,2.8436,2.863,2.9244,2.8109,2.7051,2.7697,2.649,2.5334,2.5334,2.4568,2.3918,2.3918,2.3918,2.3918,2.3918,2.3918,2.3918,2.3918,2.4394,2.468,2.468,2.5048,2.5334,2.5334,2.5334,2.5334,2.5334,2.5334,2.5334,2.5334,2.5334,2.5334,2.5334,2.5334,2.5334,2.5334,2.4386,2.369,2.3319,2.3762,2.3475,2.3013,2.3196,2.3352,2.4073,2.4192,0.0,2.4478,2.4549,2.4549,2.4549,2.4549,2.5034,2.6648,2.7398,2.8373,3.0073,3.074,3.0262,2.8125,2.9512,3.0809,3.1048,3.2449,3.3403,3.3631,3.3112,3.2806,3.2806,3.2723,3.2567,3.25,3.25,3.25,3.25,3.3425,3.3887,3.3887,3.482,3.527,3.527,3.527,3.527,3.527,3.527,3.527,3.527,3.527,3.527,3.527,3.527,3.5175,3.5004,3.5004,3.4019,3.2541,3.2339,3.1238,2.9819,2.9612,2.9544,2.9544,2.9544,2.9544,2.9199,2.7476,2.6985,2.6648,2.4963,2.4549,2.4549,2.4549,2.4549,2.4562,2.4616,2.4499,2.431,2.4448,2.4245,2.4113,2.4113,2.4009,2.3918,2.3918,2.3918,2.3918,2.3918,2.3918,2.3918,2.3918,2.397,2.4009,2.4009,2.4074,2.4113,2.4113,2.4113,2.4113,2.4113,2.4113,2.4113,2.4113,2.4113,2.4113,2.4113,2.4113,2.4113,2.4113,2.397,2.3019,2.1335,2.3103,2.2009,2.21,2.2636,2.3196,2.3443,0.0,0.0,2.3918,2.3918,2.4009,2.442,2.4485,2.4809,2.5893,2.6239,2.6826,2.7903,2.8248,2.7946,2.6596,2.7148,2.8126,2.9329,3.0078,3.0942,3.2202,3.2001,3.1897,3.1897,3.1451,3.1224,3.1224,3.0764,3.0554,3.0554,3.1954,3.2763,3.2763,3.4204,3.5004,3.5004,3.5004,3.5004,3.5004,3.5004,3.5004,3.5004,3.5004,3.5004,3.4806,3.2728,3.1833,3.1833,3.1833,3.134,3.0557,2.939,2.8506,2.7685,2.6634,2.6281,2.6281,2.6281,2.6281,2.614,2.5319,2.5034,2.4892,2.412,2.3918,2.3918,2.3918,2.3918,2.3918,2.3918,2.3918,2.3918,2.3918,2.3918,2.3918,2.3918,2.3918,2.3918,2.3918,2.3918,2.3918,2.3918,2.3918,2.3918,2.3918,2.3918,2.3918,2.3918,2.3918,2.3918,2.3918,2.3918,2.3918,2.3918,2.3918,2.3918,2.3918,2.3918,2.3918,2.3918,2.3918,2.3918,2.3918,2.1648,2.0111,1.9307,2.0111,1.961,2.1438,0.0,0.0,0.0,0.0,0.0,2.3918,2.3918,2.4035,2.4524,2.4615,2.4798,2.5321,2.5567,2.5814,2.6138,2.6216,2.606,2.5736,2.5684,2.6196,2.7743,2.78,2.8271,2.9786,2.9749,2.9642,0.0,2.9139,2.8792,2.8792,2.8278,2.8019,2.8019,2.9734,3.0693,3.0693,3.2576,3.3485,3.3485,3.3485,3.3485,3.3485,3.3485,3.3485,3.3485,3.3485,3.3485,3.3284,3.0642,2.9544,2.9544,2.9544,2.9199,2.8575,2.7125,2.6296,2.5673,2.4406,2.3918,2.3918,2.3918,2.3918,2.3918,2.3918,2.3918,2.3918,2.3918,2.3918,2.3918,2.3918,2.3918,2.3918,2.3918,2.3918,2.3918,2.3918,2.3918,2.3918,2.3918,2.3918,2.3918,2.3918,2.3918,2.3918,2.3918,2.3918,2.3918,2.3918,2.3918,2.3918,2.3918,2.3918,2.3918,2.3918,2.3918,2.3918,2.3918,2.3918,2.3918,2.3918,2.3918,2.3918,2.3918,2.339,2.3103,2.3103,1.9746,1.807,1.807,1.7564,1.6974,0.0,0.0,0.0,2.3,2.349,2.3918,2.3918,2.3918,2.3918,2.3931,2.3944,2.4113,2.4771,2.5282,2.5684,2.5697,2.571,2.5697,2.5684,2.5684,2.5671,2.5748,2.5303,2.5024,2.5085,2.45,2.4173,2.4173,2.4088,2.4075,2.4075,2.4062,2.4049,2.4049,2.5872,2.6789,2.6789,2.8714,2.9681,2.9681,2.9681,2.9681,2.9681,2.9681,2.9681,2.9681,2.9681,2.9681,2.9681,2.9612,2.9544,2.9544,2.9544,2.8367,2.6718,2.6648,2.5532,2.3977,2.3918,2.3918,2.3918,2.3918,2.3918,2.3918,2.3918,2.3918,2.3918,2.3918,2.3918,2.3918,2.3918,2.3918,2.3918,2.3918,2.3918,2.3918,2.3918,2.3918,2.3918,2.3918,2.3918,2.3918,2.3918,2.3918,2.3918,2.3918,2.3918,2.3918,2.3918,2.3918,2.3918,2.3918,2.3918,2.3918,2.3918,2.3918,2.3918,2.3918,2.3918,2.3918,2.3918,2.3918,2.3918,2.3918,2.207,2.1033,2.1033,1.9088,1.807,1.8007,1.616,1.4241,2.1218,2.1789,2.2012,2.1365,2.1614,2.1636,2.0329,2.0049,2.0502,2.2181,2.2474,2.3088,2.5041,2.3054,2.1161,2.1161,2.2239,2.2967,2.2596,2.3668,2.4503,2.4503,2.4321,2.4277,2.4277,2.4035,2.3918,2.3918,2.3918,2.3918,2.3918,2.3918,2.3918,2.3918,2.4549,2.539,2.6648,2.8575,2.9544,2.9544,2.9544,2.9544,2.9544,2.9544,2.9544,2.9544,2.9544,2.7652,2.4634,2.4634,2.4634,2.4634,2.4634,2.4243,2.3647,2.3647,2.3253,2.272,2.272,2.272,2.272,2.272,2.272,2.272,2.272,2.272,2.272,2.272,2.272,2.272,2.272,2.272,2.288,2.3269,2.3347,2.3451,2.3827,2.3321,2.272,2.272,2.272,2.272,2.272,2.272,2.2919,2.3295,2.3347,2.349,2.3866,2.3918,2.3918,2.3918,2.3918,2.3918,2.3918,2.3918,2.3918,2.3918,2.2659,2.1997,2.1997,2.0693,2.0049,2.0049,1.938,1.8199,1.6476,1.4522,1.3545,1.3545,1.2913,1.2325,2.0286,2.0365,2.0162,1.929,1.9524,1.9589,1.8365,1.807,1.8518,2.0154,2.0432,2.1046,2.2848,2.0682,1.8558,1.8558,2.0208,2.136,2.1006,2.2659,2.3918,2.3918,2.3918,2.3918,2.3918,2.3918,2.3918,2.3918,2.3918,2.3918,2.3918,2.3918,2.3918,2.3918,2.3918,2.4478,2.5673,2.6915,2.7411,2.7255,2.7255,2.712,2.6894,2.6894,2.6894,2.6894,2.6894,2.5084,2.2138,2.2138,2.2138,2.2138,2.2138,2.2138,2.2138,2.2138,2.2138,2.2138,2.2138,2.2138,2.2138,2.2138,2.2138,2.2138,2.2138,2.2138,2.2138,2.2138,2.2138,2.2138,2.2138,2.2138,2.2228,2.2672,2.2763,2.2867,2.323,2.2234,2.1258,2.1258,2.0777,2.0362,2.0362,2.0362,2.0482,2.0884,2.1001,2.1064,2.1387,2.1505,2.1505,2.1505,2.1505,2.1505,2.1505,2.1505,2.1505,2.1505,2.0283,1.9574,1.9574,1.8375,1.7742,1.7742,1.7025,1.5554,1.3128,1.1894,1.1273,1.1273,1.1273,1.1379,1.8368,1.7764,1.7099,1.7048,1.7457,1.7923,1.7776,1.7776,1.7776,1.7923,1.7923,1.805,1.845,1.8121,1.7776,1.7776,1.9443,2.067,2.067,2.237,2.3619,2.3619,2.3619,2.3619,2.3762,2.3762,2.3762,2.3918,2.3918,2.3892,2.3866,2.3866,2.3853,2.3827,2.3827,2.3827,2.3827,2.3827,2.3555,2.3091,2.3091,2.2737,2.2138,2.2138,2.2112,2.206,2.206,2.206,2.206,2.206,2.206,2.206,2.206,2.206,2.206,2.206,2.206,2.206,2.206,2.206,2.206,2.206,2.206,2.206,2.206,2.206,2.206,2.206,2.206,2.206,2.206,2.206,2.206,2.206,2.2086,2.2099,2.2099,2.0728,1.9565,1.9565,1.8185,1.7024,1.7024,1.7024,1.7024,1.7044,1.7054,1.7054,1.7084,1.7084,1.7084,1.7084,1.7084,1.7084,1.7084,1.7084,1.7084,1.7084,1.7016,1.6948,1.6948,1.688,1.6812,1.6812,1.4939,1.3074,1.1234,1.1234,1.1234,1.1234,1.1234,1.124,1.702,1.7118,1.6892,1.5922,1.5785,1.55,1.4092,1.3725,1.4167,1.5574,1.5937,1.5525,1.4207,1.3853,1.3725,1.3725,1.5343,1.666,1.666,1.8355,1.9527,1.9527,1.9527,2.0111,2.1624,2.1696,2.2358,2.3762,2.3918,2.3724,2.3378,2.3352,2.3087,2.2659,2.2578,2.2578,2.2578,2.2578,2.25,2.2425,2.2425,2.228,2.2138,2.2138,2.175,2.1021,2.1021,2.1021,2.1021,2.1021,2.1021,2.1021,2.1021,2.1021,2.1021,2.1021,2.1021,2.1021,2.1021,2.1021,2.1021,2.1021,2.1021,2.1021,2.1021,2.1021,2.1021,2.1021,2.1021,2.1021,2.1021,2.1021,2.1021,2.1021,2.1282,2.1581,2.1581,1.9953,1.8467,1.8467,1.7094,1.5929,1.5929,1.5929,1.6093,1.6487,1.6537,1.6657,1.7044,1.7084,1.7084,1.7084,1.7084,1.7084,1.7084,1.7084,1.7084,1.7084,1.5719,1.4905,1.4905,1.3535,1.2789,1.2789,1.1917,1.116,1.0706,1.0706,1.0706,1.0706,1.0706,1.0826,1.5458,1.5183,1.4784,1.4046,1.3875,1.3576,1.2471,1.2245,1.254,1.3651,1.3875,1.3576,1.2464,1.2245,1.2245,1.2245,1.3868,1.5128,1.5128,1.6826,1.807,1.807,1.807,1.8511,1.9589,1.9614,2.0284,2.216,2.2092,2.2249,2.2711,2.2685,2.2542,2.2151,2.2138,2.2138,2.2138,2.2138,2.2138,2.2138,2.1958,2.1711,2.1464,2.1464,2.1127,2.0591,2.0591,2.0591,2.0591,2.0591,2.0591,2.0591,2.0591,2.0591,2.0591,2.0591,2.0591,2.0591,2.0591,2.0591,2.0591,2.0591,2.0591,2.0591,2.0591,2.0591,2.0591,2.0591,2.0591,2.0591,2.0591,2.0591,2.0591,2.0591,2.0252,1.9709,1.8987,1.782,1.6743,1.598,1.4466,1.3332,1.3332,1.3332,1.34,1.3733,1.3767,1.3844,1.4182,1.4208,1.4208,1.4208,1.4208,1.4208,1.4208,1.4208,1.4208,1.4208,1.315,1.2556,1.2556,1.1497,1.0898,1.0898,1.0653,1.0487,1.0487,1.0487,1.0487,1.0487,1.0487,1.0574,1.3702,1.28,1.2146,1.2225,1.2245,1.2245,1.2245,1.2245,1.2245,1.2245,1.2245,1.2245,1.2245,1.2245,1.2245,1.2245,1.3651,1.4756,1.4756,1.6234,1.7315,1.7258,1.7249,1.7303,1.7539,1.7335,1.7958,1.9698,1.9454,1.9936,2.1279,2.1412,2.1308,2.1311,2.1311,2.1311,2.1311,2.1311,2.1311,2.1298,2.0832,2.048,2.027,2.0024,1.9949,1.9949,1.9949,1.9949,1.9949,1.9949,1.9949,1.9949,1.9949,1.9949,1.9949,1.9949,1.9949,1.9949,1.9949,1.9949,1.9949,1.9949,1.9949,1.9949,1.9949,1.9949,1.9949,1.9949,1.9949,1.9949,1.9949,1.9949,1.9949,1.9949,1.8637,1.7067,1.5791,1.535,1.4773,1.3316,1.1808,1.0738,1.0552,1.0487,1.0487,1.0487,1.0487,1.0487,1.0487,1.0487,1.0487,1.0487,1.0487,1.0487,1.0487,1.0487,1.0487,1.0487,1.0487,1.0487,1.0487,1.0487,1.0487,1.0487,1.0487,1.0487,1.0487,1.0487,1.0487,1.0487,1.0487,1.0352,1.1665,1.1556,1.155,1.2119,1.2245,1.2245,1.2245,1.2245,1.2245,1.2245,1.2245,1.2245,1.2245,1.2245,1.2245,1.2245,1.254,1.2765,1.2765,1.3058,1.3108,1.2836,1.2807,1.3341,1.4722,1.4837,1.5554,1.7479,1.7612,1.7473,1.7364,1.7343,1.7164,1.6723,1.6712,1.6712,1.6712,1.6712,1.6712,1.6712,1.6576,1.7269,1.8463,1.7056,1.6419,1.6419,1.6419,1.6419,1.6419,1.6419,1.6419,1.6419,1.6419,1.6419,1.6419,1.6419,1.6419,1.6419,1.6419,1.6419,1.6419,1.6419,1.6419,1.6419,1.6419,1.6419,1.6419,1.6419,1.6419,1.6419,1.6419,1.6419,1.6419,1.6419,1.5151,1.4204,1.5287,1.4457,1.3379,1.3061,1.2815,1.2121,1.0738,1.0487,1.0487,1.0487,1.0487,1.0487,1.0487,1.0487,1.0487,1.0487,1.0487,1.0487,1.0487,1.0487,1.0487,1.0487,1.0487,1.0487,1.0487,1.0487,1.0487,1.0487,1.0487,1.0487,1.0487,1.0487,1.0487,1.0487,1.0487,0.9701,1.0944,1.1168,1.1386,1.1827,1.2126,1.2245,1.2245,1.2245,1.2245,1.2245,1.2245,1.2245,1.2245,1.2245,1.2245,1.2245,1.2245,1.2192,1.1959,1.1933,1.1827,1.1524,1.1491,1.1778,1.2596,1.2571,1.3214,1.5079,1.5079,1.527,1.5919,1.5909,1.581,1.5539,1.5539,1.5539,1.5539,1.5539,1.5539,1.5539,1.5539,1.598,1.6681,1.5025,1.471,1.5539,1.5539,1.5539,1.5539,1.5539,1.5539,1.5539,1.5539,1.5539,1.5539,1.5539,1.5539,1.5539,1.5539,1.5539,1.5539,1.5539,1.5539,1.5539,1.5539,1.5539,1.5539,1.5539,1.5539,1.5539,1.5539,1.5539,1.5539,1.5539,1.3578,1.1937,1.2767,1.2256,1.168,1.168,1.168,1.1431,1.061,1.0487,1.0487,1.0487,1.0487,1.0487,1.0487,1.0487,1.0487,1.0487,1.0487,1.0487,1.0487,1.0487,1.0487,1.0487,1.0487,1.0487,1.0487,0.872,0.774,0.774,0.774,0.774,0.774,0.774,0.774,0.774,0.774,0.7283,1.0786,1.1023,1.1273,1.1558,1.19,1.2166,1.2232,1.1555,1.094,1.094,1.094,1.094,1.094,1.094,1.0928,1.0875,1.0937,1.0768,1.05,1.0459,1.0507,1.0589,1.0621,1.074,1.1095,1.0898,1.1358,1.2653,1.259,1.307,1.4403,1.4466,1.4466,1.4466,1.4466,1.4466,1.4466,1.4466,1.4466,1.4466,1.4466,1.4656,1.4962,1.326,1.3197,1.4466,1.4466,1.4466,1.4466,1.4466,1.4466,1.4466,1.4466,1.4466,1.4466,1.4466,1.4466,1.4466,1.4466,1.4466,1.4466,1.4466,1.4466,1.4466,1.4466,1.4466,1.4466,1.4466,1.4466,1.4466,1.4466,1.4466,1.4466,1.4466,1.2448,1.0487,1.0487,1.0487,1.0487,1.0487,1.0487,1.0487,1.0487,1.0487,1.0487,1.0487,1.0487,1.0359,0.9959,0.9894,0.9765,0.9436,0.9372,0.9372,0.9372,0.9372,0.9372,0.9372,0.9372,0.9372,0.9372,0.67,0.527,0.527,0.527,0.527,0.527,0.527,0.527,0.527,0.527,0.501,1.0786,1.0884,1.1036,1.1512,1.1669,1.1834,1.2186,0.934,0.6602,0.6602,0.6602,0.6602,0.6602,0.6602,0.6558,0.6573,0.6624,0.6564,0.6539,0.6516,0.7014,0.8327,0.8437,0.9036,1.0457,1.0541,1.0592,1.0779,1.0752,1.0803,1.0932,1.0932,1.0932,1.0932,1.0932,1.0932,1.0932,1.0932,1.0932,1.0932,1.0932,1.1744,1.3188,1.1495,1.0803,1.0932,1.0932,1.0932,1.0932,1.0932,1.0932,1.0932,1.0932,1.0932,1.0932,1.0932,1.0932,1.0932,1.0932,1.0932,1.0932,1.0932,1.0932,1.0932,1.0932,1.0932,1.0932,1.0932,1.0932,1.0932,1.0932,1.0932,1.0932,1.0932,1.0738,1.0487,1.0487,1.0487,1.0487,1.0487,1.0487,1.0487,1.0487,1.0487,1.0487,1.0487,1.0487,0.9894,0.8263,0.7999,0.7412,0.5918,0.5724,0.5724,0.5724,0.5724,0.5724,0.5724,0.5724,0.5724,0.5724,0.54,0.527,0.527,0.527,0.527,0.527,0.527,0.527,0.527,0.527,0.4358,0.745,0.7633,0.777,0.8004,0.8165,0.83,0.8462,0.7202,0.6059,0.6004,0.6012,0.5996,0.5996,0.6002,0.6004,0.6023,0.6011,0.5968,0.5812,0.5791,0.5936,0.6369,0.6415,0.665,0.7292,0.7352,0.7352,0.7352,0.7352,0.7352,0.7352,0.7352,0.7352,0.7352,0.7352,0.7352,0.7352,0.8327,0.885,0.885,0.9959,0.9753,0.8296,0.7666,0.7352,0.7352,0.7352,0.7352,0.7352,0.7352,0.7352,0.7352,0.7352,0.7352,0.7352,0.7352,0.7352,0.7352,0.7352,0.7352,0.7481,0.8521,0.885,0.9043,1.0159,1.0487,1.0487,1.0487,1.0487,1.0487,1.0487,1.0487,0.9959,0.7805,0.7352,0.7352,0.7352,0.7352,0.7352,0.7352,0.7352,0.7352,0.7352,0.7352,0.7352,0.7352,0.7352,0.7089,0.6376,0.6242,0.5983,0.5335,0.527,0.527,0.527,0.527,0.527,0.527,0.527,0.4296,0.2155,0.2089,0.2089,0.2089,0.2089,0.2089,0.2089,0.2089,0.2089,0.2089,0.2089,0.1699,0.527,0.5413,0.5571,0.5619,0.5791,0.5966,0.6011,0.5079,0.4258,0.4266,0.4263,0.4237,0.4237,0.4256,0.4271,0.4241,0.4244,0.4154,0.3975,0.3958,0.4062,0.4372,0.4426,0.4686,0.5205,0.527,0.527,0.527,0.527,0.527,0.527,0.527,0.527,0.527,0.527,0.527,0.527,0.6437,0.7024,0.7024,0.8327,0.7611,0.527,0.527,0.527,0.527,0.527,0.527,0.527,0.527,0.527,0.527,0.527,0.527,0.527,0.527,0.527,0.527,0.527,0.527,0.5464,0.6631,0.7024,0.7283,0.8521,0.8914,0.8914,0.8914,0.8914,0.8914,0.8914,0.8914,0.8327,0.5854,0.527,0.527,0.527,0.527,0.527,0.527,0.527,0.527,0.527,0.527,0.527,0.527,0.527,0.527,0.527,0.4751,0.4231,0.3778,0.3713,0.3713,0.3713,0.3713,0.3713,0.3713,0.3713,0.261,0.0131,0.0,0.0,0.0,0.0,0.0,0.0,0.0,0.0,0.0,0.0,0.0,0.527,0.527,0.5307,0.5592,0.5633,0.5742,0.5969,0.2897,0.0071,0.0071,0.0071,0.0071,0.0071,0.0071,0.007,0.0069,0.0068,0.0068,0.0066,0.0066,0.0654,0.2346,0.254,0.3256,0.5075,0.527,0.527,0.527,0.527,0.527,0.527,0.527,0.527,0.527,0.527,0.527,0.527,0.527,0.527,0.527,0.527,0.527,0.527,0.527,0.527,0.527,0.527,0.527,0.527,0.527,0.527,0.527,0.527,0.527,0.527,0.527,0.527,0.527,0.527,0.527,0.527,0.527,0.527,0.527,0.527,0.527,0.527,0.527,0.527,0.527,0.527,0.527,0.527,0.527,0.527,0.527,0.527,0.527,0.527,0.527,0.527,0.527,0.527,0.527,0.527,0.527,0.527,0.527,0.527,0.3646,0.1891,0.0262,0.0066,0.0066,0.0066,0.0066,0.0066,0.0066,0.0066,0.0066,0.0,0.0,0.0,0.0,0.0,0.0,0.0,0.0,0.0,0.0,0.0,0.0,0.1634,0.1634,0.1702,0.1784,0.1813,0.1834,0.1883,0.094,0.0,0.0,0.0,0.0,0.0,0.0,0.0,0.0,0.0,0.0,0.0,0.0,0.0196,0.0719,0.0785,0.1046,0.1634,0.1634,0.1634,0.1634,0.1634,0.1634,0.1634,0.1634,0.1634,0.1634,0.1634,0.1634,0.1634,0.2802,0.3386,0.3386,0.2219,0.1634,0.1634,0.1634,0.1634,0.1634,0.1634,0.1634,0.1634,0.1634,0.1634,0.1634,0.1634,0.1634,0.1634,0.1634,0.1634,0.1634,0.1634,0.1634,0.1828,0.2997,0.3386,0.3646,0.4877,0.527,0.527,0.527,0.527,0.4686,0.2285,0.1634,0.1634,0.1634,0.1634,0.1634,0.1634,0.1634,0.1634,0.1634,0.1634,0.1634,0.1634,0.1634,0.1634,0.1634,0.1634,0.1634,0.1634,0.1176,0.0589,0.0066,0.0,0.0,0.0,0.0,0.0,0.0,-0.1111,-0.1762,-0.1762,-0.0589,0.0,0.0,0.0,0.0,0.0,0.0,0.0,0.0,0.0,-0.0589,0.0,0.0,0.0,0.0,0.0,0.0,0.0,-0.0523,-0.0985,-0.0936,-0.1475,-0.1752,-0.1095,-0.0949,-0.0939,-0.0939,-0.0926,-0.0719,-0.0066,0.0,-0.0262,-0.085,-0.0393,-0.0262,-0.0915,-0.0393,0.0,0.0,0.0,0.0,0.0,0.0,-0.0262,-0.0915,-0.098,-0.1307,-0.1959,-0.0261,0.026,-0.0455,-0.15,-0.1959,-0.1959,-0.1959,-0.1959,-0.1959,-0.1959,-0.1959,-0.1959,-0.1959,-0.1959,-0.1959,-0.1959,-0.1567,-0.098,-0.098,-0.0523,0.0,0.0,0.0,0.0197,0.1241,0.1566,0.1762,0.2934,0.326,0.326,0.326,0.326,0.2476,-0.1044,-0.1959,-0.1959,-0.1959,-0.1959,-0.1959,-0.1959,-0.1959,-0.1959,-0.1959,-0.1959,-0.1959,-0.1959,-0.1959,-0.1959,-0.1959,-0.1959,-0.1959,-0.1959,-0.1959,-0.1959,-0.1959,-0.1959,-0.1959,-0.1959,-0.1959,-0.1959,-0.1959,-0.2997,-0.3581,-0.3581,-0.2543,-0.1959,-0.1959,-0.1959,-0.1959,-0.1959,-0.1959,-0.1959,-0.1959,-0.1959,-0.2543,0.0,0.0,0.0,0.0,-0.0066,-0.0196,-0.0327,-0.1566,-0.2735,-0.2735,-0.4098,-0.4751,-0.306,-0.2735,-0.2735,-0.2735,-0.2735,-0.2152,-0.0589,-0.0393,-0.0981,-0.2541,-0.1306,-0.0981,-0.254,-0.1307,-0.0393,-0.0393,-0.0393,-0.0393,-0.0393,-0.0393,-0.1111,-0.267,-0.2735,-0.3516,-0.5205,-0.3581,-0.3646,-0.54,-0.5335,-0.527,-0.527,-0.527,-0.527,-0.527,-0.527,-0.527,-0.527,-0.527,-0.527,-0.527,-0.527,-0.4231,-0.2735,-0.2735,-0.1697,-0.0393,-0.0393,-0.0393,-0.0393,-0.0393,-0.0393,-0.0393,-0.0393,-0.0393,-0.0393,-0.0393,-0.0393,-0.1112,-0.4429,-0.527,-0.527,-0.527,-0.527,-0.527,-0.527,-0.527,-0.527,-0.527,-0.527,-0.527,-0.527,-0.527,-0.527,-0.527,-0.527,-0.527,-0.527,-0.527,-0.527,-0.527,-0.527,-0.527,-0.527,-0.527,-0.5335,-0.5594,-0.5529,-0.54,-0.54,-0.5335,-0.527,-0.527,-0.527,-0.527,-0.527,-0.527,-0.527,-0.527,-0.527,-0.5335,0.0,0.0,0.0,0.0,-0.098,-0.2282,-0.3713,-0.4296,-0.4618,-0.4618,-0.4945,-0.514,-0.4686,-0.4618,-0.4618,-0.4618,-0.4618,-0.4491,-0.4103,-0.4038,-0.4169,-0.4556,-0.4231,-0.4169,-0.4556,-0.4231,-0.4038,-0.4038,-0.4038,-0.4038,-0.4038,-0.4038,-0.4234,-0.4618,-0.4618,-0.4815,-0.527,-0.4815,-0.5464,-0.7153,-0.5854,-0.527,-0.527,-0.527,-0.527,-0.527,-0.527,-0.527,-0.527,-0.527,-0.527,-0.527,-0.527,-0.501,-0.4618,-0.4618,-0.4361,-0.4038,-0.4038,-0.4038,-0.4038,-0.4038,-0.4038,-0.4038,-0.4038,-0.4038,-0.4038,-0.4038,-0.4038,-0.4234,-0.501,-0.527,-0.527,-0.527,-0.527,-0.527,-0.527,-0.527,-0.527,-0.527,-0.527,-0.527,-0.527,-0.527,-0.527,-0.527,-0.527,-0.527,-0.527,-0.527,-0.527,-0.527,-0.527,-0.527,-0.527,-0.527,-0.6376,-0.9108,-0.7939,-0.7153,-0.7153,-0.5918,-0.527,-0.527,-0.527,-0.527,-0.527,-0.527,-0.527,-0.527,-0.527,-0.5918,0.0,0.0,-0.0393,-0.2024,-0.3127,-0.4033,-0.501,-0.5854,-0.6437,-0.6437,-0.7089,-0.7417,-0.657,-0.7089,-0.7417,-0.657,-0.6437,-0.6113,-0.5335,-0.527,-0.5529,-0.6307,-0.5724,-0.5529,-0.6311,-0.5724,-0.527,-0.527,-0.527,-0.527,-0.527,-0.527,-0.5594,-0.6376,-0.6437,-0.683,-0.7676,-0.8435,-0.9266,-1.0178,-0.8446,-0.7676,-0.7676,-0.7676,-0.7676,-0.7676,-0.7676,-0.7676,-0.7676,-0.7676,-0.7676,-0.7676,-0.7676,-0.7676,-0.7546,-0.67,-0.6437,-0.6307,-0.5529,-0.527,-0.527,-0.527,-0.527,-0.527,-0.527,-0.527,-0.527,-0.527,-0.6441,-0.7676,-0.7676,-0.7676,-0.7676,-0.7676,-0.7676,-0.7676,-0.7676,-0.7676,-0.7676,-0.7676,-0.7676,-0.7676,-0.7676,-0.7676,-0.7676,-0.7676,-0.7676,-0.7676,-0.7676,-0.7676,-0.7676,-0.7676,-0.7676,-0.7676,-0.7676,-0.7676,-0.8457,-1.0352,-0.9566,-0.9043,-0.9043,-0.8886,-0.881,-0.881,-0.9569,-0.9953,-0.9953,-0.9953,-0.9953,-0.9953,-0.9953,-1.0472,-0.0393,-0.0589,-0.1568,-0.4815,-0.5659,-0.5724,-0.5983,-0.7153,-0.8193,-0.8193,-0.9436,-1.003,-0.8457,-0.9436,-1.0088,-0.8774,-0.8575,-0.8182,-0.7006,-0.6812,-0.7333,-0.8827,-0.7721,-0.7398,-0.8827,-0.7656,-0.6812,-0.6812,-0.6812,-0.6812,-0.6812,-0.6812,-0.7462,-0.8892,-0.8956,-0.974,-1.1246,-1.2687,-1.3443,-1.3379,-1.1937,-1.1246,-1.1246,-1.1246,-1.1246,-1.1246,-1.1246,-1.1246,-1.1246,-1.1246,-1.1246,-1.1246,-1.1246,-1.1246,-1.1046,-0.9225,-0.8575,-0.8317,-0.6631,-0.6048,-0.6048,-0.6048,-0.6048,-0.6048,-0.6048,-0.6048,-0.6178,-0.6683,-0.8956,-1.1246,-1.1246,-1.1246,-1.1246,-1.1246,-1.106,-1.0867,-1.0867,-1.0674,-1.0487,-1.0487,-1.0487,-1.0487,-1.0487,-1.0487,-1.0487,-1.0487,-1.0487,-1.0487,-1.0487,-1.0487,-1.0487,-1.0487,-1.0487,-1.0487,-1.0487,-1.0487,-1.0738,-1.1246,-1.1246,-1.1246,-1.1246,-1.2624,-1.3443,-1.3443,-1.4836,-1.5539,-1.5539,-1.5539,-1.5539,-1.5539,-1.5539,-1.5539,-0.2151,-0.3258,-0.4945,-0.6894,-0.7417,-0.7805,-0.9372,-0.9894,-1.0094,-1.0094,-1.0288,-1.0416,-1.0159,-1.0288,-1.086,-1.2042,-1.2225,-1.2608,-1.3806,-1.3996,-1.4059,-1.4321,-1.4122,-1.4059,-1.4321,-1.4122,-1.3996,-1.3996,-1.3996,-1.3996,-1.3996,-1.3996,-1.4122,-1.4384,-1.4384,-1.452,-1.4782,-1.5035,-1.5161,-1.5161,-1.4909,-1.4782,-1.4782,-1.4782,-1.4782,-1.4782,-1.4782,-1.4782,-1.4782,-1.4782,-1.4782,-1.4782,-1.4782,-1.4782,-1.4592,-1.2862,-1.2225,-1.1978,-1.0268,-0.9701,-0.9701,-0.9701,-0.9701,-0.9701,-0.9701,-0.9701,-1.0268,-1.3172,-1.4384,-1.4782,-1.4782,-1.4782,-1.4782,-1.4782,-1.3705,-1.2624,-1.2624,-1.1495,-1.0487,-1.0487,-1.0487,-1.0487,-1.0487,-1.0487,-1.0487,-1.0487,-1.0487,-1.0487,-1.0487,-1.0487,-1.0487,-1.0487,-1.0487,-1.0487,-1.0487,-1.0487,-1.1688,-1.4592,-1.4782,-1.4782,-1.4782,-1.5035,-1.5161,-1.5161,-1.5413,-1.5539,-1.5539,-1.5539,-1.5539,-1.5539,-1.5539,-1.5539,-0.3711,-0.5983,-0.8263,-0.9043,-0.9243,-0.9436,-1.0288,-1.0487,-1.0738,-1.168,-1.1873,-1.2121,-1.3078,-1.3205,-1.346,-1.4267,-1.4393,-1.4646,-1.5476,-1.5539,-1.5539,-1.5539,-1.5539,-1.5539,-1.5539,-1.5539,-1.5539,-1.5539,-1.5539,-1.5539,-1.5539,-1.5539,-1.5539,-1.5539,-1.5539,-1.6419,-1.8241,-1.738,-1.6942,-1.6942,-1.598,-1.5539,-1.5539,-1.5539,-1.5539,-1.5539,-1.5539,-1.5539,-1.5539,-1.5539,-1.5539,-1.5539,-1.5539,-1.5539,-1.5476,-1.471,-1.4393,-1.4267,-1.3523,-1.3205,-1.3205,-1.3205,-1.3205,-1.3205,-1.3205,-1.3205,-1.3587,-1.5098,-1.5539,-1.5539,-1.5539,-1.5539,-1.5539,-1.5539,-1.4962,-1.4393,-1.4393,-1.3769,-1.3205,-1.3205,-1.3205,-1.3205,-1.3205,-1.3205,-1.3205,-1.3205,-1.3205,-1.3205,-1.3205,-1.3205,-1.3205,-1.3205,-1.3205,-1.3205,-1.3205,-1.3205,-1.3904,-1.5476,-1.5539,-1.5539,-1.5539,-1.5539,-1.598,-1.6879,-1.7817,-1.8315,-1.8315,-1.8315,-1.8315,-1.8315,-1.8315,-1.8315,-0.5983,0.0,-1.0989,-1.061,-1.0803,-1.1117,0.0,-1.1374,-1.2064,-1.3379,-1.3633,-1.4014,-1.5287,-1.5539,-1.5665,-1.6053,-1.6178,-1.6304,-1.667,-1.7024,-1.7449,-1.7811,-1.7512,-1.7262,-1.7262,-1.6972,-1.6733,-1.6733,-1.6733,-1.6733,-1.6733,-1.6733,-1.6733,-1.6733,-1.7449,-1.9061,-2.1653,-2.0403,-1.9788,-1.9727,-1.8443,-1.7811,-1.7811,-1.7811,-1.7811,-1.7811,-1.7811,-1.7811,-1.7811,-1.7811,-1.7811,-1.7811,-1.7449,-1.7262,-1.72,-1.6419,-1.6178,-1.6116,-1.5665,-1.5539,-1.5539,-1.5539,-1.5539,-1.5539,-1.5539,-1.6346,-1.7262,-1.7262,-1.7035,-1.6733,-1.6733,-1.6733,-1.6733,-1.6733,-1.6419,-1.6178,-1.6178,-1.5854,-1.5539,-1.5539,-1.5539,-1.5539,-1.5539,-1.5539,-1.5539,-1.5539,-1.5539,-1.5539,-1.5539,-1.5539,-1.5539,-1.5539,-1.5539,-1.5539,-1.5539,-1.6951,-1.7687,-1.7325,-1.7625,-1.7811,-1.7811,-1.7811,-1.8443,-1.9727,-2.1042,-2.1727,-2.1727,-2.1727,-2.1727,-2.1727,-2.1727,-2.1727,0.0,-1.1424,-1.2496,-1.0867,-1.168,-1.287,-1.287,-1.4077,0.0,-1.535,-1.535,-1.5413,-1.5539,-1.5539,-1.6043,-1.7641,-1.7891,-1.8451,-2.0024,-2.1503,-2.2989,-2.4425,-2.3274,-2.2446,-2.2446,-2.109,-2.027,-2.027,-2.027,-2.027,-2.027,-2.027,-2.027,-2.027,-2.3064,-2.4678,-2.4931,-2.4813,-2.4738,-2.4738,-2.4603,-2.4544,-2.4544,-2.4544,-2.4544,-2.4544,-2.4544,-2.4544,-2.4544,-2.4544,-2.4544,-2.4425,-2.2989,-2.2446,-2.2023,-1.8986,-1.7891,-1.7703,-1.6116,-1.5539,-1.5539,-1.5539,-1.5539,-1.5539,-1.5539,-1.874,-2.2446,-2.2446,-2.1382,-2.027,-2.027,-2.027,-2.027,-2.027,-1.9022,-1.7891,-1.7891,-1.6681,-1.5539,-1.5539,-1.5539,-1.5539,-1.5539,-1.5539,-1.5539,-1.5539,-1.5539,-1.5539,-1.5539,-1.5539,-1.5539,-1.5539,-1.5539,-1.5539,-1.5539,-2.1118,-2.3948,-2.2507,-2.3769,-2.4544,-2.4544,-2.4544,-2.4603,-2.4738,-2.4872,-2.4931,-2.4931,-2.4931,-2.4931,-2.4931,-2.4931,-2.4931,-1.3197,-1.4086,-1.4457,-1.3769,-1.4149,-1.4583,-1.4583,-1.5088,-1.5854,-1.6942,-1.713,-1.7442,-1.8501,-1.9517,-2.0351,-2.0989,-2.1901,-2.2748,-2.3439,-2.4023,-2.4619,-2.5168,-2.4738,-2.4381,-2.4381,-2.3859,-2.3514,-2.3514,-2.3514,-2.3514,-2.3514,-2.3514,-2.3514,-2.3514,-2.4634,-2.5287,-2.5287,-2.5287,-2.5287,-2.5287,-2.5287,-2.5287,-2.5287,-2.5287,-2.5287,-2.5287,-2.5287,-2.5287,0.0,-2.5287,-2.5287,-2.5228,-2.4619,-2.4381,-2.4262,-2.2989,-2.2567,-2.2446,-2.186,-2.1603,-2.1603,-2.1603,-2.1603,-2.1603,-2.1603,-2.2899,-2.4381,-2.4381,-2.3978,-2.3514,-2.3514,-2.3514,-2.3514,-2.3514,-2.3003,-2.2567,-2.2567,-2.2055,-2.1603,-2.1603,-2.1603,-2.1603,-2.1603,-2.1603,-2.1603,-2.1603,-2.1603,-2.1603,-2.1603,-2.1603,-2.1603,-2.1603,-2.1603,-2.1603,-2.1603,-2.3873,-2.5034,-2.444,-2.4931,-2.5287,-2.5287,-2.5287,-2.5287,-2.5287,-2.5287,-2.5287,-2.5287,-2.5287,-2.5287,-2.5287,-2.5287,-2.5287,-1.5413,-1.5917,-1.6241,-1.5665,-1.598,-1.6367,-1.6367,-1.6743,-1.7494,-1.8637,-1.9245,-1.9986,-2.1103,-2.2596,-2.3664,-2.3664,-2.4559,-2.5287,-2.5287,-2.57,-2.5978,-2.5978,-2.6447,-2.6564,-2.6037,-2.5582,-2.5287,-2.5287,-2.5287,-2.5287,-2.5287,-2.5287,-2.6138,-2.8041,-2.7673,-2.7402,-2.7402,-2.6972,-2.6739,-2.6739,-2.6739,-2.6739,-2.6739,-2.6739,-2.6739,-2.6739,-2.6739,-2.6739,-2.6739,-2.6739,-2.6739,-2.6681,-2.6213,-2.5978,-2.5936,-2.5464,-2.5287,-2.5287,-2.5287,-2.5239,-2.5266,-2.5271,-2.526,-2.5292,-2.5244,-2.6255,-2.7286,-2.6805,-2.602,-2.5287,-2.5287,-2.5287,-2.5287,-2.5287,-2.5287,-2.5287,-2.5287,-2.5287,-2.5287,-2.5287,-2.5287,-2.5287,-2.5287,-2.5287,-2.5287,-2.5287,-2.5287,-2.5287,-2.5287,-2.5287,-2.5287,-2.5287,-2.5287,-2.5464,-2.5995,-2.6447,-2.6506,-2.6037,-2.6447,-2.6739,-2.6739,-2.6739,-2.6739,-2.6739,-2.6739,-2.6739,-2.6739,-2.6739,-2.6739,-2.6739,-2.6739,-2.6739,-1.6043,-1.6817,-1.7703,-1.6043,-1.6869,-1.8089,-1.8089,-1.9406,-2.0652,-2.0652,-2.1882,-2.2929,-2.2929,-2.4262,-2.5287,-2.5287,-2.5287,-2.5287,-2.5287,-2.6622,-2.7628,-2.7628,-2.9026,-2.9369,-2.7802,-2.6271,-2.5346,-2.5346,-2.5346,-2.5346,-2.5346,-2.5346,-2.8098,-3.3987,-3.284,-3.2094,-3.2094,-3.0668,-2.9955,-2.9955,-2.9955,-2.9955,-2.9955,-2.9955,-2.9955,-2.9955,-2.9955,-2.9955,-2.9955,-2.9955,-2.9955,-2.9823,-2.8263,-2.7668,-2.7437,-2.5936,-2.5346,-2.5346,-2.5346,-2.5394,-2.5365,-2.5341,-2.5383,-2.536,-2.5378,-2.8496,-3.1798,-3.0214,-2.7638,-2.5346,-2.5346,-2.5346,-2.5346,-2.5346,-2.5346,-2.5346,-2.5346,-2.5346,-2.5346,-2.5346,-2.5346,-2.5346,-2.5346,-2.5346,-2.5346,-2.5346,-2.5287,-2.5287,-2.5287,-2.5287,-2.5287,-2.5287,-2.5346,-2.5978,-2.7553,-2.9084,-2.9312,-2.7784,-2.9122,-2.9955,-2.9955,-2.9955,-2.9955,-2.9955,-2.9955,-2.9955,-2.9955,-2.9955,-2.9955,-2.9955,-2.9955,-2.9955,-1.8948,-1.9455,-1.9702,-1.9257,-1.9455,-1.9838,-1.9838,-2.1103,-2.2232,-2.2232,-2.3499,-2.4559,-2.4559,-2.586,-2.6931,-2.6931,-2.7859,-2.855,-2.855,-2.8969,-2.9634,-3.0629,-3.1152,-3.1263,-3.0797,-3.1219,-3.1586,-3.1586,-3.1586,-3.1586,-3.1586,-3.1586,-3.2355,-3.4169,-3.3794,-3.3578,-3.3578,-3.3145,-3.2928,-3.2928,-3.2928,-3.2928,-3.2928,-3.2928,-3.2928,-3.2928,-3.2928,-3.2928,-3.2928,-3.2928,-3.2928,-3.2928,-3.2451,-3.1647,-3.0778,-3.1386,-3.0942,-3.0198,-3.1199,-3.1581,-3.1596,-3.1546,-3.1551,-3.1591,-3.1586,-3.2505,-3.347,-3.3028,-3.2245,-3.1586,-3.1586,-3.1586,-3.1586,-3.1586,-3.1586,-3.1586,-3.1586,-3.1586,-3.1586,-3.1586,-3.1586,-3.1255,-3.0198,-3.0029,-2.9709,-2.8722,-2.855,-2.855,-2.855,-2.855,-2.855,-2.855,-3.0328,-3.1752,-3.2211,-3.269,-3.2744,-3.2266,-3.269,-3.2928,-3.2928,-3.2928,-3.2928,-3.2928,-3.2928,-3.2928,-3.2928,-3.2928,-3.2928,-3.2928,-3.2928,-3.2928,-2.1287,-2.2018,-2.2503,-2.2503,-2.2503,-2.2503,-2.2503,-2.3199,-2.3903,-2.3903,-2.5093,-2.6389,-2.6962,-2.7882,-2.8933,-3.0066,-3.0517,-3.1004,-3.1576,-3.1632,-3.1963,-3.284,-3.2949,-3.2949,-3.2949,-3.3686,-3.4222,-3.4222,-3.4222,-3.468,-3.5859,-3.5911,-3.5911,-3.5911,-3.5365,-3.505,-3.505,-3.4489,-3.4222,-3.4222,-3.4222,-3.4222,-3.4222,-3.4222,-3.4222,-3.4222,-3.4222,-3.4222,-3.4222,-3.4222,-3.4222,-3.4222,-3.4222,-3.3686,-3.3004,-3.3901,-3.3686,-3.3058,-3.3901,-3.4189,-3.4208,-3.4232,-3.5019,-3.5911,-3.5911,-3.5523,-3.505,-3.505,-3.4648,-3.4222,-3.4222,-3.4222,-3.4222,-3.4222,-3.4222,-3.4222,-3.4222,-3.4222,-3.4222,-3.4222,-3.4222,-3.3955,-3.3058,-3.2949,-3.2622,-3.1742,-3.1632,-3.1632,-3.1632,-3.1632,-3.1632,-3.1632,-3.32,-3.4222,-3.4222,-3.4222,-3.4222,-3.4222,-3.4222,-3.4222,-3.4222,-3.4222,-3.4222,-3.4222,-3.4222,-3.4222,-3.4222,-3.4222,-3.4222,-3.4222,-3.4222,-3.4222,-2.3169,-2.4202,-2.5287,-2.5287,-2.5287,-2.5287,-2.5287,-2.5405,-2.5523,-2.5684,-2.6914,-2.8439,-2.9877,-3.0254,-3.1188,-3.3794,-3.3112,-3.2731,-3.4008,-3.4222,-3.4276,-3.4361,-3.4436,-3.4436,-3.4436,-3.452,-3.452,-3.4436,-3.452,-3.5836,-3.871,-3.8809,-3.8809,-3.8809,-3.7532,-3.6921,-3.6921,-3.5582,-3.4975,-3.4975,-3.4975,-3.4869,-3.4786,-3.4869,-3.4869,-3.4786,-3.4869,-3.4869,-3.4786,-3.4786,-3.4733,-3.4573,-3.4573,-3.452,-3.4436,-3.4595,-3.452,-3.4436,-3.4595,-3.4609,-3.4589,-3.4591,-3.6378,-3.8485,-3.8485,-3.758,-3.6533,-3.6533,-3.5598,-3.4573,-3.4573,-3.4573,-3.4573,-3.4573,-3.4573,-3.4573,-3.4573,-3.4573,-3.4573,-3.4573,-3.4573,-3.4595,-3.4436,-3.4436,-3.4382,-3.4222,-3.4222,-3.4222,-3.4222,-3.4222,-3.4414,-3.4922,-3.4975,-3.4975,-3.4975,-3.4975,-3.4975,-3.4975,-3.4975,-3.4975,-3.4975,-3.4975,-3.4975,-3.4975,-3.4975,-3.4975,-3.4975,-3.4975,-3.4975,-3.4975,-3.4975,-3.4869,-2.4738,-2.5034,-2.5287,-2.5287,-2.5287,-2.5287,-2.5287,-2.6229,-2.742,-2.8538,-3.0047,-3.1556,-3.2995,-3.3287,-3.3524,-3.4115,-3.3955,-3.3847,-3.4169,-3.4222,-3.4648,-3.5755,-3.5888,-3.5888,-3.5888,-3.6917,-3.7122,-3.5963,-3.6945,-3.8686,-4.1245,-4.1412,-4.1412,-4.1412,-4.1077,-4.0936,-4.0936,-4.0599,-4.0457,-4.0457,-4.0457,-3.9981,-3.9131,-4.0052,-3.9981,-3.9131,-4.0052,-3.9933,-3.9106,-3.9106,-3.8511,-3.758,-3.758,-3.6842,-3.6015,-3.7173,-3.6842,-3.6067,-3.7173,-3.7556,-3.7559,-3.758,-3.7958,-3.8485,-3.8485,-3.8284,-3.8009,-3.8009,-3.7807,-3.758,-3.758,-3.758,-3.758,-3.758,-3.758,-3.758,-3.758,-3.758,-3.758,-3.758,-3.758,-3.7224,-3.6067,-3.5888,-3.5523,-3.4382,-3.4222,-3.4222,-3.4222,-3.4222,-3.5797,-4.0001,-4.0457,-4.0457,-4.0457,-4.0457,-4.0457,-4.0457,-4.0457,-4.0457,-4.0457,-4.0457,-4.0457,-4.0457,-4.0457,-4.0457,-4.0457,-4.0457,-4.0457,-4.0457,-4.0457,-3.9981,-2.6389,-2.742,-2.8553,-2.8553,-2.903,-2.9559,-2.9559,-3.0196,-3.0997,-3.1731,-3.256,-3.3524,-3.4966,-3.4702,-3.4626,-3.6015,-3.5702,-3.5493,-3.6171,-3.6275,-3.6533,-3.7275,-3.7377,-3.7607,-3.8262,-3.8983,-3.9352,-3.9154,-3.9813,-4.0798,-4.2083,-4.2175,-4.2175,-4.2175,-4.2175,-4.2175,-4.2175,-4.2175,-4.2175,-4.2175,-4.2175,-4.1878,-4.1297,-4.1924,-4.1832,-4.1297,-4.1924,-4.1832,-4.125,-4.125,-4.0872,-4.025,-4.025,-3.9813,-3.9252,-3.9983,-3.9764,-3.9252,-3.9983,-3.9889,-3.95,-4.0083,-4.025,-4.025,-4.025,-4.025,-4.0105,-3.9598,-3.9427,-3.9279,-3.8635,-3.8933,-3.9427,-3.9427,-3.984,-4.025,-4.025,-4.025,-4.025,-4.025,-4.025,-4.0032,-3.9252,-3.9154,-3.8884,-3.8141,-3.8042,-3.8042,-3.8042,-3.8042,-3.9103,-4.1898,-4.2175,-4.2175,-4.2175,-4.2175,-4.2175,-4.2175,-4.2175,-4.2175,-4.2175,-4.2175,-4.2175,-4.2175,-4.2175,-4.2175,-4.2175,-4.2175,-4.2175,-4.2175,-4.2175,-4.1832,-2.836,-3.0386,-3.2423,-3.2423,-3.3329,-3.4222,-3.4222,-3.4222,-3.4276,-3.452,-3.4595,-3.5019,-3.643,-3.594,-3.6044,-3.846,-3.8011,-3.7761,-3.8983,-3.9131,-3.9131,-3.9131,-3.9131,-3.9573,-4.0637,-4.0759,-4.1135,-4.2083,-4.2541,-4.2814,-4.2814,-4.2814,-4.2814,-4.2814,-4.2814,-4.2814,-4.2814,-4.2814,-4.2814,-4.2814,-4.2814,-4.2678,-4.2523,-4.2723,-4.2678,-4.2523,-4.2723,-4.2705,-4.2523,-4.2523,-4.2385,-4.2175,-4.2175,-4.2175,-4.2175,-4.2175,-4.2175,-4.2175,-4.2175,-4.1532,-4.0924,-4.2109,-4.2358,-4.2175,-4.2175,-4.2175,-4.1971,-4.0993,-4.0759,-4.0494,-3.9377,-3.9914,-4.0759,-4.0759,-4.1485,-4.2175,-4.2175,-4.2175,-4.2175,-4.2175,-4.2175,-4.2175,-4.2175,-4.2175,-4.2175,-4.2175,-4.2175,-4.2175,-4.2175,-4.2541,-4.2814,-4.2814,-4.2814,-4.2814,-4.2814,-4.2814,-4.2814,-4.2814,-4.2814,-4.2814,-4.2814,-4.2814,-4.2814,-4.2814,-4.2814,-4.2814,-4.2814,-4.2814,-4.2814,-4.2814,-4.2814,-4.2678,-3.1485,-3.2656,-3.3901,-3.3901,-3.4062,-3.4222,-3.4222,-3.4222,-3.4595,-3.5784,-3.6067,-3.6482,-3.7958,-3.8983,-3.972,-4.0134,-4.0846,-4.1453,-4.1666,-4.1666,-4.1666,-4.1666,-4.1666,-4.1759,-4.1924,-4.1971,-4.2017,-4.2175,-4.4162,-4.5413,-4.5413,-4.5413,-4.5413,-4.5413,-4.5413,-4.5413,-4.5413,-4.5413,-4.5413,-4.5413,-4.5413,-4.4828,-4.3937,-4.4942,-4.4828,-4.3937,-4.4914,-4.4784,-4.3893,-4.3893,-4.3185,-4.2175,-4.2175,-4.2175,-4.2175,-4.2175,-4.2175,-4.2175,-4.2175,-4.2109,-4.2155,-4.3436,-4.3094,-4.2175,-4.2175,-4.2175,-4.2129,-4.2017,-4.1971,-4.1924,-4.1712,-4.1805,-4.1971,-4.1971,-4.2036,-4.2175,-4.2175,-4.2175,-4.2175,-4.2175,-4.2175,-4.2175,-4.2175,-4.2175,-4.2175,-4.2175,-4.2175,-4.2175,-4.2175,-4.4074,-4.5413,-4.5413,-4.5413,-4.5413,-4.5413,-4.5413,-4.5413,-4.5413,-4.5413,-4.5413,-4.5413,-4.5413,-4.5413,-4.5413,-4.5413,-4.5413,-4.5413,-4.5413,-4.5413,-4.5413,-4.5413,-4.4828,-3.3275,-3.4329,-3.544,-3.544,-3.6015,-3.6585,-3.6585,-3.6585,-3.6814,-3.7428,-3.8135,-3.881,-3.9451,-4.0564,-4.1391,-4.1391,-4.1832,-4.2175,-4.2175,-4.2175,-4.2175,-4.2175,-4.2175,-4.2477,-4.3185,-4.3302,-4.3543,-4.4206,-4.579,-4.6756,-4.6756,-4.6756,-4.7039,-4.7607,-4.708,-4.6756,-4.6756,-4.6169,-4.5864,-4.5864,-4.5864,-4.5612,-4.5114,-4.5654,-4.5612,-4.5114,-4.5654,-4.5569,-4.5143,-4.5143,-4.4784,-4.425,-4.425,-4.425,-4.425,-4.425,-4.425,-4.425,-4.425,-4.425,-4.4337,-4.4942,-4.4741,-4.425,-4.425,-4.425,-4.4118,-4.3481,-4.3302,-4.3094,-4.2385,-4.2705,-4.3302,-4.3302,-4.3765,-4.425,-4.425,-4.425,-4.425,-4.425,-4.425,-4.425,-4.425,-4.425,-4.425,-4.425,-4.425,-4.4439,-4.507,-4.6052,-4.6756,-4.6756,-4.6211,-4.5864,-4.5864,-4.5864,-4.5864,-4.5864,-4.5864,-4.5864,-4.5864,-4.5864,-4.5864,-4.5864,-4.5864,-4.5864,-4.5864,-4.5864,-4.5864,-4.5864,-4.5864,-4.5612,-3.4755,-3.5784,-3.6945,-3.7278,-3.8186,-3.9082,-3.9377,-3.9426,-3.9426,-3.9426,-4.0179,-4.0876,-4.0876,-4.1858,-4.2659,-4.2659,-4.2932,-4.3112,-4.3112,-4.3112,-4.3112,-4.3112,-4.3112,-4.3498,-4.4465,-4.4581,-4.5129,-4.6552,-4.7369,-4.7812,-4.7812,-4.7812,-4.8191,-4.8951,-4.8199,-4.7812,-4.7812,-4.705,-4.6675,-4.6675,-4.6675,-4.6675,-4.6675,-4.6675,-4.6675,-4.6634,-4.6376,-4.6252,-4.6252,-4.599,-4.5864,-4.5864,-4.5864,-4.5864,-4.5864,-4.5864,-4.5864,-4.5864,-4.5864,-4.5864,-4.5864,-4.5864,-4.5864,-4.5864,-4.5864,-4.5864,-4.5696,-4.4813,-4.4581,-4.435,-4.3381,-4.3837,-4.4581,-4.4581,-4.5243,-4.5864,-4.5864,-4.5864,-4.5948,-4.6211,-4.6074,-4.5948,-4.6211,-4.6074,-4.5864,-4.5864,-4.6115,-4.6634,-4.7655,-4.7812,-4.7812,-4.7812,-4.713,-4.6675,-4.6675,-4.6675,-4.6675,-4.6675,-4.6675,-4.6675,-4.6675,-4.6675,-4.6675,-4.6675,-4.6675,-4.6675,-4.6675,-4.6675,-4.6675,-4.6675,-4.6675,-4.6675,-3.6223,-3.7275,-3.8685,-3.9891,-4.0279,-4.0637,-4.1739,-4.199,-4.199,-4.199,-4.2036,-4.2083,-4.2083,-4.3167,-4.4026,-4.4026,-4.4942,-4.5696,-4.5696,-4.5696,-4.5696,-4.5696,-4.5696,-4.5696,-4.578,-4.578,-4.6634,-4.8688,-4.8876,-4.8913,-4.8913,-4.8913,-4.8951,-4.8988,-4.8951,-4.8913,-4.8913,-4.8845,-4.8838,-4.8838,-4.8838,-4.8838,-4.8838,-4.8838,-4.8838,-4.8801,-4.7803,-4.733,-4.725,-4.6294,-4.5864,-4.5864,-4.5864,-4.5864,-4.5864,-4.5864,-4.5864,-4.5864,-4.5864,-4.5864,-4.5864,-4.5864,-4.5864,-4.5864,-4.5864,-4.5864,-4.5864,-4.578,-4.578,-4.578,-4.5696,-4.5738,-4.578,-4.578,-4.5822,-4.5864,-4.5864,-4.5864,-4.6169,-4.717,-4.6552,-4.6169,-4.717,-4.6541,-4.5864,-4.5864,-4.6715,-4.7725,-4.8801,-4.8913,-4.8913,-4.8913,-4.8845,-4.8838,-4.8838,-4.8838,-4.8838,-4.8838,-4.8838,-4.8838,-4.8838,-4.8838,-4.8838,-4.8838,-4.8838,-4.8838,-4.8838,-4.8838,-4.8838,-4.8838,-4.8838,-4.8838,-3.876,-3.9328,-4.0037,-4.125,-4.1579,-4.1646,-4.2083,-4.2175,-4.2175,-4.2175,-4.2868,-4.3436,-4.3436,-4.4437,-4.5271,-4.5271,-4.5612,-4.5864,-4.5864,-4.6459,-4.6878,-4.6878,-4.7488,-4.7881,-4.7881,-4.7881,-4.8191,-4.8951,-4.9609,-4.9971,-4.9971,-4.9971,-5.0255,-5.0848,-5.0291,-4.9971,-4.9971,-4.9971,-4.9646,-4.8988,-4.8988,-4.8988,-4.8988,-4.8988,-4.8988,-4.8988,-4.8612,-4.8429,-4.8314,-4.729,-4.725,-4.7773,-4.713,-4.729,-4.7803,-4.709,-4.6878,-4.6959,-4.7646,-4.7881,-4.7881,-4.7881,-4.7881,-4.7881,-4.7881,-4.7409,-4.6878,-4.6878,-4.6417,-4.5864,-4.5864,-4.5864,-4.5864,-4.5864,-4.6376,-4.6878,-4.6878,-4.7409,-4.7967,-4.8353,-4.8153,-4.7998,-4.8353,-4.8153,-4.7881,-4.7881,-4.8732,-4.9573,-4.9935,-4.9971,-4.9971,-4.9971,-4.9395,-4.8988,-4.8988,-4.8988,-4.8988,-4.8988,-4.8988,-4.8988,-4.8988,-4.8988,-4.8988,-4.8988,-4.8988,-4.8988,-4.8988,-4.8988,-4.8988,-4.8988,-4.8988,-4.8988,-4.0802,-4.0993,-4.1323,-4.255,-4.2868,-4.2959,-4.3337,-4.3426,-4.3426,-4.3426,-4.4102,-4.4726,-4.4726,-4.5357,-4.5864,-4.5864,-4.5864,-4.599,-4.6335,-4.6999,-4.7567,-4.792,-4.8543,-4.8988,-4.8988,-4.9578,-4.9975,-4.9975,-5.0571,-5.1015,-5.1015,-5.1015,-5.1253,-5.1883,-5.132,-5.1015,-5.1015,-5.1015,-5.0673,-4.9975,-4.9975,-4.9975,-4.9975,-4.9975,-4.9975,-4.9939,-4.9651,-4.9505,-4.9432,-4.8383,-4.8353,-4.8913,-4.823,-4.8383,-4.8913,-4.8199,-4.8161,-4.8536,-4.8876,-4.8988,-4.8988,-4.8988,-4.8988,-4.8988,-4.8988,-4.8505,-4.7959,-4.7959,-4.7449,-4.6918,-4.6918,-4.6918,-4.6918,-4.6918,-4.7449,-4.7959,-4.7959,-4.8498,-4.91,-4.9432,-4.9211,-4.91,-4.9432,-4.9211,-4.8988,-4.8988,-4.9542,-5.022,-5.088,-5.1015,-5.1015,-5.1015,-5.0396,-4.9975,-4.9975,-4.9975,-4.9975,-4.9975,-4.9975,-4.9975,-4.9975,-4.9975,-4.9975,-4.9975,-4.9975,-4.9975,-4.9975,-4.9975,-4.9975,-4.9975,-4.9975,-4.9975,-4.2221,-4.2221,-4.2568,-4.3865,-4.4158,-4.4465,-4.5612,-4.5864,-4.5864,-4.5864,-4.5864,-4.5864,-4.5864,-4.5906,-4.5906,-4.5906,-4.5948,-4.6335,-4.733,-4.7488,-4.792,-4.8913,-4.9063,-4.91,-4.91,-5.0779,-5.1883,-5.1883,-5.1883,-5.1883,-5.1883,-5.1883,-5.1883,-5.1883,-5.1883,-5.1883,-5.1883,-5.1883,-5.1883,-5.1883,-5.1883,-5.1883,-5.1883,-5.1883,-5.1883,-5.1851,-5.0981,-5.06,-5.0498,-4.9469,-4.9063,-4.9063,-4.9063,-4.9063,-4.91,-4.91,-4.9687,-5.0428,-4.9432,-4.91,-4.91,-4.91,-4.91,-4.91,-4.91,-4.9063,-4.9025,-4.9025,-4.9025,-4.8988,-4.8988,-4.8988,-4.8988,-4.8988,-4.9025,-4.9025,-4.9025,-4.9063,-4.9359,-5.0393,-4.9791,-4.9395,-5.0393,-4.9755,-4.91,-4.91,-4.91,-4.9759,-5.1653,-5.1883,-5.1883,-5.1883,-5.1883,-5.1883,-5.1883,-5.1883,-5.1883,-5.1883,-5.1883,-5.1883,-5.1883,-5.1883,-5.1883,-5.1883,-5.1883,-5.1883,-5.1883,-5.1883,-5.1883,-5.1883,-5.1883,-5.1883,-4.3347,-4.3598,-4.3865,-4.5071,-4.5399,-4.5484,-4.578,-4.5864,-4.5864,-4.5864,-4.5864,-4.5864,-4.5864,-4.65,-4.6969,-4.6969,-4.7646,-4.823,-4.8536,-4.9211,-4.9791,-5.0042,-5.0675,-5.1119,-5.1119,-5.1587,-5.1883,-5.1883,-5.1883,-5.1883,-5.1883,-5.1883,-5.1883,-5.1883,-5.1883,-5.1883,-5.1883,-5.1883,-5.1883,-5.1883,-5.1883,-5.1883,-5.1883,-5.1883,-5.1883,-5.1883,-5.1653,-5.1521,-5.1454,-5.0498,-5.0501,-5.1051,-5.0361,-5.0533,-5.1119,-5.1119,-5.1254,-5.1488,-5.1186,-5.1119,-5.1119,-5.1119,-5.1119,-5.1119,-5.1119,-5.0638,-5.0113,-5.0113,-4.9573,-4.8988,-4.8988,-4.8988,-4.8988,-4.8988,-4.9573,-5.0113,-5.0113,-5.0638,-5.1186,-5.1454,-5.132,-5.1186,-5.1454,-5.1288,-5.1119,-5.1119,-5.1119,-5.1288,-5.1851,-5.1883,-5.1883,-5.1883,-5.1883,-5.1883,-5.1883,-5.1883,-5.1883,-5.1883,-5.1883,-5.1883,-5.1883,-5.1883,-5.1883,-5.1883,-5.1883,-5.1883,-5.1883,-5.1883,-5.1883,-5.1883,-5.1883,-5.1883,-4.4524,-4.4856,-4.4985,-4.5696,-4.5864,-4.5864,-4.5864,-4.5864,-4.5864,-4.5864,-4.6211,-4.6511,-4.6511,-4.7369,-4.8045,-4.8045,-4.8612,-4.9137,-4.9542,-5.0149,-5.067,-5.1049,-5.1554,-5.1883,-5.1883,-5.1883,-5.1883,-5.1883,-5.1883,-5.2013,-5.2365,-5.2397,-5.2521,-5.2861,-5.2891,-5.2891,-5.2891,-5.2891,-5.2891,-5.2891,-5.2521,-5.2397,-5.2397,-5.2046,-5.1883,-5.1883,-5.1883,-5.1883,-5.1851,-5.132,-5.1421,-5.1851,-5.132,-5.1421,-5.1883,-5.1883,-5.1883,-5.1883,-5.1883,-5.1883,-5.1883,-5.1883,-5.1883,-5.1883,-5.1883,-5.1521,-5.1117,-5.1117,-5.0673,-5.0188,-5.0188,-5.0188,-5.0188,-5.0188,-5.0673,-5.1117,-5.1117,-5.1521,-5.1883,-5.1883,-5.1883,-5.1883,-5.1883,-5.1883,-5.2014,-5.2333,-5.2676,-5.2891,-5.2891,-5.2891,-5.2891,-5.2891,-5.2891,-5.2891,-5.2891,-5.2552,-5.2397,-5.2397,-5.2078,-5.1883,-5.1883,-5.1883,-5.1883,-5.1883,-5.1883,-5.1883,-5.1883,-5.1883,-5.1883,-5.1883,-5.1883,-5.2238,-4.5583,-4.5864,-4.5864,-4.5864,-4.5864,-4.5864,0.0,-4.5864,-4.5864,-4.5864,-4.6593,-4.725,-4.725,-4.8114,-4.8838,-4.8988,-4.91,-4.9505,-5.0533,-5.0705,-5.1015,-5.1818,-5.1883,-5.1883,-5.1883,-5.1883,-5.1949,-5.2013,-5.2046,-5.2363,-5.3163,-5.3223,-5.3513,-5.4228,-5.4228,-5.4228,-5.4228,-5.4228,-5.4228,-5.4228,-5.3513,-5.3223,-5.3193,-5.2491,-5.2142,-5.2142,-5.2078,-5.2046,-5.2013,-5.1949,-5.1883,-5.1883,-5.1883,-5.1883,-5.1883,-5.1883,-5.1883,-5.1883,-5.1883,-5.1883,-5.1883,-5.1883,-5.1883,-5.1883,-5.1883,-5.1883,-5.1883,-5.1883,-5.1883,-5.1883,-5.1883,-5.1883,-5.1883,-5.1883,-5.1883,-5.1883,-5.1883,-5.1883,-5.1883,-5.1883,-5.1883,-5.1883,-5.1883,-5.1981,-5.2302,-5.3103,-5.3773,-5.4228,-5.4228,-5.4228,-5.4228,-5.4228,-5.4228,-5.4228,-5.4228,-5.36,-5.3223,-5.3223,-5.2521,-5.2142,-5.2142,-5.2142,-5.211,-5.2046,-5.211,-5.211,-5.2046,-5.211,-5.2142,-5.2142,-5.2142,-5.2922,0.0,0.0,0.0,0.0,0.0,0.0,0.0,-4.5864,-4.5864,-4.5864,-4.6032,-4.6199,-4.6199,-4.7009,-4.8037,-4.8838,-4.9682,-5.0568,-5.152,-5.162,-5.1719,-5.1883,-5.1883,-5.1883,-5.1883,-5.1883,-5.2142,-5.2799,-5.2861,-5.316,-5.3977,-5.3999,-5.4089,-5.4228,-5.4228,-5.4228,-5.4228,-5.4228,-5.4228,-5.4228,-5.4089,-5.3999,-5.4005,-5.383,-5.3807,-5.3744,-5.31,-5.2861,-5.2799,-5.2142,-5.1883,-5.1883,-5.1883,-5.1883,-5.1883,-5.1883,-5.1883,-5.1883,-5.1883,-5.1883,-5.1883,-5.1883,-5.1883,-5.1883,-5.1883,-5.1883,-5.1883,-5.1883,-5.1883,-5.1883,-5.1883,-5.1883,-5.1883,-5.1883,-5.1883,-5.1883,-5.1883,-5.1883,-5.1883,-5.1883,-5.1883,-5.1883,-5.1883,-5.2428,-5.3133,-5.3886,-5.4145,-5.4228,-5.4228,-5.4228,-5.4228,-5.4228,-5.4228,-5.4228,-5.4228,-5.4117,-5.3999,-5.3999,-5.3858,-5.3807,-5.3807,-5.3807,-5.3484,-5.2861,-5.3455,-5.3489,-5.2861,-5.3455,-5.3807,-5.3807,-5.3807,-5.3949,0.0,0.0,0.0,0.0,0.0,0.0,0.0,0.0,0.0,0.0,0.0,-4.6634,-4.6634,0.0,-4.8383,-4.8913,-4.9863,-5.0705,-5.1151,-5.1587,-5.1883,-5.1883,-5.1883,-5.1883,-5.1883,-5.2238,-5.2645,-5.3009,-5.346,-5.3971,-5.4679,-5.4732,-5.4888,-5.5289,-5.5314,-5.5314,-5.5314,-5.5314,-5.5314,-5.5289,-5.4923,-5.4732,-5.4706,-5.4392,-5.4228,-5.4228,-5.3835,-5.346,-5.3009,-5.2645,-5.2238,-5.1883,-5.1883,-5.1883,-5.1883,-5.1883,-5.1883,-5.1883,-5.1883,-5.1883,-5.1883,-5.1883,-5.1883,-5.1883,-5.1883,-5.1883,-5.1883,-5.1883,-5.1883,-5.1883,-5.1883,-5.1883,-5.1883,-5.1883,-5.1883,-5.1883,-5.1883,-5.1883,-5.1883,-5.1883,-5.1883,-5.2013,-5.2428,-5.3392,-5.4269,-5.4679,-5.5052,-5.5314,-5.5314,-5.5314,-5.5314,-5.5314,-5.5314,-5.5314,-5.5314,-5.5314,-5.5128,-5.4732,-5.4385,-5.4228,-5.4228,-5.4228,-5.4061,-5.3658,-5.4033,-5.4061,-5.3629,-5.4061,-5.4228,-5.4255,-5.4984,-5.5314,0.0,0.0,0.0,0.0,0.0,0.0,0.0,0.0,0.0,0.0,0.0,0.0,0.0,0.0,0.0,-4.865,-4.9395,-5.0042,-5.0463,-5.1185,-5.162,-5.162,-5.1785,-5.1883,-5.1883,-5.2614,-5.31,-5.3279,-5.3999,-5.4706,-5.5403,-5.5452,-5.573,-5.6359,-5.6381,-5.6381,-5.6381,-5.6381,-5.6381,-5.6359,-5.573,0.0,-5.5428,-5.4897,-5.4634,-5.4634,-5.4365,-5.3892,-5.3249,-5.2983,-5.2458,-5.1883,-5.1883,-5.1883,-5.1883,-5.1883,-5.1883,-5.1883,-5.1883,-5.1883,-5.1883,-5.1883,-5.1883,-5.1883,-5.1883,-5.1883,0.0,-5.1883,-5.1883,-5.1883,-5.1883,-5.1883,-5.1883,-5.1883,-5.2014,-5.2078,-5.1916,-5.2014,-5.2143,-5.2143,-5.2143,-5.2363,-5.3163,-5.4377,-5.5269,-5.5393,-5.5954,-5.6381,-5.6381,-5.6381,-5.6381,-5.6381,-5.6381,-5.6381,-5.6381,-5.6381,-5.6105,-5.5477,-5.4949,-5.4634,-5.4634,-5.4634,-5.4581,-5.4412,-5.4581,-5.4581,-5.4446,-5.4581,-5.4634,-5.4687,-5.5813,-5.6381,0.0,0.0,0.0,0.0,0.0,0.0,0.0,0.0,0.0,0.0,0.0,0.0,0.0,0.0,0.0,0.0,-4.7725,-4.8429,-5.0287,-5.0635,-5.0705,-5.0705,-5.1387,-5.1883,-5.1883,-5.2614,-5.3338,-5.4061,-5.4732,-5.5428,-5.621,-5.6233,0.0,0.0,0.0,-5.6381,-5.6381,-5.6381,-5.6381,-5.6381,-5.6278,-5.6233,-5.6233,-5.6164,-5.6141,-5.6036,-5.4793,-5.42,-5.4005,-5.2583,-5.1981,-5.1883,-5.1883,-5.1883,-5.1883,-5.1883,-5.1883,-5.1883,-5.1883,0.0,0.0,-5.1883,-5.1883,-5.1883,-5.1883,-5.1883,-5.1883,-5.1883,-5.1883,-5.1883,-5.1883,-5.1883,-5.1883,-5.1883,-5.2426,-5.2738,-5.2046,-5.246,-5.2952,-5.2952,-5.2952,-5.316,-5.3943,-5.4732,-5.5452,-5.6128,-5.6301,-5.6381,-5.6381,-5.6381,-5.6381,-5.6381,-5.6381,0.0,-5.6381,-5.6381,-5.6336,-5.6255,-5.6187,-5.6141,-5.6141,-5.6141,-5.5813,-5.5119,-5.5754,-5.5789,-5.5084,-5.5789,-5.6141,-5.6141,-5.6278,-5.6381,0.0,0.0,0.0,0.0,0.0,0.0,0.0,0.0,0.0,0.0,0.0,0.0,0.0,0.0,0.0,0.0,-4.7039,-4.7764,-4.8612,-4.9248,-4.9863,-5.0463,-5.132,-5.2078,-5.2554,-5.3279,-5.4027,-5.4758,-5.5488,-5.6036,-5.6359,-5.6381,-5.6381,-5.6381,-5.6381,-5.6381,-5.6381,-5.6381,-5.6381,-5.6381,-5.6381,-5.6381,-5.6381,-5.6381,-5.6105,-5.5646,-5.5042,-5.433,-5.3518,-5.2861,-5.2302,-5.1883,0.0,0.0,0.0,0.0,-5.1883,-5.1883,-5.1883,-5.1883,-5.1883,-5.1883,-5.1883,-5.1883,-5.1883,-5.1883,-5.1883,-5.1883,-5.1883,-5.1883,-5.1883,-5.1883,-5.1883,-5.1883,-5.2142,-5.2302,-5.1981,-5.2142,-5.2521,-5.2949,-5.3073,0.0,-5.5214,-5.5717,-5.6013,-5.6301,-5.6381,-5.6381,-5.6381,-5.6381,-5.6381,-5.6381,-5.6381,-5.6381,-5.6381,-5.6381,0.0,0.0,0.0,-5.6381,-5.6381,-5.6381,0.0,0.0,0.0,-5.621,-5.5884,-5.621,0.0,0.0,-5.6381,-5.6381,0.0,0.0,0.0,0.0,0.0,0.0,0.0,0.0,0.0,0.0,0.0,0.0,0.0,0.0,0.0,0.0,-4.6541,-4.709,-4.7369,-4.8345,-4.9359,-5.0425,-5.132,-5.2206,-5.3013,-5.3773,-5.4493,-5.5134,-5.5931,-5.6381,-5.6381,-5.6381,-5.6381,-5.6381,-5.6381,-5.6381,-5.6381,-5.6381,-5.6381,-5.6381,-5.6381,-5.6381,-5.6381,-5.6381,-5.5931,-5.5184,-5.5007,-5.4214,-5.3073,-5.283,-5.2395,-5.1883,-5.1883,-5.1883,-5.1883,-5.1883,-5.1883,-5.1883,-5.1883,-5.1883,-5.1883,-5.1883,-5.1883,-5.1883,-5.1883,-5.1883,-5.1883,-5.1883,-5.1883,-5.1883,-5.1883,-5.1883,-5.1883,-5.1883,-5.2045,-5.2206,-5.2206,-5.2397,-5.2735,-5.3508,-5.3653,-5.4241,-5.6059,-5.6381,-5.6381,-5.6381,-5.6381,-5.6381,-5.6381,-5.6381,-5.6381,-5.6381,-5.6381,-5.6381,-5.6381,-5.6381,-5.6381,-5.6381,-5.6381,-5.6381,-5.6381,-5.6381,-5.6381,-5.6381,-5.6381,-5.6381,0.0,0.0,0.0,0.0,0.0,0.0,0.0,0.0,0.0,0.0,0.0,0.0,0.0,0.0,0.0,0.0,0.0,0.0,0.0,0.0,0.0,0.0,0.0,0.0,-4.729,-4.8345,-4.9359,-5.0425,-5.132,-5.2206,-5.3013,-5.3773,-5.4493,-5.5134,-5.5931,-5.6381,-5.6381,-5.6381,-5.6381,-5.6381,-5.6381,-5.6381,-5.6381,-5.6381,-5.6381,-5.6381,-5.6381,-5.6381,-5.6381,-5.6381,-5.5931,-5.5159,-5.4546,-5.3801,-5.3013,-5.2238,-5.1916,-5.1883,-5.1883,-5.1883,-5.1883,-5.1883,-5.1883,-5.1883,-5.1883,-5.1883,-5.1883,-5.1883,-5.1883,-5.1883,-5.1883,-5.1883,-5.1883,-5.1883,-5.1883,-5.1883,-5.1883,-5.1883,-5.1883,-5.1883,-5.2458,-5.3043,-5.3043,-5.3634,-5.433,-5.5007,-5.5169,-5.5393,-5.6233,-5.6381,-5.6381,-5.6381,-5.6381,0.0,-5.6381,-5.6381,-5.6381,-5.6381,-5.6381,-5.6381,-5.6381,-5.6381,-5.6381,-5.6381,-5.6381,-5.6381,-5.6381,-5.6381,-5.6381,-5.6381,-5.6381,-5.6381,-5.6381,0.0,0.0,0.0,0.0,0.0,0.0,0.0,0.0,0.0,0.0,0.0,0.0,0.0,0.0,0.0,0.0,0.0,0.0,0.0,0.0,0.0,0.0,0.0,0.0,-4.8345,-4.9359,-5.0425,-5.132,-5.2395,-5.3716,-5.36,-5.4166,-5.586,-5.573,-5.5836,-5.6359,-5.6381,-5.6381,-5.6381,-5.6381,-5.6381,-5.6381,-5.6381,-5.6381,-5.6381,-5.6381,-5.6381,-5.6381,-5.6381,-5.5717,-5.4546,-5.4338,-5.3484,-5.227,-5.2014,-5.1883,-5.1883,-5.1883,-5.1883,-5.1883,-5.1883,-5.1883,-5.1883,-5.1883,-5.1883,-5.1883,-5.1883,-5.1883,-5.1883,-5.1883,-5.1883,-5.1883,-5.1883,-5.1883,-5.1883,-5.1883,-5.1883,-5.1883,-5.1883,-5.2523,-5.3073,-5.3073,-5.3692,-5.4412,-5.5058,-5.5634,-5.6059,-5.6336,-5.6381,-5.6381,-5.6381,-5.6381,-5.6381,-5.6381,-5.6381,-5.6381,-5.6381,-5.6381,-5.6381,-5.6381,-5.6381,-5.6381,-5.6381,-5.6381,-5.6381,-5.6381,-5.6381,-5.6381,-5.6381,-5.6381,-5.6381,-5.6381,0.0,0.0,0.0,0.0,0.0,0.0,0.0,0.0,0.0,0.0,0.0,0.0,0.0,0.0,0.0,0.0,0.0,0.0,0.0,0.0,0.0,0.0,0.0,0.0,0.0,0.0,-5.0358,-5.1049,0.0,-5.3658,-5.36,-5.4193,-5.5836,-5.5754,-5.586,-5.6359,-5.6381,-5.6381,-5.6381,-5.6381,-5.6381,-5.6381,-5.6381,-5.6381,-5.6381,-5.6381,-5.6381,-5.6381,-5.6381,-5.5717,-5.4546,-5.4338,-5.3484,-5.2302,-5.2014,-5.2045,-5.2333,-5.2333,-5.2458,-5.2707,-5.2428,-5.2333,-5.227,-5.2014,-5.1883,-5.1883,-5.1883,-5.2111,-5.2333,-5.2333,-5.2489,-5.2676,-5.2363,-5.2333,-5.2238,-5.1981,-5.1883,-5.1883,-5.1883,-5.2302,-5.2799,-5.3338,-5.3892,-5.4412,-5.5058,-5.5825,-5.6381,-5.6381,-5.6381,-5.6381,-5.6381,-5.6381,-5.6381,-5.6381,-5.6381,-5.6381,-5.6381,-5.6381,-5.6381,-5.6381,-5.6381,-5.6381,-5.6381,-5.6545,-5.6567,-5.6381,-5.6545,-5.6653,-5.6653,-5.5921,-5.56,0.0,0.0,0.0,0.0,0.0,0.0,0.0,0.0,0.0,0.0,0.0,0.0,0.0,0.0,0.0,0.0,0.0,0.0,0.0,0.0,0.0,0.0,0.0,0.0,0.0,0.0,0.0,-5.0287,-5.0565,0.0,0.0,0.0,0.0,-5.5119,-5.586,-5.6255,-5.6301,-5.6359,-5.6359,-5.6301,-5.6301,-5.6278,-5.6255,-5.6255,-5.6255,-5.6255,-5.6255,-5.6255,-5.6291,-5.6278,-5.5884,-5.5058,-5.4466,-5.3744,-5.2952,-5.2238,-5.2397,-5.3073,-5.3133,-5.3571,-5.4145,-5.3396,-5.31,-5.3009,-5.2238,-5.1949,-5.1949,-5.1949,-5.2426,-5.3009,-5.304,-5.3542,0.0,0.0,-5.3009,-5.2891,-5.2078,-5.1916,-5.1949,-5.1916,-5.1916,-5.2365,-5.383,-5.4228,-5.4466,-5.5093,-5.5801,-5.6336,-5.6359,0.0,-5.6426,-5.6426,-5.6426,-5.6426,-5.6426,-5.6404,-5.6381,-5.6426,-5.6426,-5.639,-5.6435,-5.6471,-5.6471,-5.6471,-5.6912,-5.6973,-5.6457,-5.6912,-5.712,-5.7048,-5.5087,0.0,0.0,0.0,0.0,0.0,0.0,0.0,0.0,0.0,0.0,0.0,0.0,0.0,0.0,0.0,0.0,0.0,0.0,0.0,0.0,0.0,0.0,0.0,0.0,0.0,0.0,-4.6323,-4.8199,-5.0287,-5.0565,-5.1188,0.0,0.0,0.0,0.0,0.0,0.0,-5.5477,-5.6059,-5.6105,-5.5526,-5.5501,-5.5279,-5.4793,-5.4767,-5.4767,-5.4767,-5.4767,-5.4767,-5.4793,-5.5279,-5.4802,-5.3624,-5.4055,-5.3455,-5.2238,-5.2614,-5.2891,-5.31,-5.3687,-5.4061,-5.4228,-5.3999,-5.3949,-5.3801,-5.3043,-5.2769,-5.2769,-5.2769,-5.2489,-5.2302,-5.2891,0.0,0.0,0.0,0.0,-5.2891,-5.2078,-5.2333,-5.2614,-5.2046,-5.2365,-5.2891,-5.3279,-5.4187,-5.5017,-5.5159,-5.5368,-5.5706,-5.6255,-5.6718,0.0,-5.6953,-5.6953,-5.6953,-5.6953,-5.661,-5.6523,-5.6912,-5.6953,-5.7078,-5.7352,-5.737,-5.737,-5.737,-5.7534,-5.7497,-5.7389,-5.7534,-5.7003,-5.5743,0.0,0.0,0.0,0.0,0.0,0.0,0.0,0.0,0.0,0.0,0.0,0.0,0.0,0.0,0.0,0.0,0.0,0.0,0.0,0.0,0.0,0.0,0.0,0.0,0.0,0.0,0.0,-4.3159,-4.6243,-4.8858,-4.9174,-4.9907,0.0,0.0,0.0,0.0,0.0,0.0,0.0,0.0,0.0,-5.481,-5.4784,-5.46,-5.4228,-5.4228,-5.4228,-5.4228,-5.4228,-5.4228,-5.4255,-5.46,-5.4323,-5.3605,-5.3692,-5.3219,-5.246,-5.2891,-5.3421,-5.4014,0.0,0.0,0.0,0.0,-5.4653,-5.452,-5.3426,-5.3073,-5.3013,-5.2676,0.0,0.0,0.0,0.0,0.0,0.0,0.0,-5.2983,-5.2521,-5.2458,-5.246,-5.2014,-5.2238,-5.2645,-5.3013,-5.4214,-5.5219,-5.5219,-5.5477,-5.586,-5.6278,-5.6787,0.0,0.0,0.0,-5.7153,-5.7153,-5.6891,-5.6808,-5.7114,-5.733,-5.7498,-5.7724,-5.7741,-5.7741,-5.7741,-5.7887,-5.7903,-5.7741,-5.7262,-5.6509,0.0,0.0,0.0,0.0,0.0,0.0,0.0,0.0,0.0,0.0,0.0,0.0,0.0,0.0,0.0,0.0,0.0,0.0,0.0,0.0,0.0,0.0,0.0,0.0,0.0,0.0,0.0,0.0,0.0,-4.2978,-4.6532,0.0,0.0,0.0,0.0,0.0,0.0,0.0,0.0,0.0,0.0,0.0,0.0,0.0,-5.4033,-5.3949,-5.3949,-5.3949,-5.3949,-5.4033,-5.4089,-5.4055,-5.4283,-5.4255,-5.4061,-5.3283,0.0,-5.2952,-5.3163,0.0,0.0,0.0,0.0,0.0,0.0,0.0,0.0,0.0,0.0,0.0,0.0,0.0,0.0,0.0,0.0,0.0,0.0,0.0,0.0,0.0,0.0,-5.1942,-5.2173,-5.211,-5.2139,-5.2418,-5.3465,-5.4388,-5.4538,-5.5152,-5.5721,0.0,0.0,0.0,0.0,0.0,0.0,-5.7215,-5.7193,-5.7173,-5.7215,-5.7587,-5.7805,-5.7908,-5.7908,-5.7908,-5.7908,-5.8249,-5.8181,-5.7593,-5.6556,0.0,0.0,0.0,0.0,0.0,0.0,0.0,0.0,0.0,0.0,0.0,0.0,0.0,0.0,0.0,0.0,0.0,0.0,0.0,0.0,0.0,0.0,0.0,0.0,0.0,0.0,0.0,0.0,0.0,0.0,0.0,0.0,0.0,0.0,0.0,0.0,0.0,0.0,0.0,0.0,0.0,0.0,0.0,0.0,0.0,0.0,0.0,0.0,0.0,0.0,-5.2983,-5.3249,-5.3342,-5.4485,-5.4404,-5.3219,-5.246,-5.2078,-5.2206,-5.3484,0.0,0.0,0.0,0.0,0.0,0.0,0.0,0.0,0.0,0.0,0.0,0.0,0.0,0.0,0.0,0.0,0.0,0.0,0.0,0.0,0.0,0.0,-5.2215,-5.3528,-5.3342,-5.222,-4.9856,0.0,0.0,0.0,0.0,0.0,0.0,0.0,0.0,0.0,0.0,0.0,-5.7605,-5.735,-5.7292,-5.7623,-5.7983,-5.8393,-5.8834,-5.8859,-5.8859,-5.8859,-5.8908,-5.8286,0.0,0.0,0.0,0.0,0.0,0.0,0.0,0.0,0.0,0.0,0.0,0.0,0.0,0.0,0.0,0.0,0.0,0.0,0.0,0.0,0.0,0.0,0.0,0.0,0.0,0.0,0.0,0.0,0.0,0.0,0.0,0.0,0.0,0.0,0.0,0.0,0.0,0.0,0.0,0.0,0.0,0.0,0.0,0.0,0.0,0.0,0.0,0.0,0.0,0.0,0.0,0.0,0.0,0.0,0.0,0.0,0.0,0.0,-5.2489,-5.2489,0.0,0.0,0.0,0.0,0.0,0.0,0.0,0.0,0.0,0.0,0.0,0.0,0.0,0.0,0.0,0.0,0.0,0.0,0.0,0.0,0.0,0.0,0.0,0.0,0.0,0.0,0.0,0.0,0.0,0.0,0.0,0.0,0.0,0.0,0.0,0.0,0.0,0.0,0.0,0.0,-5.7425,-5.7425,-5.7534,-5.7707,-5.8307,-5.8821,-5.9089,-5.91,-5.91,-5.91,-5.8289,0.0,0.0,0.0,0.0,0.0,0.0,0.0,0.0,0.0,0.0,0.0,0.0,0.0,0.0,0.0,0.0,0.0,0.0,0.0,0.0,0.0,0.0,0.0,0.0,0.0,0.0,0.0,0.0,0.0,0.0,0.0,0.0,0.0,0.0,0.0,0.0,0.0,0.0,0.0,0.0,0.0,0.0,0.0,0.0,0.0,0.0,0.0,0.0,0.0,0.0,0.0,0.0,0.0,0.0,0.0,0.0,0.0,0.0,0.0,-5.2552,-5.283,0.0,0.0,0.0,0.0,0.0,0.0,0.0,0.0,0.0,0.0,0.0,0.0,0.0,0.0,0.0,0.0,0.0,0.0,0.0,0.0,0.0,0.0,0.0,0.0,0.0,0.0,0.0,0.0,0.0,0.0,0.0,0.0,0.0,0.0,0.0,0.0,0.0,0.0,0.0,0.0,-5.7134,-5.748,-5.7741,-5.7741,-5.855,-5.91,-5.91,-5.91,-5.91,-5.91,-5.7504,0.0,0.0,0.0,0.0,0.0,0.0,0.0,0.0,0.0,0.0,0.0,0.0,0.0,0.0,0.0,0.0,0.0,0.0,0.0,0.0,0.0,0.0,0.0,0.0,0.0,0.0,0.0,0.0,0.0,0.0,0.0,0.0,0.0,0.0,0.0,0.0,0.0,0.0,0.0,0.0,0.0,0.0,0.0,0.0,0.0,0.0,0.0,0.0,0.0,0.0,0.0,0.0,0.0,0.0,0.0,0.0,0.0,0.0,0.0,0.0,0.0,0.0,0.0,0.0,0.0,0.0,0.0,0.0,0.0,0.0,0.0,0.0,0.0,0.0,0.0,0.0,0.0,0.0,0.0,0.0,0.0,0.0,0.0,0.0,0.0,0.0,0.0,0.0,0.0,0.0,0.0,0.0,0.0,0.0,0.0,0.0,0.0,0.0,0.0,0.0,0.0,-5.7094,-5.748,-5.7741,-5.7741,-5.855,-5.91,-5.91,-5.91,-5.91,-5.91,0.0,0.0,0.0,0.0,0.0,0.0,0.0,0.0,0.0,0.0,0.0,0.0,0.0,0.0,0.0,0.0,0.0,0.0,0.0,0.0,0.0,0.0,0.0,0.0,0.0,0.0,0.0,0.0,0.0,0.0,0.0,0.0,0.0,0.0,0.0,0.0,0.0,0.0,0.0,0.0,0.0,0.0,0.0,0.0,0.0,0.0,0.0,0.0,0.0,0.0,0.0,0.0,0.0,0.0,0.0,0.0,0.0,0.0,0.0,0.0,0.0,0.0,0.0,0.0,0.0,0.0,0.0,0.0,0.0,0.0,0.0,0.0,0.0,0.0,0.0,0.0,0.0,0.0,0.0,0.0,0.0,0.0,0.0,0.0,0.0,0.0,0.0,0.0,0.0,0.0,0.0,0.0,0.0,0.0,0.0,0.0,0.0,0.0,0.0,0.0,0.0,0.0,-5.6531,-5.7295,-5.7741,-5.7741,-5.855,-5.91,-5.91,-5.91,-5.8652,-5.7616,0.0,0.0,0.0,0.0,0.0,0.0,0.0,0.0,0.0,0.0,0.0,0.0,0.0,0.0,0.0,0.0,0.0,0.0,0.0,0.0,0.0,0.0,0.0,0.0,0.0,0.0,0.0,0.0,0.0,0.0,0.0,0.0,0.0,0.0,0.0,0.0,0.0,0.0,0.0,0.0,0.0,0.0,0.0,0.0,0.0,0.0,0.0,0.0,0.0,0.0,0.0,0.0,0.0,0.0,0.0,0.0,0.0,0.0,0.0,0.0,0.0,0.0,0.0,0.0,0.0,0.0,0.0,0.0,0.0,0.0,0.0,0.0,0.0,0.0,0.0,0.0,0.0,0.0,0.0,0.0,0.0,0.0,0.0,0.0,0.0,0.0,0.0,0.0,0.0,0.0,0.0,0.0,0.0,0.0,0.0,0.0,0.0,0.0,0.0,0.0,0.0,0.0,-5.6167,-5.7081,-5.757,-5.757,-5.8344,-5.8846,-5.8846,-5.9005,-5.8353,-5.6692,0.0,0.0,0.0,0.0,0.0,0.0,0.0,0.0,0.0,0.0,0.0,0.0,0.0,0.0,0.0,0.0,0.0,0.0,0.0,0.0,0.0,0.0,0.0,0.0,0.0,0.0,0.0,0.0,0.0,0.0,0.0,0.0,0.0,0.0,0.0,0.0,0.0,0.0,0.0,0.0,0.0,0.0,0.0,0.0,0.0,0.0,0.0,0.0,0.0,0.0,0.0,0.0,0.0,0.0,0.0,0.0,0.0,0.0,0.0,0.0,0.0,0.0,0.0,0.0,0.0,0.0,0.0,0.0,0.0,0.0,0.0,0.0,0.0,0.0,0.0,0.0,0.0,0.0,0.0,0.0,0.0,0.0,0.0,0.0,0.0,0.0,0.0,0.0,0.0,0.0,0.0,0.0,0.0,0.0,0.0,0.0,0.0,0.0,0.0,0.0,0.0,0.0,-5.6167,-5.6829,-5.7173,-5.7173,-5.7838,-5.8327,-5.8327,-5.8809,-5.8353,0.0,0.0,0.0,0.0,0.0,0.0,0.0,0.0,0.0,0.0,0.0,0.0,0.0,0.0,0.0,0.0,0.0,0.0,0.0,0.0,0.0,0.0,0.0,0.0,0.0,0.0,0.0,0.0,0.0,0.0,0.0,0.0,0.0,0.0,0.0,0.0,0.0,0.0,0.0,0.0,0.0,0.0,0.0,0.0,0.0,0.0,0.0,0.0,0.0,0.0,0.0,0.0,0.0,0.0,0.0,0.0,0.0,0.0,0.0,0.0,0.0,0.0,0.0,0.0,0.0,0.0,0.0,0.0,0.0,0.0,0.0,0.0,0.0,0.0,0.0,0.0,0.0,0.0,0.0,0.0,0.0,0.0,0.0,0.0,0.0,0.0,0.0,0.0,0.0,0.0,0.0,0.0,0.0,0.0,0.0,0.0,0.0,0.0,0.0,0.0,0.0,0.0,0.0,-5.6025,-5.6808,-5.7153,-5.7153,-5.7623,-5.7903,-5.7903,-5.708,-5.5975,-5.4541,0.0,0.0,0.0,0.0,0.0,0.0,0.0,0.0,0.0,0.0,0.0,0.0,0.0,0.0,0.0,0.0,0.0,0.0,0.0,0.0,0.0,0.0,0.0,0.0,0.0,0.0,0.0,0.0,0.0,0.0,0.0,0.0,0.0,0.0,0.0,0.0,0.0,0.0,0.0,0.0,0.0,0.0,0.0,0.0,0.0,0.0,0.0,0.0,0.0,0.0,0.0,0.0,0.0,0.0,0.0,0.0,0.0,0.0,0.0,0.0,0.0,0.0,0.0,0.0,0.0,0.0,0.0,0.0,0.0,0.0,0.0,0.0,0.0,0.0,0.0,0.0,0.0,0.0,0.0,0.0,0.0,0.0,0.0,0.0,0.0,0.0,0.0,0.0,0.0,0.0,0.0,0.0,0.0,0.0,0.0,0.0,0.0,0.0,0.0,0.0,0.0,0.0,0.0,-5.628,-5.685,-5.685,-5.7256,-5.7516,-5.7516,-5.6225,-5.4782,-5.3316,0.0,0.0,0.0,0.0,0.0,0.0,0.0,0.0,0.0,0.0,0.0,0.0,0.0,0.0,0.0,0.0,0.0,0.0,0.0,0.0,0.0,0.0,0.0,0.0,0.0,0.0,0.0,0.0,0.0,0.0,0.0,0.0,0.0,0.0,0.0,0.0,0.0,0.0,0.0,0.0,0.0,0.0,0.0,0.0,0.0,0.0,0.0,0.0,0.0,0.0,0.0,0.0,0.0,0.0,0.0,0.0,0.0,0.0,0.0,0.0,0.0,0.0,0.0,0.0,0.0,0.0,0.0,0.0,0.0,0.0,0.0,0.0,0.0,0.0,0.0,0.0,0.0,0.0,0.0,0.0,0.0,0.0,0.0,0.0,0.0,0.0,0.0,0.0,0.0,0.0,0.0,0.0,0.0,0.0,0.0,0.0,0.0,0.0,0.0,0.0,0.0,0.0,0.0,-5.5316,-5.6278,-5.6278,-5.6766,-5.7094,-5.7094,-5.5875,-5.4499,-5.2944,-5.1237,0.0,0.0,0.0,0.0,0.0,0.0,0.0,0.0,0.0,0.0,0.0,0.0,0.0,0.0,0.0,0.0,0.0,0.0,0.0,0.0,0.0,0.0,0.0,0.0,0.0,0.0,0.0,0.0,0.0,0.0,0.0,0.0,0.0,0.0,0.0,0.0,0.0,0.0,0.0,0.0,0.0,0.0,0.0,0.0,0.0,0.0,0.0,0.0,0.0,0.0,0.0,0.0,0.0,0.0,0.0,0.0,0.0,0.0,0.0,0.0,0.0,0.0,0.0,0.0,0.0,0.0,0.0,0.0,0.0,0.0,0.0,0.0,0.0,0.0,0.0,0.0,0.0,0.0,0.0,0.0,0.0,0.0,0.0,0.0,0.0,0.0,0.0,0.0,0.0,0.0,0.0,0.0,0.0,0.0,0.0,0.0,0.0,0.0,0.0,0.0,0.0,0.0,-5.4258,-5.5477,-5.5477,-5.6116,-5.6545,-5.6545,-5.4113,-5.2533,-5.241,-4.9829,0.0,0.0,0.0,0.0,0.0,0.0,0.0,0.0,0.0,0.0,0.0,0.0,0.0,0.0,0.0,0.0,0.0,0.0,0.0,0.0,0.0,0.0,0.0,0.0,0.0,0.0,0.0,0.0,0.0,0.0,0.0,0.0,0.0,0.0,0.0,0.0,0.0,0.0,0.0,0.0,0.0,0.0,0.0,0.0,0.0,0.0,0.0,0.0,0.0,0.0,0.0,0.0,0.0,0.0,0.0,0.0,0.0,0.0,0.0,0.0,0.0,0.0,0.0,0.0,0.0,0.0,0.0,0.0,0.0,0.0,0.0,0.0,0.0,0.0,0.0,0.0,0.0,0.0,0.0,0.0,0.0,0.0,0.0,0.0,0.0,0.0,0.0,0.0,0.0,0.0,0.0,0.0,0.0,0.0,0.0,0.0,0.0,0.0,0.0,0.0,0.0,0.0,-5.1123,-5.3285,-5.5019,-5.5609,-5.586,-5.586,-5.3015,-5.1195,-5.1053,-4.8188,0.0,0.0,0.0,0.0,0.0,0.0,0.0,0.0,0.0,0.0,0.0,0.0,0.0,0.0,0.0,0.0,0.0,0.0,0.0,0.0,0.0,0.0,0.0,0.0,0.0,0.0,0.0,0.0,0.0,0.0,0.0,0.0,0.0,0.0,0.0,0.0,0.0,0.0,0.0,0.0,0.0,0.0,0.0,0.0,0.0,0.0,0.0,0.0,0.0,0.0,0.0,0.0,0.0,0.0,0.0,0.0,0.0,0.0,0.0,0.0,0.0,0.0,0.0,0.0,0.0,0.0,0.0,0.0,0.0,0.0,0.0,0.0,0.0,0.0,0.0,0.0,0.0,0.0,0.0,0.0,0.0,0.0,0.0,0.0,0.0,0.0,0.0,0.0,0.0,0.0,0.0,0.0,0.0,0.0,0.0,0.0,0.0,0.0,0.0,0.0,0.0,0.0,0.0,-5.0494,-5.414,-5.4842,-5.4963,-5.4778,-5.2168,-5.0184,-4.9289,0.0,0.0,0.0,0.0,0.0,0.0,0.0,0.0,0.0,0.0,0.0,0.0,0.0,0.0,0.0,0.0,0.0,0.0,0.0,0.0,0.0,0.0,0.0,0.0,0.0,0.0,0.0,0.0,0.0,0.0,0.0,0.0,0.0,0.0,0.0,0.0,0.0,0.0,0.0,0.0,0.0,0.0,0.0,0.0,0.0,0.0,0.0,0.0,0.0,0.0,0.0,0.0,0.0,0.0,0.0,0.0,0.0,0.0,0.0,0.0,0.0,0.0,0.0,0.0,0.0,0.0,0.0,0.0,0.0,0.0,0.0,0.0,0.0,0.0,0.0,0.0,0.0,0.0,0.0,0.0,0.0,0.0,0.0,0.0,0.0,0.0,0.0,0.0,0.0,0.0,0.0,0.0,0.0,0.0,0.0,0.0,0.0,0.0,0.0,0.0,0.0,0.0,0.0,0.0,-4.8102,-5.1277,-5.3245,-5.3901,-5.2685,-5.0828,-4.9156,-4.7842,0.0,0.0,0.0,0.0,0.0,0.0,0.0,0.0,0.0,0.0,0.0,0.0,0.0,0.0]}],[{"header":{"parameterUnit":"kt","parameterCategory":2,"dx":1,"dy":1,"la1":29.285339999999998,"la2":30.599998999999997,"lo1":-89.70041500000002,"lo2":-87.6738589999976,"nx":112,"ny":82,"refTime":"2022-09-17T18:00:00:Z","depth":0,"parameterNumber":2,"parameterNumberName":"V-component_of_WINDS"},"data":[6.9471,6.851,6.7698,6.7172,6.635,6.5561,6.5035,6.4213,6.3523,6.3523,6.2076,6.0925,6.132,6.0629,6.0169,6.0563,6.0629,6.0629,0.0,6.0629,6.0629,6.0629,6.0629,6.1583,6.3917,6.464,6.5923,6.829,6.8904,6.92,6.92,6.92,6.943,7.0033,7.0033,7.0296,7.0777,7.0777,7.0777,7.0777,7.0777,7.0777,7.0777,7.0777,7.0777,7.0777,7.0777,7.0777,7.0777,7.0777,7.0777,7.0711,7.0263,7.0033,6.9967,6.9397,6.92,6.92,6.92,6.92,6.92,6.92,6.92,6.92,6.92,6.92,6.92,6.92,6.92,6.92,6.92,6.92,6.92,6.92,6.92,6.92,6.92,6.92,6.92,6.92,6.9514,6.9737,6.9737,7.0625,7.1697,7.2906,7.3696,7.4063,7.3697,7.3963,7.4289,7.4641,7.4389,7.4321,7.4641,7.4989,7.5241,7.5241,7.5241,7.5241,7.5241,7.5241,7.549,7.6061,7.5526,7.549,7.6061,7.549,7.5241,7.5241,7.5241,7.5241,6.8839,6.7435,6.6219,6.5767,6.4904,6.4082,6.3588,6.2734,6.2082,6.2082,6.0531,5.9511,6.0465,5.9873,5.938,5.984,6.0333,6.0465,0.0,6.0333,6.0629,6.0629,6.1057,6.2273,6.4706,6.5364,0.0,0.0,6.92,0.0,6.92,6.92,6.92,6.92,6.92,6.92,6.92,6.92,6.92,6.92,6.92,6.92,6.92,6.92,6.92,6.92,6.92,6.92,6.92,6.92,6.92,6.92,6.92,6.92,6.92,6.92,6.92,6.92,6.92,6.92,6.92,6.92,6.92,6.92,6.92,6.92,6.92,6.92,6.92,6.92,6.92,6.92,6.92,6.92,6.92,6.92,6.92,6.9471,6.9737,6.9737,7.0257,7.0719,7.0719,7.1278,7.2331,7.3963,7.4769,7.5085,7.4769,7.4989,7.5241,7.5241,7.5241,7.5241,7.5241,7.5241,7.5241,7.5241,7.5241,7.5241,7.5241,7.5241,7.5241,7.5241,7.5241,7.5241,7.5241,7.5241,7.5241,7.5241,7.5241,7.5241,6.7581,6.6039,6.455,6.3175,6.2779,6.2378,6.0958,6.0629,6.0629,6.0629,6.0596,6.0563,6.0629,6.0596,6.0136,5.8821,5.9741,0.0,0.0,5.9774,6.0662,6.0695,6.195,6.3398,0.0,6.6252,6.7665,0.0,6.92,6.92,6.92,6.92,6.92,6.92,6.92,6.92,6.92,6.92,6.92,6.92,6.92,6.92,6.92,6.92,6.92,6.92,6.92,6.92,6.92,6.92,6.92,6.92,6.92,6.92,6.92,6.92,6.92,6.92,6.92,6.92,6.92,6.92,6.92,6.92,6.92,6.92,6.92,6.92,6.92,6.92,6.92,6.9244,6.9244,6.9244,6.9287,6.9298,6.9298,7.0083,7.0787,7.0787,7.2333,7.3626,7.3626,7.3659,7.3424,7.2548,7.403,7.4831,7.3826,7.461,7.5241,7.5241,7.5241,7.5241,7.5241,7.5241,7.5241,7.5241,7.5241,7.5241,7.5241,7.5241,7.5241,7.5241,7.5241,7.5241,7.5241,7.5241,7.5241,7.5241,7.5241,7.5241,6.7483,6.5877,6.4283,6.3881,6.2521,6.1122,6.0728,6.0629,6.0629,6.0629,5.9807,0.0,0.0,0.0,5.9314,5.9939,0.0,6.0498,6.0103,6.0399,6.1024,6.2082,6.2543,0.0,0.0,6.6811,6.7665,6.9069,6.92,6.92,6.92,6.92,6.92,6.92,6.92,6.92,6.92,6.92,6.92,6.92,6.92,6.92,6.92,6.92,6.92,6.92,6.92,6.92,6.92,6.92,6.92,6.92,6.92,6.92,6.92,6.92,6.92,6.92,6.92,6.92,6.92,6.92,6.92,6.92,6.92,6.92,6.92,6.92,6.92,6.92,6.92,6.978,7.0332,7.0332,7.0913,7.1467,7.1467,7.1659,7.1883,7.1883,7.2295,7.2693,7.2693,7.3897,7.4707,7.4452,7.4866,7.5115,7.4831,7.5055,7.5241,7.5241,7.5241,7.5241,7.5241,7.5241,7.5241,7.5241,7.5241,7.5241,7.5241,7.5241,7.5241,7.5241,7.5241,7.5241,7.5241,7.5241,7.5241,7.5241,7.5241,7.5241,6.665,6.5176,6.3636,6.3281,6.2138,6.1057,6.0743,6.0629,6.0629,6.0629,0.0,0.0,0.0,0.0,0.0,0.0,6.0268,6.0432,5.984,6.0268,6.1155,6.2608,0.0,0.0,6.6885,6.76,6.8323,6.9134,6.92,6.92,6.92,6.92,6.92,6.92,6.92,6.92,6.92,6.92,6.92,6.92,6.92,6.92,6.92,6.92,6.92,6.92,6.92,6.92,6.92,6.92,6.92,6.9069,6.7853,6.7393,6.7393,6.7393,6.7393,6.7393,6.7393,6.7393,6.7393,6.7393,6.7393,6.7393,6.7393,6.7393,6.7393,6.7393,6.7393,6.7393,6.7393,6.7864,6.8457,6.9058,6.9968,7.0946,7.1557,7.2295,7.287,7.287,7.3254,7.3143,7.178,7.2507,7.3279,7.3279,7.3279,7.3279,7.3279,7.3849,7.4242,7.4242,7.4848,7.5241,7.5241,7.5241,7.5241,7.5241,7.5241,7.5241,7.5241,7.5241,7.5241,7.5241,7.5241,7.5241,7.5241,7.5241,7.4563,7.3279,7.3279,7.3279,6.5594,6.4369,6.3144,6.2313,6.2038,6.1791,6.109,0.0,6.0937,6.0937,0.0,6.0899,6.0786,0.0,0.0,5.8985,5.9807,6.0202,5.8952,6.0216,6.1809,6.3266,6.4458,6.5726,6.7139,6.8444,6.92,6.92,6.92,6.92,6.92,6.92,6.92,6.92,6.9036,6.897,6.897,6.8773,6.8707,6.8707,6.8707,6.8707,6.8707,6.8707,6.8707,6.8707,6.8707,6.8707,6.8707,6.8707,6.8707,6.8444,6.5923,6.4936,6.4936,6.4936,6.4936,6.4936,6.4936,6.4936,6.4936,6.4936,6.4936,6.4936,6.5026,6.5147,6.5195,6.5195,6.5195,6.5195,6.5195,6.5315,6.5694,6.6986,6.8061,6.9169,7.0449,7.2102,7.3299,7.3299,7.4047,7.3814,7.1031,7.0567,7.0567,7.0567,7.0567,7.0567,7.0567,7.1773,7.2629,7.2629,7.3849,7.4706,7.4706,7.4706,7.4706,7.4706,7.4706,7.4706,7.4706,7.4706,7.4706,7.4706,7.4706,7.4706,7.4706,7.4706,7.3279,7.0567,7.0567,7.0567,6.567,6.4975,6.4234,6.4049,6.3463,6.2883,0.0,0.0,0.0,6.2684,6.2684,6.2449,6.1686,6.168,6.1394,6.0419,6.0465,6.0531,6.0268,6.3214,6.5879,6.7322,6.6994,6.7205,6.8641,6.9036,6.92,6.92,6.92,6.92,6.92,6.92,6.92,6.92,6.8093,6.7468,6.7468,6.6317,6.5758,6.5758,6.5758,6.5758,6.5758,6.5758,6.5758,6.5758,6.5758,6.5758,6.5758,6.5758,6.5758,6.5726,6.5167,6.4936,6.4936,6.4936,6.4936,6.4936,6.4936,6.4936,6.4936,6.4936,6.4936,6.5059,6.5829,6.6458,6.6979,6.6979,6.6979,6.6979,6.6979,6.7613,6.8293,6.857,6.9429,7.0289,7.0542,7.0888,7.1158,7.1158,7.1338,7.1245,7.0639,7.0567,7.0567,7.0567,7.0567,7.0567,7.0567,7.0817,7.0995,7.0995,7.1281,7.1459,7.1459,7.1459,7.1459,7.1459,7.1459,7.1459,7.1459,7.1459,7.1459,7.1459,7.1459,7.1459,7.1459,7.1459,7.1138,7.0567,7.0567,7.0567,6.4752,6.4811,6.5016,6.4649,6.4174,0.0,0.0,6.3176,6.3176,6.3176,6.3176,6.3047,6.255,6.2551,6.2721,6.3049,6.3079,6.3351,6.4129,6.6558,6.833,6.8579,6.88,6.8984,6.9178,6.92,6.92,6.92,6.8553,6.783,6.7097,6.7031,6.7031,6.7031,6.6383,6.5989,6.5989,6.5298,6.4936,6.4936,6.4936,6.4936,6.4936,6.4936,6.4936,6.4936,6.4936,6.4936,6.4936,6.4936,6.4082,6.2799,6.2799,6.2799,6.2806,6.3213,6.3371,6.3409,6.3862,6.4046,6.4046,6.4046,6.4046,6.4119,6.4586,6.4971,6.531,6.531,6.531,6.531,6.531,6.5709,6.6272,6.6969,6.7942,6.8922,6.9607,7.0176,7.0567,7.0567,6.9247,6.8141,6.8141,6.8141,6.8141,6.8141,6.8141,6.8141,6.8141,6.8819,6.9291,6.9291,7.0068,7.0567,7.0567,7.0567,7.0567,7.0567,7.0567,7.0567,7.0567,7.0567,7.0567,7.0567,7.0567,7.0567,7.0567,6.8926,6.8141,6.8141,6.8141,6.8141,6.3621,6.4263,6.5192,6.4834,6.4763,0.0,6.3836,6.3682,6.3682,6.3682,6.3682,6.362,6.3463,6.3673,6.4228,6.5338,6.5751,6.6712,6.8979,7.0096,7.0401,6.9701,7.0173,7.0235,6.9399,6.9041,6.8842,6.8842,6.779,6.6629,6.5468,6.5402,6.5402,6.5402,6.5011,6.4758,6.4758,6.4294,6.4114,6.4114,6.4114,6.4114,6.4114,6.4114,6.4114,6.4114,6.4114,6.4114,6.4114,6.4114,6.2734,6.0629,6.0629,6.0743,6.0941,6.1577,6.1933,6.2176,6.2949,6.3176,6.3176,6.3176,6.3176,6.3208,6.3368,6.3432,6.3463,6.362,6.3682,6.3682,6.3682,6.3682,6.3928,6.5109,6.602,6.6953,6.8124,6.9009,6.9604,6.9604,6.7499,6.5715,6.5715,6.5715,6.5715,6.5715,6.5715,6.5715,6.5715,6.6795,6.7579,6.7579,6.8819,6.9604,6.9604,6.9604,6.9604,6.9604,6.9604,6.9604,6.9604,6.9604,6.9604,6.9604,6.9604,6.9604,6.9604,6.7,6.5757,6.585,6.5732,6.5835,6.3014,6.3514,6.3942,6.5254,6.5575,0.0,6.5468,6.5442,6.5442,6.5442,6.5442,6.5217,6.4533,6.5537,6.6238,6.5609,6.6681,6.9185,7.375,7.3738,7.3246,7.3145,7.1202,6.9834,6.9725,6.8458,6.7636,6.7636,6.7465,6.733,6.7193,6.7193,6.7193,6.7193,6.5248,6.4238,6.4238,6.2175,6.109,6.109,6.109,6.109,6.109,6.109,6.109,6.109,6.109,6.109,6.109,6.109,6.0925,6.0629,6.0629,6.1057,6.1686,6.1792,6.2313,6.3047,6.3144,6.3176,6.3176,6.3176,6.3176,6.3336,6.4144,6.4352,6.4533,6.5244,6.5442,6.5442,6.5442,6.5442,6.5477,6.5619,6.5744,6.5895,6.6047,6.6162,6.625,6.625,6.5965,6.5715,6.5715,6.5715,6.5715,6.5715,6.5715,6.5715,6.5715,6.5858,6.5965,6.5965,6.6143,6.625,6.625,6.625,6.625,6.625,6.625,6.625,6.625,6.625,6.625,6.625,6.625,6.625,6.625,6.5858,6.5915,6.64,6.5926,6.6259,6.0721,6.198,6.3514,6.4191,0.0,0.0,6.5715,6.5715,6.5965,6.6866,6.7044,6.7249,6.7896,6.8577,6.9206,6.9719,7.0358,7.1173,7.2336,7.213,7.1632,7.1025,7.0009,6.9091,6.8471,6.7852,6.744,6.744,6.6685,6.6204,6.6204,6.5414,6.4967,6.4967,6.3568,6.277,6.277,6.1389,6.0629,6.0629,6.0629,6.0629,6.0629,6.0629,6.0629,6.0629,6.0629,6.0629,6.0743,6.1716,6.214,6.214,6.214,6.2347,6.265,6.3206,6.3651,6.4054,6.4498,6.4642,6.4642,6.4642,6.4642,6.47,6.5107,6.5217,6.5271,6.5601,6.5715,6.5715,6.5715,6.5715,6.5715,6.5715,6.5715,6.5715,6.5715,6.5715,6.5715,6.5715,6.5715,6.5715,6.5715,6.5715,6.5715,6.5715,6.5715,6.5715,6.5715,6.5715,6.5715,6.5715,6.5715,6.5715,6.5715,6.5715,6.5715,6.5715,6.5715,6.5715,6.5715,6.5715,6.5715,6.5715,6.5715,6.5715,6.5715,6.6378,6.682,6.7057,6.682,6.7008,5.8901,0.0,0.0,0.0,0.0,0.0,6.5715,6.5715,6.6036,6.7151,6.7401,6.79,6.9568,7.0246,7.0924,7.2058,7.2273,7.1844,7.071,7.0567,7.0298,6.9538,6.9025,6.8464,6.7694,6.7212,6.6969,0.0,6.6029,6.5435,6.5435,6.4458,6.3867,6.3867,6.3045,6.2584,6.2584,6.1753,6.1352,6.1352,6.1352,6.1352,6.1352,6.1352,6.1352,6.1352,6.1352,6.1352,6.1461,6.2651,6.3176,6.3176,6.3176,6.3336,6.362,6.4293,6.4678,6.4968,6.5495,6.5715,6.5715,6.5715,6.5715,6.5715,6.5715,6.5715,6.5715,6.5715,6.5715,6.5715,6.5715,6.5715,6.5715,6.5715,6.5715,6.5715,6.5715,6.5715,6.5715,6.5715,6.5715,6.5715,6.5715,6.5715,6.5715,6.5715,6.5715,6.5715,6.5715,6.5715,6.5715,6.5715,6.5715,6.5715,6.5715,6.5715,6.5715,6.5715,6.5715,6.5715,6.5715,6.5715,6.5715,6.5715,6.5824,6.5926,6.5926,6.6929,6.744,6.744,6.7613,6.7763,0.0,0.0,0.0,6.2979,6.4538,6.5715,6.5715,6.5715,6.5715,6.5751,6.5787,6.625,6.7829,6.9461,7.0567,7.0603,7.0639,7.0603,7.0567,7.0567,7.0531,7.0503,6.9049,6.806,6.7997,6.6634,6.5743,6.5743,6.5734,6.5699,6.5699,6.5663,6.5627,6.5627,6.4848,6.4475,6.4475,6.3558,6.3112,6.3112,6.3112,6.3112,6.3112,6.3112,6.3112,6.3112,6.3112,6.3112,6.3112,6.3144,6.3176,6.3176,6.3176,6.3713,6.4504,6.4533,6.5024,6.5653,6.5715,6.5715,6.5715,6.5715,6.5715,6.5715,6.5715,6.5715,6.5715,6.5715,6.5715,6.5715,6.5715,6.5715,6.5715,6.5715,6.5715,6.5715,6.5715,6.5715,6.5715,6.5715,6.5715,6.5715,6.5715,6.5715,6.5715,6.5715,6.5715,6.5715,6.5715,6.5715,6.5715,6.5715,6.5715,6.5715,6.5715,6.5715,6.5715,6.5715,6.5715,6.5715,6.5715,6.5715,6.5715,6.5715,6.6199,6.6456,6.6456,6.7119,6.744,6.7496,6.7962,6.8467,5.8295,5.9864,6.1519,6.3392,6.507,6.6342,6.6754,6.6878,6.7058,6.7762,6.7905,6.826,6.9508,6.9912,7.0033,7.0033,6.9738,6.9141,6.8024,6.7538,6.7321,6.7321,6.6821,6.6474,6.6474,6.6036,6.5715,6.5715,6.5715,6.5715,6.5715,6.5715,6.5715,6.5715,6.5442,6.5079,6.4533,6.362,6.3176,6.3176,6.3176,6.3176,6.3176,6.3176,6.3176,6.3176,6.3176,6.266,6.1745,6.1745,6.1745,6.1745,6.1745,6.194,6.2211,6.2211,6.24,6.2636,6.2636,6.2636,6.2636,6.2636,6.2636,6.2636,6.2636,6.2636,6.2636,6.2636,6.2636,6.2636,6.2636,6.2636,6.2861,6.3931,6.4145,6.4431,6.5465,6.4074,6.2636,6.2636,6.2636,6.2636,6.2636,6.2636,6.2968,6.4003,6.4145,6.4538,6.5573,6.5715,6.5715,6.5715,6.5715,6.5715,6.5715,6.5715,6.5715,6.5715,6.604,6.6223,6.6223,6.6642,6.6878,6.6878,6.7036,6.6185,6.4286,6.4833,6.5122,6.5122,6.5289,6.6098,5.8706,6.0644,6.2749,6.4094,6.5648,6.6935,6.736,6.744,6.7633,6.8313,6.8428,6.8838,7.006,6.9542,6.896,6.896,6.8495,6.7746,6.6624,6.604,6.5715,6.5715,6.5715,6.5715,6.5715,6.5715,6.5715,6.5715,6.5715,6.5715,6.5715,6.5715,6.5715,6.5715,6.5715,6.5468,6.4968,6.4381,6.38,6.3247,6.3247,6.2933,6.241,6.241,6.241,6.241,6.241,6.1891,6.103,6.103,6.103,6.103,6.103,6.103,6.103,6.103,6.103,6.103,6.103,6.103,6.103,6.103,6.103,6.103,6.103,6.103,6.103,6.103,6.103,6.103,6.103,6.103,6.128,6.229,6.254,6.2825,6.3824,6.2569,6.1302,6.1302,6.1427,6.1525,6.1525,6.1525,6.1886,6.2872,6.2993,6.3413,6.4385,6.4506,6.4506,6.4506,6.4506,6.4506,6.4506,6.4506,6.4506,6.4506,6.4821,6.5039,6.5039,6.5427,6.5641,6.5641,6.5831,6.5101,6.3464,6.3784,6.3935,6.3935,6.3935,6.4533,5.9612,6.2207,6.4948,6.504,6.6306,6.7479,6.7518,6.7518,6.7518,6.7479,6.7479,6.7956,6.946,6.8526,6.7518,6.7518,6.6978,6.657,6.657,6.6138,6.5783,6.5783,6.5783,6.5783,6.5732,6.5732,6.5732,6.5715,6.5715,6.5644,6.5573,6.5573,6.5537,6.5465,6.5465,6.5465,6.5465,6.5465,6.4716,6.3228,6.3228,6.2469,6.103,6.103,6.0959,6.0816,6.0816,6.0816,6.0816,6.0816,6.0816,6.0816,6.0816,6.0816,6.0816,6.0816,6.0816,6.0816,6.0816,6.0816,6.0816,6.0816,6.0816,6.0816,6.0816,6.0816,6.0816,6.0816,6.0816,6.0816,6.0816,6.0816,6.0816,6.0816,6.0887,6.0923,6.0923,6.1283,6.1584,6.1584,6.1887,6.2177,6.2177,6.2177,6.2177,6.225,6.2287,6.2287,6.2397,6.2397,6.2397,6.2397,6.2397,6.2397,6.2397,6.2397,6.2397,6.2397,6.2415,6.2434,6.2434,6.2452,6.2471,6.2471,6.2828,6.3203,6.3711,6.3711,6.3711,6.3711,6.3711,6.3748,6.1115,6.3332,6.5316,6.6965,6.7699,6.8154,6.8498,6.8611,6.8483,6.8137,6.8015,6.8265,6.9056,6.8857,6.8611,6.8611,6.8151,6.7763,6.7763,6.7324,6.6993,6.6993,6.6993,6.682,6.6306,6.6282,6.6102,6.5732,6.5715,6.518,6.4013,6.3942,6.3432,6.2255,6.2244,6.2244,6.2244,6.2244,6.2029,6.1612,6.1612,6.1423,6.103,6.103,5.9757,5.7558,5.7558,5.7558,5.7558,5.7558,5.7558,5.7558,5.7558,5.7558,5.7558,5.7558,5.7558,5.7558,5.7558,5.7558,5.7558,5.7558,5.7558,5.7558,5.7558,5.7558,5.7558,5.7558,5.7558,5.7558,5.7558,5.7558,5.7558,5.7558,5.8473,5.9294,5.9294,5.878,5.8348,5.8348,5.8646,5.8934,5.8934,5.8934,5.9283,6.0474,6.0657,6.1097,6.225,6.2397,6.2397,6.2397,6.2397,6.2397,6.2397,6.2397,6.2397,6.2397,6.2755,6.2992,6.2992,6.3339,6.3572,6.3572,6.1306,6.0213,6.0334,6.0334,6.0334,6.0334,6.0334,6.1007,6.1998,6.4799,6.7031,6.8275,6.8581,6.8641,6.8966,6.9006,6.8915,6.8626,6.8581,6.8641,6.8929,6.9006,6.9006,6.9006,6.8544,6.8238,6.8238,6.78,6.744,6.744,6.744,6.732,6.6935,6.6216,6.5576,6.5047,6.4388,6.3489,6.2397,6.2326,6.1934,6.1066,6.103,6.103,6.103,6.103,6.103,6.103,6.0328,5.965,5.8972,5.8972,5.8045,5.6381,5.6381,5.6381,5.6381,5.6381,5.6381,5.6381,5.6381,5.6381,5.6381,5.6381,5.6381,5.6381,5.6381,5.6381,5.6381,5.6381,5.6381,5.6381,5.6381,5.6381,5.6381,5.6381,5.6381,5.6381,5.6381,5.6381,5.6381,5.6381,5.7189,5.8061,5.8221,5.7834,5.7443,5.7621,5.802,5.833,5.833,5.833,5.8626,5.9484,5.9632,5.9965,6.0822,6.0933,6.0933,6.0933,6.0933,6.0933,6.0933,6.0933,6.0933,6.0933,6.1209,6.1372,6.1372,6.1656,6.1804,6.1804,6.0035,5.91,5.91,5.91,5.91,5.91,5.91,5.9586,6.2449,6.5853,6.8446,6.8894,6.9006,6.9006,6.9006,6.9006,6.9006,6.9006,6.9006,6.9006,6.9006,6.9006,6.9006,6.9006,6.8626,6.8319,6.8319,6.7944,6.7559,6.7339,6.7302,6.7209,6.6913,6.5553,6.448,6.393,6.2654,6.1585,6.0933,6.0886,6.0802,6.06,6.06,6.06,6.06,6.06,6.06,6.0564,5.9239,5.7833,5.6457,5.6545,5.6531,5.6531,5.6531,5.6531,5.6531,5.6531,5.6531,5.6531,5.6531,5.6531,5.6531,5.6531,5.6531,5.6531,5.6531,5.6531,5.6531,5.6531,5.6531,5.6531,5.6531,5.6531,5.6531,5.6531,5.6531,5.6531,5.6531,5.6531,5.6531,5.6531,5.6937,5.7388,5.7673,5.7792,5.7903,5.8255,5.8696,5.9017,5.9089,5.91,5.91,5.91,5.91,5.91,5.91,5.91,5.91,5.91,5.91,5.91,5.91,5.91,5.91,5.91,5.91,5.91,5.91,5.91,5.91,5.91,5.91,5.91,5.91,5.91,5.91,5.91,5.91,5.9086,6.2938,6.4309,6.5505,6.8296,6.9006,6.9006,6.9006,6.9006,6.9006,6.9006,6.9006,6.9006,6.9006,6.9006,6.9006,6.9006,6.8915,6.8874,6.8874,6.878,6.8229,6.6813,6.6663,6.5939,6.4087,6.3632,6.3265,6.2761,6.2447,6.1697,6.0307,6.0234,5.9614,5.8319,5.8282,5.8282,5.8282,5.8282,5.8282,5.8282,5.8045,5.7605,5.7034,5.7351,5.7497,5.7497,5.7497,5.7497,5.7497,5.7497,5.7497,5.7497,5.7497,5.7497,5.7497,5.7497,5.7497,5.7497,5.7497,5.7497,5.7497,5.7497,5.7497,5.7497,5.7497,5.7497,5.7497,5.7497,5.7497,5.7497,5.7497,5.7497,5.7497,5.7497,5.7805,5.8045,5.7809,5.7983,5.8241,5.8313,5.8407,5.8593,5.9017,5.91,5.91,5.91,5.91,5.91,5.91,5.91,5.91,5.91,5.91,5.91,5.91,5.91,5.91,5.91,5.91,5.91,5.91,5.91,5.91,5.91,5.91,5.91,5.91,5.91,5.91,5.91,5.91,5.9158,6.2065,6.3337,6.4571,6.7076,6.8334,6.9006,6.9006,6.9006,6.9006,6.9006,6.9006,6.9006,6.9006,6.9006,6.9006,6.9006,6.9006,6.8707,6.7823,6.7674,6.7076,6.5356,6.5169,6.4732,6.3688,6.2841,6.2166,6.1622,6.0762,5.9853,5.8897,5.8861,5.8494,5.7741,5.7741,5.7741,5.7741,5.7741,5.7741,5.7741,5.7741,5.7621,5.7462,5.7838,5.7919,5.7741,5.7741,5.7741,5.7741,5.7741,5.7741,5.7741,5.7741,5.7741,5.7741,5.7741,5.7741,5.7741,5.7741,5.7741,5.7741,5.7741,5.7741,5.7741,5.7741,5.7741,5.7741,5.7741,5.7741,5.7741,5.7741,5.7741,5.7741,5.7741,5.8234,5.867,5.8495,5.8604,5.8721,5.8721,5.8721,5.8809,5.904,5.91,5.91,5.91,5.91,5.91,5.91,5.91,5.91,5.91,5.91,5.91,5.91,5.91,5.91,5.91,5.91,5.91,5.91,5.9233,5.9293,5.9293,5.9293,5.9293,5.9293,5.9293,5.9293,5.9293,5.9293,5.9312,6.1168,6.2514,6.3935,6.5967,6.7487,6.8558,6.8932,6.9048,6.9072,6.9072,6.9072,6.9072,6.9072,6.9072,6.8997,6.8659,6.8572,6.7984,6.6297,6.6034,6.5412,6.3705,6.3469,6.3334,6.2925,6.1804,6.091,6.0499,5.9232,5.835,5.8035,5.802,5.802,5.802,5.802,5.802,5.802,5.802,5.802,5.802,5.802,5.7972,5.7854,5.8307,5.8321,5.802,5.802,5.802,5.802,5.802,5.802,5.802,5.802,5.802,5.802,5.802,5.802,5.802,5.802,5.802,5.802,5.802,5.802,5.802,5.802,5.802,5.802,5.802,5.802,5.802,5.802,5.802,5.802,5.802,5.8563,5.91,5.91,5.91,5.91,5.91,5.91,5.91,5.91,5.91,5.91,5.91,5.91,5.9123,5.9115,5.9126,5.9147,5.9162,5.9172,5.9172,5.9172,5.9172,5.9172,5.9172,5.9172,5.9172,5.9172,5.9381,5.9487,5.9487,5.9487,5.9487,5.9487,5.9487,5.9487,5.9487,5.9487,5.9509,6.1168,6.1729,6.2589,6.5705,6.6602,6.7113,6.867,6.9191,6.9353,6.9353,6.9353,6.9353,6.9353,6.9353,6.89,6.7487,6.7253,6.6649,6.4935,6.4708,6.4045,6.2202,6.1996,6.1374,5.9684,5.9399,5.9313,5.9241,5.9091,5.9005,5.8981,5.8981,5.8981,5.8981,5.8981,5.8981,5.8981,5.8981,5.8981,5.8981,5.8981,5.8709,5.8284,5.8797,5.9005,5.8981,5.8981,5.8981,5.8981,5.8981,5.8981,5.8981,5.8981,5.8981,5.8981,5.8981,5.8981,5.8981,5.8981,5.8981,5.8981,5.8981,5.8981,5.8981,5.8981,5.8981,5.8981,5.8981,5.8981,5.8981,5.8981,5.8981,5.8981,5.8981,5.9017,5.91,5.91,5.91,5.91,5.91,5.91,5.91,5.91,5.91,5.91,5.91,5.91,5.9126,5.9261,5.9258,5.9296,5.9426,5.9445,5.9445,5.9445,5.9445,5.9445,5.9445,5.9445,5.9445,5.9445,5.9475,5.9487,5.9487,5.9487,5.9487,5.9487,5.9487,5.9487,5.9487,5.9487,5.9523,6.0133,6.1067,6.216,6.3469,6.5324,6.6991,6.7697,6.7118,6.6735,6.7769,6.8721,6.9408,6.9408,6.8608,6.7769,6.7157,6.6206,6.4951,6.325,6.3023,6.2361,6.0601,6.0405,6.0113,5.9388,5.9342,5.9342,5.9342,5.9342,5.9342,5.9342,5.9342,5.9342,5.9342,5.9342,5.9342,5.9342,5.9252,5.9214,5.9214,5.9115,5.9072,5.9026,5.9226,5.9342,5.9342,5.9342,5.9342,5.9342,5.9342,5.9342,5.9342,5.9342,5.9342,5.9342,5.9342,5.9342,5.9342,5.9342,5.9342,5.9326,5.9224,5.9214,5.9185,5.9119,5.91,5.91,5.91,5.91,5.91,5.91,5.91,5.9115,5.9284,5.9342,5.9342,5.9342,5.9342,5.9342,5.9342,5.9342,5.9342,5.9342,5.9342,5.9342,5.9342,5.9342,5.9336,5.9417,5.9393,5.9419,5.9481,5.9487,5.9487,5.9487,5.9487,5.9487,5.9487,5.9487,5.9565,5.9833,5.9835,5.9835,5.9835,5.9835,5.9835,5.9835,5.9835,5.9835,5.9835,5.9835,5.9886,5.9487,6.0351,6.1366,6.1895,6.3786,6.5714,6.6206,6.5446,6.4972,6.6189,6.7292,6.8055,6.8055,6.7178,6.6264,6.581,6.4744,6.338,6.168,6.1415,6.0952,5.9712,5.9556,5.9536,5.9493,5.9487,5.9487,5.9487,5.9487,5.9487,5.9487,5.9487,5.9487,5.9487,5.9487,5.9487,5.9487,5.9372,5.9344,5.9344,5.9252,5.931,5.9487,5.9487,5.9487,5.9487,5.9487,5.9487,5.9487,5.9487,5.9487,5.9487,5.9487,5.9487,5.9487,5.9487,5.9487,5.9487,5.9487,5.9487,5.9469,5.9351,5.9344,5.9312,5.9224,5.9204,5.9204,5.9204,5.9204,5.9204,5.9204,5.9204,5.9252,5.9432,5.9487,5.9487,5.9487,5.9487,5.9487,5.9487,5.9487,5.9487,5.9487,5.9487,5.9487,5.9487,5.9487,5.9487,5.9487,5.9531,5.957,5.9638,5.9642,5.9642,5.9642,5.9642,5.9642,5.9642,5.9642,5.9777,6.0061,6.0062,6.0062,6.0062,6.0062,6.0062,6.0062,6.0062,6.0062,6.0062,6.0062,6.0062,5.9487,5.9487,5.9903,6.1593,6.2046,6.2494,6.4189,6.4743,6.4921,6.4959,6.4959,6.4959,6.4959,6.4959,6.4428,6.2871,6.2605,6.2036,6.0327,6.01,5.9982,5.9712,5.9666,5.9631,5.9504,5.9487,5.9487,5.9487,5.9487,5.9487,5.9487,5.9487,5.9487,5.9487,5.9487,5.9487,5.9487,5.9487,5.9487,5.9487,5.9487,5.9487,5.9487,5.9487,5.9487,5.9487,5.9487,5.9487,5.9487,5.9487,5.9487,5.9487,5.9487,5.9487,5.9487,5.9487,5.9487,5.9487,5.9487,5.9487,5.9487,5.9487,5.9487,5.9487,5.9487,5.9487,5.9487,5.9487,5.9487,5.9487,5.9487,5.9487,5.9487,5.9487,5.9487,5.9487,5.9487,5.9487,5.9487,5.9487,5.9487,5.9487,5.9487,5.9487,5.9487,5.9487,5.9487,5.9487,5.9487,5.9609,5.9766,6.0023,6.0062,6.0062,6.0062,6.0062,6.0062,6.0062,6.0062,6.0062,6.0062,6.0062,6.0062,6.0062,6.0062,6.0062,6.0062,6.0062,6.0062,6.0062,6.0062,6.0062,5.9887,5.9887,6.0,6.0567,6.1554,6.2237,6.1627,6.1535,6.1922,6.3099,6.3327,6.3668,6.4731,6.4048,6.3175,6.2681,6.1618,6.0669,6.0138,6.0062,6.0023,5.9943,5.9943,5.9939,5.9887,5.9887,5.9887,5.9887,5.9887,5.9887,5.9887,5.9887,5.9887,5.9887,5.9887,5.9887,5.9887,5.9692,5.9624,5.9624,5.9793,5.9887,5.9887,5.9887,5.9887,5.9887,5.9887,5.9887,5.9887,5.9887,5.9887,5.9887,5.9887,5.9887,5.9887,5.9887,5.9887,5.9887,5.9887,5.9887,5.9844,5.9683,5.9624,5.9609,5.9482,5.9487,5.9487,5.9487,5.9487,5.9536,5.9828,5.9887,5.9887,5.9887,5.9887,5.9887,5.9887,5.9887,5.9887,5.9887,5.9887,5.9887,5.9887,5.9887,5.9887,5.9887,5.9887,5.9887,5.9887,5.9898,5.9983,6.0062,6.0062,6.0062,6.0062,6.0062,6.0062,6.0062,5.9899,5.9808,5.9808,5.9983,6.0062,6.0062,6.0062,6.0062,6.0062,6.0062,6.0062,6.0062,6.0062,5.9983,6.0062,6.0062,6.0062,6.0062,6.0859,6.1352,6.0289,5.9983,6.0205,6.1269,6.1449,6.1745,6.2748,6.2142,6.1497,6.1497,6.0624,5.9943,6.0062,6.0062,6.0023,5.9942,6.0022,6.0023,5.9941,6.0022,6.0062,6.0062,6.0062,6.0062,6.0062,6.0062,6.0023,5.9941,5.9902,5.9896,5.984,5.9719,5.9643,5.9604,5.9777,5.984,5.984,5.984,5.984,5.984,5.984,5.984,5.984,5.984,5.984,5.984,5.984,5.9851,5.9902,5.9902,5.9983,6.0062,6.0062,6.0062,6.0061,5.9859,5.9813,5.9808,5.9724,5.9707,5.9707,5.9707,5.9707,5.9707,5.9825,5.984,5.984,5.984,5.984,5.984,5.984,5.984,5.984,5.984,5.984,5.984,5.984,5.984,5.984,5.984,5.984,5.984,5.984,5.984,5.984,5.984,5.984,5.984,5.984,5.984,5.984,5.984,5.9683,5.9612,5.9612,5.9742,5.984,5.984,5.984,5.984,5.984,5.984,5.984,5.984,5.984,5.9742,6.0062,6.0062,6.0062,6.0062,6.0062,6.0023,6.0023,5.9813,5.9657,5.9657,5.9541,5.9531,5.9641,5.9657,5.9657,5.9657,5.9657,5.9757,5.9983,6.0022,5.994,5.9704,5.9858,5.994,5.9666,5.9896,6.0022,6.0022,6.0022,6.0022,6.0022,6.0022,5.9899,5.966,5.9657,5.9616,5.9493,5.9612,5.9609,5.9475,5.9481,5.9487,5.9487,5.9487,5.9487,5.9487,5.9487,5.9487,5.9487,5.9487,5.9487,5.9487,5.9487,5.957,5.9657,5.9657,5.981,6.0022,6.0022,6.0022,6.0022,6.0022,6.0022,6.0022,6.0022,6.0022,6.0022,6.0022,6.0022,5.9937,5.9594,5.9487,5.9487,5.9487,5.9487,5.9487,5.9487,5.9487,5.9487,5.9487,5.9487,5.9487,5.9487,5.9487,5.9487,5.9487,5.9487,5.9487,5.9487,5.9487,5.9487,5.9487,5.9487,5.9487,5.9487,5.9487,5.9481,5.9457,5.9463,5.9475,5.9475,5.9481,5.9487,5.9487,5.9487,5.9487,5.9487,5.9487,5.9487,5.9487,5.9487,5.9481,6.0062,6.0062,6.0062,6.0062,5.9902,5.9752,5.9642,5.9565,5.9503,5.9503,5.9515,5.9498,5.9536,5.9503,5.9503,5.9503,5.9503,5.9551,5.9617,5.9621,5.9612,5.9546,5.957,5.9612,5.9546,5.957,5.9621,5.9621,5.9621,5.9621,5.9621,5.9621,5.9608,5.9503,5.9503,5.9525,5.9487,5.9525,5.9469,5.9328,5.9432,5.9487,5.9487,5.9487,5.9487,5.9487,5.9487,5.9487,5.9487,5.9487,5.9487,5.9487,5.9487,5.9509,5.9503,5.9503,5.9561,5.9621,5.9621,5.9621,5.9621,5.9621,5.9621,5.9621,5.9621,5.9621,5.9621,5.9621,5.9621,5.9608,5.9509,5.9487,5.9487,5.9487,5.9487,5.9487,5.9487,5.9487,5.9487,5.9487,5.9487,5.9487,5.9487,5.9487,5.9487,5.9487,5.9487,5.9487,5.9487,5.9487,5.9487,5.9487,5.9487,5.9487,5.9487,5.9487,5.9417,5.9175,5.9305,5.9328,5.9328,5.9426,5.9487,5.9487,5.9487,5.9487,5.9487,5.9487,5.9487,5.9487,5.9487,5.9426,6.0062,6.0062,6.0022,5.9838,5.9676,5.9546,5.9509,5.9432,5.9372,5.9372,5.9336,5.9334,5.9396,5.9336,5.9334,5.9396,5.9372,5.9406,5.9481,5.9487,5.9463,5.9386,5.9445,5.9463,5.9424,5.9445,5.9487,5.9487,5.9487,5.9487,5.9487,5.9487,5.9457,5.9417,5.9372,5.9366,5.9301,5.9083,5.892,5.8846,5.9158,5.9301,5.9301,5.9301,5.9301,5.9301,5.9301,5.9301,5.9301,5.9301,5.9301,5.9301,5.9301,5.9301,5.9318,5.9381,5.9372,5.9386,5.9463,5.9487,5.9487,5.9487,5.9487,5.9487,5.9487,5.9487,5.9487,5.9487,5.941,5.9301,5.9301,5.9301,5.9301,5.9301,5.9301,5.9301,5.9301,5.9301,5.9301,5.9301,5.9301,5.9301,5.9301,5.9301,5.9301,5.9301,5.9301,5.9301,5.9301,5.9301,5.9301,5.9301,5.9301,5.9301,5.9301,5.9301,5.9233,5.9086,5.9141,5.9185,5.9185,5.9017,5.8951,5.8951,5.8756,5.8692,5.8692,5.8692,5.8692,5.8692,5.8692,5.864,6.0022,5.9983,5.9889,5.9525,5.9451,5.9445,5.9419,5.9328,5.9232,5.9232,5.9162,5.9141,5.9233,5.9162,5.9093,5.9149,5.9139,5.9157,5.9193,5.9215,5.9191,5.9064,5.9142,5.9183,5.9064,5.9151,5.9215,5.9215,5.9215,5.9215,5.9215,5.9215,5.9175,5.9054,5.9045,5.8997,5.8883,5.8434,5.8226,5.8241,5.867,5.8883,5.8883,5.8883,5.8883,5.8883,5.8883,5.8883,5.8883,5.8883,5.8883,5.8883,5.8883,5.8883,5.8883,5.908,5.9139,5.9176,5.9351,5.9413,5.9413,5.9413,5.9413,5.9413,5.9413,5.9413,5.94,5.923,5.9045,5.8883,5.8883,5.8883,5.8883,5.8883,5.8957,5.8993,5.8993,5.9028,5.91,5.91,5.91,5.91,5.91,5.91,5.91,5.91,5.91,5.91,5.91,5.91,5.91,5.91,5.91,5.91,5.91,5.91,5.9017,5.8883,5.8883,5.8883,5.8883,5.8448,5.8226,5.8226,5.7887,5.7741,5.7741,5.7741,5.7741,5.7741,5.7741,5.7741,5.9719,5.9669,5.9515,5.9359,5.9334,5.9284,5.9172,5.9126,5.913,5.913,5.9097,5.9074,5.9119,5.9097,5.8956,5.8532,5.8455,5.8374,5.8063,5.8018,5.8002,5.7977,5.7987,5.8002,5.7977,5.7987,5.8018,5.8018,5.8018,5.8018,5.8018,5.8018,5.7987,5.7962,5.7962,5.7967,5.794,5.7875,5.7842,5.7842,5.7908,5.794,5.794,5.794,5.794,5.794,5.794,5.794,5.794,5.794,5.794,5.794,5.794,5.794,5.7988,5.8318,5.8455,5.8545,5.8985,5.9158,5.9158,5.9158,5.9158,5.9158,5.9158,5.9158,5.8985,5.821,5.7962,5.794,5.794,5.794,5.794,5.794,5.8204,5.8448,5.8448,5.8797,5.91,5.91,5.91,5.91,5.91,5.91,5.91,5.91,5.91,5.91,5.91,5.91,5.91,5.91,5.91,5.91,5.91,5.91,5.8759,5.7988,5.794,5.794,5.794,5.7875,5.7842,5.7842,5.7775,5.7741,5.7741,5.7741,5.7741,5.7741,5.7741,5.7741,5.9605,5.9419,5.9261,5.9185,5.9192,5.9162,5.9097,5.91,5.9017,5.8721,5.8683,5.8593,5.8387,5.8358,5.83,5.803,5.7999,5.7935,5.7758,5.7741,5.7741,5.7741,5.7741,5.7741,5.7741,5.7741,5.7741,5.7741,5.7741,5.7741,5.7741,5.7741,5.7741,5.7741,5.7741,5.7497,5.6985,5.7294,5.7425,5.7425,5.7621,5.7741,5.7741,5.7741,5.7741,5.7741,5.7741,5.7741,5.7741,5.7741,5.7741,5.7741,5.7741,5.7741,5.7758,5.7919,5.7999,5.803,5.8286,5.8358,5.8358,5.8358,5.8358,5.8358,5.8358,5.8358,5.8271,5.7858,5.7741,5.7741,5.7741,5.7741,5.7741,5.7741,5.7854,5.7999,5.7999,5.8189,5.8358,5.8358,5.8358,5.8358,5.8358,5.8358,5.8358,5.8358,5.8358,5.8358,5.8358,5.8358,5.8358,5.8358,5.8358,5.8358,5.8358,5.8358,5.8196,5.7758,5.7741,5.7741,5.7741,5.7741,5.7621,5.7443,5.7159,5.7002,5.7002,5.7002,5.7002,5.7002,5.7002,5.7002,5.9419,0.0,5.8932,5.904,5.9005,5.8908,0.0,5.8859,5.8644,5.8241,5.8182,5.8092,5.7809,5.7741,5.7707,5.764,5.7605,5.757,5.7425,5.7242,5.7074,5.6922,5.7055,5.7131,5.7131,5.7297,5.7407,5.7407,5.7407,5.7407,5.7407,5.7407,5.7407,5.7407,5.7074,5.6556,5.586,5.6248,5.6467,5.6488,5.6761,5.6922,5.6922,5.6922,5.6922,5.6922,5.6922,5.6922,5.6922,5.6922,5.6922,5.6922,5.7074,5.7131,5.715,5.7497,5.7605,5.7623,5.7707,5.7741,5.7741,5.7741,5.7741,5.7741,5.7741,5.7479,5.7131,5.7131,5.7278,5.7407,5.7407,5.7407,5.7407,5.7407,5.7497,5.7605,5.7605,5.7656,5.7741,5.7741,5.7741,5.7741,5.7741,5.7741,5.7741,5.7741,5.7741,5.7741,5.7741,5.7741,5.7741,5.7741,5.7741,5.7741,5.7741,5.7224,5.6961,5.7112,5.698,5.6922,5.6922,5.6922,5.6761,5.6488,5.6093,5.5872,5.5872,5.5872,5.5872,5.5872,5.5872,5.5872,0.0,5.8772,5.8476,5.8993,5.8721,5.8355,5.8355,5.8076,0.0,5.7792,5.7792,5.7775,5.7741,5.7741,5.7604,5.7254,5.7176,5.6998,5.6545,5.5836,5.5159,5.4538,5.4998,5.5382,5.5382,5.6034,5.6457,5.6457,5.6457,5.6457,5.6457,5.6457,5.6457,5.6457,5.5169,5.4466,5.4392,5.4446,5.4439,5.4439,5.4458,5.4485,5.4485,5.4485,5.4485,5.4485,5.4485,5.4485,5.4485,5.4485,5.4485,5.4538,5.5159,5.5382,5.5552,5.6742,5.7176,5.7234,5.7623,5.7741,5.7741,5.7741,5.7741,5.7741,5.7741,5.6623,5.5382,5.5382,5.5883,5.6457,5.6457,5.6457,5.6457,5.6457,5.685,5.7176,5.7176,5.7462,5.7741,5.7741,5.7741,5.7741,5.7741,5.7741,5.7741,5.7741,5.7741,5.7741,5.7741,5.7741,5.7741,5.7741,5.7741,5.7741,5.7741,5.574,5.4749,5.5358,5.4828,5.4485,5.4485,5.4485,5.4458,5.4439,5.4419,5.4392,5.4392,5.4392,5.4392,5.4392,5.4392,5.4392,5.8321,5.8113,5.7983,5.8189,5.8098,5.7951,5.7951,5.7822,5.7656,5.7425,5.7369,5.7275,5.6941,5.6481,5.6105,5.5951,5.56,5.5259,5.5052,5.4758,5.4493,5.4283,5.4439,5.46,5.46,5.4871,5.5061,5.5061,5.5061,5.5061,5.5061,5.5061,5.5061,5.5061,5.4527,5.4228,5.4228,5.4228,5.4228,5.4228,5.4228,5.4228,5.4228,5.4228,5.4228,5.4228,5.4228,5.4228,0.0,5.4228,5.4228,5.4255,5.4493,5.46,5.4653,5.5159,5.5333,5.5382,5.5494,5.5553,5.5553,5.5553,5.5553,5.5553,5.5553,5.5114,5.46,5.46,5.4819,5.5061,5.5061,5.5061,5.5061,5.5061,5.5194,5.5333,5.5333,5.5457,5.5553,5.5553,5.5553,5.5553,5.5553,5.5553,5.5553,5.5553,5.5553,5.5553,5.5553,5.5553,5.5553,5.5553,5.5553,5.5553,5.5553,5.4741,5.4303,5.4573,5.4392,5.4228,5.4228,5.4228,5.4228,5.4228,5.4228,5.4228,5.4228,5.4228,5.4228,5.4228,5.4228,5.4228,5.7775,5.7639,5.7587,5.7707,5.7621,5.7552,5.7552,5.7443,5.7219,5.6937,5.6694,5.6438,5.607,5.5403,5.4914,5.4914,5.452,5.4228,5.4228,5.4033,5.3858,5.3858,5.3629,5.3571,5.383,5.4089,5.4228,5.4228,5.4228,5.4228,5.4228,5.4228,5.3739,5.2598,5.2878,5.3062,5.3062,5.3367,5.3484,5.3484,5.3484,5.3484,5.3484,5.3484,5.3484,5.3484,5.3484,5.3484,5.3484,5.3484,5.3484,5.3513,5.3744,5.3858,5.3921,5.4145,5.4228,5.4228,5.4228,5.4125,5.4028,5.4193,5.4324,5.4393,5.429,5.3681,5.3122,5.3324,5.3795,5.4228,5.4228,5.4228,5.4228,5.4228,5.4228,5.4228,5.4228,5.4228,5.4228,5.4228,5.4228,5.4228,5.4228,5.4228,5.4228,5.4228,5.4228,5.4228,5.4228,5.4228,5.4228,5.4228,5.4228,5.4145,5.3892,5.3629,5.36,5.383,5.3629,5.3484,5.3484,5.3484,5.3484,5.3484,5.3484,5.3484,5.3484,5.3484,5.3484,5.3484,5.3484,5.3484,5.7604,5.7462,5.7234,5.7604,5.7407,5.7153,5.7153,5.676,5.6359,5.6359,5.573,5.5184,5.5184,5.4653,5.4228,5.4228,5.4228,5.4228,5.4228,5.3542,5.3073,5.3073,5.2365,5.2174,5.2983,5.3716,5.42,5.42,5.42,5.42,5.42,5.42,5.2568,4.9106,4.9971,5.0498,5.0498,5.1421,5.1883,5.1883,5.1883,5.1883,5.1883,5.1883,5.1883,5.1883,5.1883,5.1883,5.1883,5.1883,5.1883,5.1916,5.2738,5.3009,5.313,5.3921,5.42,5.42,5.42,5.3842,5.3478,5.4035,5.4434,5.4696,5.4269,5.2483,5.0641,5.1293,5.2811,5.42,5.42,5.42,5.42,5.42,5.42,5.42,5.42,5.42,5.42,5.42,5.42,5.42,5.42,5.42,5.42,5.42,5.4228,5.4228,5.4228,5.4228,5.4228,5.4228,5.42,5.3858,5.307,5.2333,5.2206,5.2949,5.2268,5.1883,5.1883,5.1883,5.1883,5.1883,5.1883,5.1883,5.1883,5.1883,5.1883,5.1883,5.1883,5.1883,5.6835,5.6703,5.6618,5.673,5.6703,5.661,5.661,5.607,5.555,5.555,5.5026,5.452,5.452,5.3915,5.343,5.343,5.2952,5.2583,5.2583,5.2397,5.198,5.1356,5.1085,5.1017,5.1255,5.0821,5.0549,5.0549,5.0549,5.0549,5.0549,5.0549,5.0061,4.9025,4.9285,4.9432,4.9432,4.9723,4.9867,4.9867,4.9867,4.9867,4.9867,4.9867,4.9867,4.9867,4.9867,4.9867,4.9867,4.9867,4.9867,4.9867,5.0089,5.0645,5.1223,5.0718,5.099,5.1522,5.0788,5.0418,5.0319,5.0484,5.0615,5.068,5.0549,5.0054,4.9505,4.9664,5.0131,5.0549,5.0549,5.0549,5.0549,5.0549,5.0549,5.0549,5.0549,5.0549,5.0549,5.0549,5.0549,5.0754,5.1522,5.1621,5.1849,5.2489,5.2583,5.2583,5.2583,5.2583,5.2583,5.2583,5.1358,5.0445,5.0198,4.9979,4.9943,5.0163,4.9979,4.9867,4.9867,4.9867,4.9867,4.9867,4.9867,4.9867,4.9867,4.9867,4.9867,4.9867,4.9867,4.9867,5.6001,5.5717,5.5523,5.5523,5.5523,5.5523,5.5523,5.5154,5.481,5.481,5.4276,5.3658,5.3202,5.2855,5.233,5.1555,5.1422,5.1219,5.0779,5.0744,5.0536,4.9971,4.9899,4.9899,4.9899,4.9359,4.8988,4.8988,4.8988,4.8619,4.7803,4.7764,4.7764,4.7764,4.8122,4.8353,4.8353,4.8801,4.8988,4.8988,4.8988,4.8988,4.8988,4.8988,4.8988,4.8988,4.8988,4.8988,4.8988,4.8988,4.8988,4.8988,4.8988,4.9359,4.9863,4.9211,4.9359,4.9827,4.9211,4.8826,4.8627,4.8889,4.8422,4.7764,4.7764,4.8006,4.8353,4.8353,4.8688,4.8988,4.8988,4.8988,4.8988,4.8988,4.8988,4.8988,4.8988,4.8988,4.8988,4.8988,4.8988,4.9174,4.9827,4.9899,5.0113,5.0675,5.0744,5.0744,5.0744,5.0744,5.0744,5.0744,4.9687,4.8988,4.8988,4.8988,4.8988,4.8988,4.8988,4.8988,4.8988,4.8988,4.8988,4.8988,4.8988,4.8988,4.8988,4.8988,4.8988,4.8988,4.8988,4.8988,5.5084,5.4679,5.4228,5.4228,5.4228,5.4228,5.4228,5.4173,5.4117,5.3999,5.3396,5.2514,5.149,5.1489,5.1018,4.9285,4.9791,5.0042,4.9137,4.8988,4.8951,4.8845,4.8838,4.8838,4.8838,4.8732,4.8732,4.8838,4.8732,4.7773,4.5625,4.554,4.554,4.554,4.6452,4.6939,4.6939,4.7868,4.836,4.836,4.836,4.8436,4.8543,4.8436,4.8436,4.8543,4.8436,4.8436,4.8543,4.8543,4.8581,4.8694,4.8694,4.8732,4.8838,4.8725,4.8732,4.8838,4.8725,4.8296,4.7936,4.8495,4.7409,4.5864,4.5864,4.6511,4.729,4.729,4.7998,4.8694,4.8694,4.8694,4.8694,4.8694,4.8694,4.8694,4.8694,4.8694,4.8694,4.8694,4.8694,4.8725,4.8838,4.8838,4.8876,4.8988,4.8988,4.8988,4.8988,4.8988,4.8807,4.8398,4.836,4.836,4.836,4.836,4.836,4.836,4.836,4.836,4.836,4.836,4.836,4.836,4.836,4.836,4.836,4.836,4.836,4.836,4.836,4.8436,5.4439,5.4303,5.4228,5.4228,5.4228,5.4228,5.4228,5.3778,5.3096,5.2287,5.1523,5.0747,4.9732,4.9583,4.9469,4.9063,4.9174,4.9248,4.9025,4.8988,4.8688,4.7881,4.7734,4.7734,4.7734,4.7039,4.6878,4.7725,4.6969,4.5496,4.3085,4.2977,4.2977,4.2977,4.3192,4.3326,4.3326,4.3538,4.367,4.367,4.367,4.4209,4.5114,4.4093,4.4209,4.5114,4.4093,4.4252,4.5185,4.5185,4.5693,4.6511,4.6511,4.705,4.7686,4.6837,4.705,4.7646,4.6837,4.6482,4.6382,4.6511,4.6252,4.5864,4.5864,4.6032,4.6211,4.6211,4.6376,4.6511,4.6511,4.6511,4.6511,4.6511,4.6511,4.6511,4.6511,4.6511,4.6511,4.6511,4.6511,4.6797,4.7646,4.7734,4.8006,4.8876,4.8988,4.8988,4.8988,4.8988,4.7612,4.4037,4.367,4.367,4.367,4.367,4.367,4.367,4.367,4.367,4.367,4.367,4.367,4.367,4.367,4.367,4.367,4.367,4.367,4.367,4.367,4.4209,5.3658,5.3096,5.2452,5.2452,5.2103,5.1717,5.1717,5.1391,5.0957,5.0413,5.0018,4.9469,4.846,4.865,4.8657,4.7686,4.792,4.8076,4.7567,4.7488,4.729,4.6756,4.6675,4.6441,4.5903,4.5342,4.4971,4.4943,4.4411,4.356,4.2267,4.2175,4.2175,4.2175,4.2175,4.2175,4.2175,4.2175,4.2175,4.2175,4.2175,4.2523,4.314,4.2477,4.2568,4.314,4.2477,4.2568,4.3185,4.3185,4.3543,4.4118,4.4118,4.4411,4.4857,4.4309,4.4454,4.4857,4.4309,4.4496,4.4942,4.4321,4.4118,4.4118,4.4118,4.4118,4.425,4.4856,4.5057,4.5186,4.5738,4.5484,4.5057,4.5057,4.4539,4.4118,4.4118,4.4118,4.4118,4.4118,4.4118,4.4265,4.4857,4.4943,4.5127,4.5657,4.574,4.574,4.574,4.574,4.4785,4.245,4.2175,4.2175,4.2175,4.2175,4.2175,4.2175,4.2175,4.2175,4.2175,4.2175,4.2175,4.2175,4.2175,4.2175,4.2175,4.2175,4.2175,4.2175,4.2175,4.2568,5.2643,5.1456,5.0287,5.0287,4.9646,4.8988,4.8988,4.8988,4.8951,4.8732,4.8725,4.8422,4.7369,4.7694,4.7616,4.5835,4.6111,4.6217,4.5342,4.5214,4.5214,4.5214,4.5214,4.4828,4.3865,4.3804,4.3347,4.2267,4.1805,4.1526,4.1526,4.1526,4.1526,4.1526,4.1526,4.1526,4.1526,4.1526,4.1526,4.1526,4.1526,4.1666,4.1878,4.1619,4.1666,4.1878,4.1619,4.1692,4.1878,4.1878,4.2017,4.2175,4.2175,4.2175,4.2175,4.2175,4.2175,4.2175,4.2175,4.2914,4.3598,4.2293,4.199,4.2175,4.2175,4.2175,4.2431,4.3481,4.3804,4.3998,4.5,4.4524,4.3804,4.3804,4.2959,4.2175,4.2175,4.2175,4.2175,4.2175,4.2175,4.2175,4.2175,4.2175,4.2175,4.2175,4.2175,4.2175,4.2175,4.1805,4.1526,4.1526,4.1526,4.1526,4.1526,4.1526,4.1526,4.1526,4.1526,4.1526,4.1526,4.1526,4.1526,4.1526,4.1526,4.1526,4.1526,4.1526,4.1526,4.1526,4.1526,4.1666,5.088,5.0046,4.9211,4.9211,4.91,4.8988,4.8988,4.8988,4.8725,4.7812,4.7646,4.733,4.6252,4.5342,4.4698,4.4378,4.3515,4.2832,4.2678,4.2678,4.2678,4.2678,4.2678,4.2587,4.2477,4.2431,4.2385,4.2175,4.0202,3.8958,3.8958,3.8958,3.8958,3.8958,3.8958,3.8958,3.8958,3.8958,3.8958,3.8958,3.8958,3.9573,4.0615,3.95,3.9573,4.0615,3.9475,3.9622,4.0663,4.0663,4.125,4.2175,4.2175,4.2175,4.2175,4.2175,4.2175,4.2175,4.2175,4.2293,4.2248,4.104,4.1344,4.2175,4.2175,4.2175,4.2221,4.2385,4.2431,4.2477,4.2632,4.2541,4.2431,4.2431,4.2312,4.2175,4.2175,4.2175,4.2175,4.2175,4.2175,4.2175,4.2175,4.2175,4.2175,4.2175,4.2175,4.2175,4.2175,4.0298,3.8958,3.8958,3.8958,3.8958,3.8958,3.8958,3.8958,3.8958,3.8958,3.8958,3.8958,3.8958,3.8958,3.8958,3.8958,3.8958,3.8958,3.8958,3.8958,3.8958,3.8958,3.9573,4.9682,4.8913,4.8114,4.8114,4.7686,4.725,4.725,4.725,4.712,4.6634,4.6057,4.544,4.4985,4.3882,4.3049,4.3049,4.2568,4.2175,4.2175,4.2175,4.2175,4.2175,4.2175,4.1924,4.125,4.1182,4.0872,4.0154,3.8337,3.7275,3.7275,3.7275,3.6917,3.6119,3.6865,3.7275,3.7275,3.8059,3.8485,3.8485,3.8485,3.8784,3.9304,3.8734,3.8784,3.9304,3.8734,3.8834,3.9329,3.9329,3.9622,4.0105,4.0105,4.0105,4.0105,4.0105,4.0105,4.0105,4.0105,4.0105,4.0009,3.95,3.9671,4.0105,4.0105,4.0105,4.025,4.0993,4.1182,4.1344,4.2017,4.1692,4.1182,4.1182,4.0634,4.0105,4.0105,4.0105,4.0105,4.0105,4.0105,4.0105,4.0105,4.0105,4.0105,4.0105,4.0105,3.9838,3.9007,3.7962,3.7275,3.7275,3.8009,3.8485,3.8485,3.8485,3.8485,3.8485,3.8485,3.8485,3.8485,3.8485,3.8485,3.8485,3.8485,3.8485,3.8485,3.8485,3.8485,3.8485,3.8485,3.8784,4.8612,4.7812,4.6969,4.6656,4.6015,4.5357,4.5,4.4957,4.4957,4.4957,4.4234,4.3643,4.3643,4.2595,4.1739,4.1739,4.1459,4.1271,4.1271,4.1271,4.1271,4.1271,4.1271,4.0919,4.0037,3.9965,3.923,3.7529,3.643,3.5784,3.5784,3.5784,3.5335,3.4276,3.526,3.5784,3.5784,3.6842,3.7377,3.7377,3.7377,3.7377,3.7377,3.7377,3.7377,3.7428,3.7807,3.7958,3.7958,3.8335,3.8485,3.8485,3.8485,3.8485,3.8485,3.8485,3.8485,3.8485,3.8485,3.8485,3.8485,3.8485,3.8485,3.8485,3.8485,3.8485,3.8685,3.9647,3.9965,4.0108,4.0988,4.0612,3.9965,3.9965,3.9156,3.8485,3.8485,3.8485,3.8385,3.8009,3.8234,3.8385,3.8009,3.8234,3.8485,3.8485,3.8184,3.7428,3.5992,3.5784,3.5784,3.5784,3.6739,3.7377,3.7377,3.7377,3.7377,3.7377,3.7377,3.7377,3.7377,3.7377,3.7377,3.7377,3.7377,3.7377,3.7377,3.7377,3.7377,3.7377,3.7377,3.7377,4.7528,4.6756,4.5696,4.4596,4.4246,4.3865,4.2659,4.2358,4.2358,4.2358,4.2312,4.2267,4.2267,4.1323,4.0519,4.0519,3.95,3.8685,3.8685,3.8685,3.8685,3.8685,3.8685,3.8685,3.8585,3.8585,3.7428,3.4648,3.4382,3.4329,3.4329,3.4329,3.4276,3.4222,3.4276,3.4329,3.4329,3.4361,3.4436,3.4436,3.4436,3.4436,3.4436,3.4436,3.4436,3.4489,3.5859,3.6482,3.6585,3.7908,3.8485,3.8485,3.8485,3.8485,3.8485,3.8485,3.8485,3.8485,3.8485,3.8485,3.8485,3.8485,3.8485,3.8485,3.8485,3.8485,3.8485,3.8585,3.8585,3.8585,3.8685,3.8635,3.8585,3.8585,3.8535,3.8485,3.8485,3.8485,3.8059,3.6688,3.7529,3.8059,3.6688,3.7604,3.8485,3.8485,3.7326,3.5963,3.4489,3.4329,3.4329,3.4329,3.4361,3.4436,3.4436,3.4436,3.4436,3.4436,3.4436,3.4436,3.4436,3.4436,3.4436,3.4436,3.4436,3.4436,3.4436,3.4436,3.4436,3.4436,3.4436,3.4436,4.5483,4.5043,4.4465,4.3185,4.2868,4.275,4.2267,4.2175,4.2175,4.2175,4.1579,4.104,4.104,4.0011,3.9181,3.9181,3.8784,3.8485,3.8485,3.7705,3.7122,3.7122,3.6275,3.5755,3.5755,3.5755,3.5335,3.4276,3.3383,3.284,3.284,3.284,3.2403,3.1465,3.2348,3.284,3.284,3.284,3.3329,3.4222,3.4222,3.4222,3.4222,3.4222,3.4222,3.4222,3.4755,3.4944,3.5102,3.6533,3.6585,3.5836,3.6739,3.6533,3.5859,3.6791,3.7122,3.7019,3.6067,3.5755,3.5755,3.5755,3.5755,3.5755,3.5755,3.6378,3.7122,3.7122,3.7756,3.8485,3.8485,3.8485,3.8485,3.8485,3.7807,3.7122,3.7122,3.6378,3.5575,3.505,3.5388,3.5598,3.505,3.5388,3.5755,3.5755,3.452,3.3437,3.2895,3.284,3.284,3.284,3.3632,3.4222,3.4222,3.4222,3.4222,3.4222,3.4222,3.4222,3.4222,3.4222,3.4222,3.4222,3.4222,3.4222,3.4222,3.4222,3.4222,3.4222,3.4222,3.4222,4.366,4.3481,4.3167,4.1905,4.1579,4.1485,4.1035,4.094,4.094,4.094,4.0324,3.9745,3.9745,3.9082,3.8485,3.8485,3.8485,3.8335,3.7857,3.6968,3.6171,3.5702,3.4786,3.4222,3.4222,3.3362,3.2765,3.2765,3.1908,3.1339,3.1339,3.1339,3.0948,2.9955,3.0836,3.1339,3.1339,3.1339,3.1818,3.2765,3.2765,3.2765,3.2765,3.2765,3.2765,3.2819,3.3254,3.347,3.3578,3.5072,3.505,3.4329,3.5283,3.5072,3.4329,3.526,3.5313,3.4861,3.4382,3.4222,3.4222,3.4222,3.4222,3.4222,3.4222,3.4838,3.565,3.565,3.6327,3.707,3.707,3.707,3.707,3.707,3.6327,3.565,3.565,3.4914,3.4062,3.3578,3.3901,3.4062,3.3578,3.3901,3.4222,3.4222,3.3416,3.2458,3.1485,3.1339,3.1339,3.1339,3.2183,3.2765,3.2765,3.2765,3.2765,3.2765,3.2765,3.2765,3.2765,3.2765,3.2765,3.2765,3.2765,3.2765,3.2765,3.2765,3.2765,3.2765,3.2765,3.2765,4.2129,4.2129,4.1832,4.0637,4.0375,4.0037,3.8784,3.8485,3.8485,3.8485,3.8485,3.8485,3.8485,3.8435,3.8435,3.8435,3.8385,3.7857,3.6482,3.6275,3.5702,3.4329,3.4115,3.4062,3.4062,3.1576,2.9955,2.9955,2.9955,2.9955,2.9955,2.9955,2.9955,2.9955,2.9955,2.9955,2.9955,2.9955,2.9955,2.9955,2.9955,2.9955,2.9955,2.9955,2.9955,3.0011,3.1394,3.2004,3.2094,3.3524,3.4115,3.4115,3.4115,3.4115,3.4062,3.4062,3.32,3.2204,3.3578,3.4062,3.4062,3.4062,3.4062,3.4062,3.4062,3.4115,3.4169,3.4169,3.4169,3.4222,3.4222,3.4222,3.4222,3.4222,3.4169,3.4169,3.4169,3.4115,3.3686,3.2259,3.3112,3.3632,3.2259,3.3167,3.4062,3.4062,3.4062,3.3091,3.0275,2.9955,2.9955,2.9955,2.9955,2.9955,2.9955,2.9955,2.9955,2.9955,2.9955,2.9955,2.9955,2.9955,2.9955,2.9955,2.9955,2.9955,2.9955,2.9955,2.9955,2.9955,2.9955,2.9955,4.1135,4.0924,4.0637,3.9353,3.9032,3.8933,3.8585,3.8485,3.8485,3.8485,3.8485,3.8485,3.8485,3.7655,3.6945,3.6945,3.6067,3.5283,3.4861,3.3901,3.3112,3.2731,3.1742,3.1096,3.1096,3.0387,2.9955,2.9955,2.9955,2.9955,2.9955,2.9955,2.9955,2.9955,2.9955,2.9955,2.9955,2.9955,2.9955,2.9955,2.9955,2.9955,2.9955,2.9955,2.9955,2.9955,3.035,3.05,3.0612,3.2094,3.2018,3.1207,3.2238,3.2039,3.1096,3.1096,3.0873,3.0556,3.0984,3.1096,3.1096,3.1096,3.1096,3.1096,3.1096,3.1873,3.2622,3.2622,3.3437,3.4222,3.4222,3.4222,3.4222,3.4222,3.3437,3.2622,3.2622,3.1873,3.0984,3.0612,3.0836,3.0984,3.0612,3.0817,3.1096,3.1096,3.1096,3.0817,3.0011,2.9955,2.9955,2.9955,2.9955,2.9955,2.9955,2.9955,2.9955,2.9955,2.9955,2.9955,2.9955,2.9955,2.9955,2.9955,2.9955,2.9955,2.9955,2.9955,2.9955,2.9955,2.9955,2.9955,3.9914,3.9598,3.9451,3.8685,3.8485,3.8485,3.8485,3.8485,3.8485,3.8485,3.8009,3.758,3.758,3.643,3.547,3.547,3.4755,3.4008,3.3416,3.2567,3.1893,3.1283,3.0443,2.9955,2.9955,2.9955,2.9955,2.9955,2.9955,2.9653,2.9026,2.8969,2.8665,2.8033,2.7975,2.7975,2.7975,2.7975,2.7975,2.7975,2.8665,2.8969,2.8969,2.9671,2.9955,2.9955,2.9955,2.9955,3.0011,3.0836,3.0668,3.0011,3.0836,3.0668,2.9955,2.9955,2.9955,2.9955,2.9955,2.9955,2.9955,2.9955,2.9955,2.9955,2.9955,3.05,3.1171,3.1171,3.1818,3.2437,3.2437,3.2437,3.2437,3.2437,3.1818,3.1171,3.1171,3.05,2.9955,2.9955,2.9955,2.9955,2.9955,2.9955,2.9728,2.9084,2.8378,2.7975,2.7975,2.7975,2.7975,2.7975,2.7975,2.7975,2.7975,2.8608,2.8969,2.8969,2.9539,2.9955,2.9955,2.9955,2.9955,2.9955,2.9955,2.9955,2.9955,2.9955,2.9955,2.9955,2.9955,2.9255,3.876,3.8485,3.8485,3.8485,3.8485,3.8485,0.0,3.8485,3.8485,3.8485,3.7478,3.6585,3.6585,3.544,3.4436,3.4222,3.4062,3.347,3.2039,3.1838,3.1339,3.0068,2.9955,2.9955,2.9955,2.9955,2.9842,2.9653,2.9671,2.8951,2.7454,2.7338,2.6681,2.5287,2.5287,2.5287,2.5287,2.5287,2.5287,2.5287,2.6681,2.7338,2.7396,2.8798,2.9425,2.9425,2.9615,2.9671,2.9653,2.9842,2.9955,2.9955,2.9955,2.9955,2.9955,2.9955,2.9955,2.9955,2.9955,2.9955,2.9955,2.9955,2.9955,2.9955,2.9955,2.9955,2.9955,2.9955,2.9955,2.9955,2.9955,2.9955,2.9955,2.9955,2.9955,2.9955,2.9955,2.9955,2.9955,2.9955,2.9955,2.9955,2.9955,2.9785,2.9141,2.757,2.6154,2.5287,2.5287,2.5287,2.5287,2.5287,2.5287,2.5287,2.5287,2.6506,2.7338,2.7338,2.8665,2.9425,2.9425,2.9425,2.9482,2.9671,2.9482,2.9482,2.9671,2.9482,2.9425,2.9425,2.9425,2.7917,0.0,0.0,0.0,0.0,0.0,0.0,0.0,3.8485,3.8485,3.8485,3.8284,3.8083,3.8083,3.6893,3.5545,3.4436,3.3275,3.1983,3.0575,3.0331,3.0237,2.9955,2.9955,2.9955,2.9955,2.9955,2.9425,2.8148,2.8033,2.7379,2.5818,2.5684,2.5582,2.5287,2.5287,2.5287,2.5287,2.5287,2.5287,2.5287,2.5582,2.5684,2.5759,2.6037,2.6171,2.6213,2.7495,2.8033,2.8148,2.9425,2.9955,2.9955,2.9955,2.9955,2.9955,2.9955,2.9955,2.9955,2.9955,2.9955,2.9955,2.9955,2.9955,2.9955,2.9955,2.9955,2.9955,2.9955,2.9955,2.9955,2.9955,2.9955,2.9955,2.9955,2.9955,2.9955,2.9955,2.9955,2.9955,2.9955,2.9955,2.9955,2.9955,2.8912,2.7512,2.5919,2.5464,2.5287,2.5287,2.5287,2.5287,2.5287,2.5287,2.5287,2.5287,2.5523,2.5684,2.5684,2.5978,2.6171,2.6171,2.6171,2.6739,2.8033,2.6797,2.6814,2.8033,2.6797,2.6171,2.6171,2.6171,2.5877,0.0,0.0,0.0,0.0,0.0,0.0,0.0,0.0,0.0,0.0,0.0,3.7428,3.7428,0.0,3.5072,3.4329,3.3004,3.1838,3.1116,3.0387,2.9955,2.9955,2.9955,2.9955,2.9955,2.9255,2.8435,2.7668,2.6873,2.5743,2.4202,2.4083,2.3724,2.2972,2.2912,2.2912,2.2912,2.2912,2.2912,2.2972,2.3739,2.4083,2.4142,2.4931,2.5287,2.5287,2.6112,2.6873,2.7668,2.8435,2.9255,2.9955,2.9955,2.9955,2.9955,2.9955,2.9955,2.9955,2.9955,2.9955,2.9955,2.9955,2.9955,2.9955,2.9955,2.9955,2.9955,2.9955,2.9955,2.9955,2.9955,2.9955,2.9955,2.9955,2.9955,2.9955,2.9955,2.9955,2.9955,2.9955,2.9955,2.9653,2.8912,2.6839,2.5018,2.4202,2.3439,2.2912,2.2912,2.2912,2.2912,2.2912,2.2912,2.2912,2.2912,2.2912,2.3259,2.4083,2.4856,2.5287,2.5287,2.5287,2.5641,2.6389,2.57,2.5641,2.6447,2.5641,2.5287,2.5228,2.3694,2.2912,0.0,0.0,0.0,0.0,0.0,0.0,0.0,0.0,0.0,0.0,0.0,0.0,0.0,0.0,0.0,3.4702,3.3632,3.2731,3.2149,3.106,3.0331,3.0331,3.0125,2.9955,2.9955,2.8493,2.7495,2.7147,2.5684,2.4142,2.2596,2.2475,2.1882,2.0652,2.0591,2.0591,2.0591,2.0591,2.0591,2.0652,2.1882,0.0,2.2535,2.3799,2.4396,2.4396,2.4991,2.5995,2.7205,2.7802,2.8779,2.9955,2.9955,2.9955,2.9955,2.9955,2.9955,2.9955,2.9955,2.9955,2.9955,2.9955,2.9955,2.9955,2.9955,2.9955,0.0,2.9955,2.9955,2.9955,2.9955,2.9955,2.9955,2.9955,2.9728,2.9539,2.9898,2.9728,2.9501,2.9501,2.9501,2.8951,2.7454,2.4781,2.2823,2.2521,2.1409,2.0591,2.0591,2.0591,2.0591,2.0591,2.0591,2.0591,2.0591,2.0591,2.1117,2.2414,2.3679,2.4396,2.4396,2.4396,2.4515,2.4797,2.4515,2.4515,2.4813,2.4515,2.4396,2.4277,2.1774,2.0591,0.0,0.0,0.0,0.0,0.0,0.0,0.0,0.0,0.0,0.0,0.0,0.0,0.0,0.0,0.0,0.0,3.5963,3.4944,3.2423,3.1948,3.1838,3.1838,3.0724,2.9955,2.9955,2.8493,2.703,2.5641,2.4083,2.2535,2.0946,2.0885,0.0,0.0,0.0,2.0591,2.0591,2.0591,2.0591,2.0591,2.0762,2.0885,2.0885,2.1069,2.113,2.13,2.4038,2.5346,2.5759,2.855,2.9785,2.9955,2.9955,2.9955,2.9955,2.9955,2.9955,2.9955,2.9955,0.0,0.0,2.9955,2.9955,2.9955,2.9955,2.9955,2.9955,2.9955,2.9955,2.9955,2.9955,2.9955,2.9955,2.9955,2.8837,2.8263,2.9671,2.8855,2.7859,2.7859,2.7859,2.7379,2.5802,2.4083,2.2475,2.1055,2.0701,2.0591,2.0591,2.0591,2.0591,2.0591,2.0591,0.0,2.0591,2.0591,2.0714,2.0823,2.1007,2.113,2.113,2.113,2.1774,2.3184,2.1822,2.1835,2.3169,2.1835,2.113,2.113,2.0762,2.0591,0.0,0.0,0.0,0.0,0.0,0.0,0.0,0.0,0.0,0.0,0.0,0.0,0.0,0.0,0.0,0.0,3.6917,3.5911,3.4755,3.3847,3.3004,3.2149,3.0836,2.9615,2.8683,2.7147,2.5625,2.4023,2.2489,2.13,2.0652,2.0591,2.0591,2.0591,2.0591,2.0591,2.0591,2.0591,2.0591,2.0591,2.0591,2.0591,2.0591,2.0591,2.1117,2.199,2.3364,2.4975,2.6756,2.8033,2.9141,2.9955,0.0,0.0,0.0,0.0,2.9955,2.9955,2.9955,2.9955,2.9955,2.9955,2.9955,2.9955,2.9955,2.9955,2.9955,2.9955,2.9955,2.9955,2.9955,2.9955,2.9955,2.9955,2.9425,2.9141,2.9785,2.9425,2.8665,2.7784,2.7628,0.0,2.3153,2.2018,2.1361,2.0701,2.0591,2.0591,2.0591,2.0591,2.0591,2.0591,2.0591,2.0591,2.0591,2.0591,0.0,0.0,0.0,2.0591,2.0591,2.0591,0.0,0.0,0.0,2.0946,2.1592,2.0946,0.0,0.0,2.0591,2.0591,0.0,0.0,0.0,0.0,0.0,0.0,0.0,0.0,0.0,0.0,0.0,0.0,0.0,0.0,0.0,0.0,3.7604,3.6791,3.643,3.5125,3.3686,3.2279,3.0836,2.9312,2.7744,2.6154,2.4619,2.3049,2.147,2.0591,2.0591,2.0591,2.0591,2.0591,2.0591,2.0591,2.0591,2.0591,2.0591,2.0591,2.0591,2.0591,2.0591,2.0591,2.147,2.2929,2.3349,2.5137,2.7628,2.809,2.8894,2.9955,2.9955,2.9955,2.9955,2.9955,2.9955,2.9955,2.9955,2.9955,2.9955,2.9955,2.9955,2.9955,2.9955,2.9955,2.9955,2.9955,2.9955,2.9955,2.9955,2.9955,2.9955,2.9955,2.9596,2.9312,2.9312,2.8969,2.8188,2.6605,2.6313,2.5077,2.1239,2.0591,2.0591,2.0591,2.0591,2.0591,2.0591,2.0591,2.0591,2.0591,2.0591,2.0591,2.0591,2.0591,2.0591,2.0591,2.0591,2.0591,2.0591,2.0591,2.0591,2.0591,2.0591,2.0591,0.0,0.0,0.0,0.0,0.0,0.0,0.0,0.0,0.0,0.0,0.0,0.0,0.0,0.0,0.0,0.0,0.0,0.0,0.0,0.0,0.0,0.0,0.0,0.0,3.6533,3.5125,3.3686,3.2279,3.0836,2.9312,2.7744,2.6154,2.4619,2.3049,2.147,2.0591,2.0591,2.0591,2.0591,2.0591,2.0591,2.0591,2.0591,2.0591,2.0591,2.0591,2.0591,2.0591,2.0591,2.0591,2.147,2.2989,2.45,2.6095,2.7744,2.9255,2.9898,2.9955,2.9955,2.9955,2.9955,2.9955,2.9955,2.9955,2.9955,2.9955,2.9955,2.9955,2.9955,2.9955,2.9955,2.9955,2.9955,2.9955,2.9955,2.9955,2.9955,2.9955,2.9955,2.9955,2.8779,2.7686,2.7686,2.6522,2.4975,2.3349,2.3064,2.2521,2.0885,2.0591,2.0591,2.0591,2.0591,0.0,2.0591,2.0591,2.0591,2.0591,2.0591,2.0591,2.0591,2.0591,2.0591,2.0591,2.0591,2.0591,2.0591,2.0591,2.0591,2.0591,2.0591,2.0591,2.0591,0.0,0.0,0.0,0.0,0.0,0.0,0.0,0.0,0.0,0.0,0.0,0.0,0.0,0.0,0.0,0.0,0.0,0.0,0.0,0.0,0.0,0.0,0.0,0.0,3.5125,3.3686,3.2279,3.0836,2.8894,2.6271,2.6506,2.533,2.1653,2.1882,2.1714,2.0652,2.0591,2.0591,2.0591,2.0591,2.0591,2.0591,2.0591,2.0591,2.0591,2.0591,2.0591,2.0591,2.0591,2.2018,2.45,2.505,2.6739,2.9198,2.9728,2.9955,2.9955,2.9955,2.9955,2.9955,2.9955,2.9955,2.9955,2.9955,2.9955,2.9955,2.9955,2.9955,2.9955,2.9955,2.9955,2.9955,2.9955,2.9955,2.9955,2.9955,2.9955,2.9955,2.9955,2.874,2.7628,2.7628,2.6405,2.4797,2.3229,2.2125,2.1239,2.0714,2.0591,2.0591,2.0591,2.0591,2.0591,2.0591,2.0591,2.0591,2.0591,2.0591,2.0591,2.0591,2.0591,2.0591,2.0591,2.0591,2.0591,2.0591,2.0591,2.0591,2.0591,2.0591,2.0591,2.0591,0.0,0.0,0.0,0.0,0.0,0.0,0.0,0.0,0.0,0.0,0.0,0.0,0.0,0.0,0.0,0.0,0.0,0.0,0.0,0.0,0.0,0.0,0.0,0.0,0.0,0.0,3.2314,3.1283,0.0,2.6389,2.6506,2.5271,2.1714,2.1822,2.1653,2.0652,2.0591,2.0591,2.0591,2.0591,2.0591,2.0591,2.0591,2.0591,2.0591,2.0591,2.0591,2.0591,2.0591,2.2018,2.45,2.505,2.6739,2.9141,2.9728,2.9596,2.9084,2.9084,2.8779,2.8321,2.8912,2.9084,2.9198,2.9728,2.9955,2.9955,2.9955,2.9558,2.9084,2.9084,2.8722,2.8378,2.8951,2.9084,2.9255,2.9785,2.9955,2.9955,2.9955,2.9141,2.8148,2.703,2.5995,2.4797,2.3229,2.1639,2.0591,2.0591,2.0591,2.0591,2.0591,2.0591,2.0591,2.0591,2.0591,2.0591,2.0591,2.0591,2.0591,2.0591,2.0591,2.0591,2.0591,2.0024,1.9962,2.0591,2.0024,1.9715,1.9715,2.0078,1.9962,0.0,0.0,0.0,0.0,0.0,0.0,0.0,0.0,0.0,0.0,0.0,0.0,0.0,0.0,0.0,0.0,0.0,0.0,0.0,0.0,0.0,0.0,0.0,0.0,0.0,0.0,0.0,3.2423,3.2059,0.0,0.0,0.0,0.0,2.3184,2.1653,2.0823,2.0701,2.0652,2.0652,2.0701,2.0701,2.0762,2.0823,2.0823,2.0823,2.0823,2.0823,2.0823,2.0837,2.0762,2.1592,2.3229,2.4678,2.6213,2.7859,2.9255,2.8969,2.7628,2.7512,2.6564,2.5464,2.6914,2.7495,2.7668,2.9255,2.9842,2.9842,2.9842,2.8837,2.7668,2.7611,2.6622,0.0,0.0,2.7668,2.7975,2.9539,2.9898,2.9842,2.9898,2.9898,2.9026,2.6037,2.5287,2.4678,2.3244,2.17,2.0714,2.0652,0.0,2.0468,2.0468,2.0468,2.0468,2.0468,2.0529,2.0591,2.0468,2.0468,2.0455,2.0332,2.0345,2.0345,2.0345,1.8836,1.8649,2.027,1.8836,1.7941,1.7919,1.8901,0.0,0.0,0.0,0.0,0.0,0.0,0.0,0.0,0.0,0.0,0.0,0.0,0.0,0.0,0.0,0.0,0.0,0.0,0.0,0.0,0.0,0.0,0.0,0.0,0.0,0.0,3.6354,3.526,3.2423,3.2059,3.0909,0.0,0.0,0.0,0.0,0.0,0.0,2.2414,2.1239,2.1117,2.2293,2.2354,2.2897,2.4038,2.4098,2.4098,2.4098,2.4098,2.4098,2.4038,2.2897,2.3828,2.6372,2.5566,2.6797,2.9255,2.8493,2.7975,2.7495,2.633,2.5641,2.5287,2.5684,2.5877,2.6095,2.7686,2.8205,2.8205,2.8205,2.8722,2.9141,2.7975,0.0,0.0,0.0,0.0,2.7975,2.9539,2.9084,2.8493,2.9671,2.9026,2.7975,2.7147,2.5196,2.3424,2.2989,2.2581,2.1943,2.0823,1.9529,0.0,1.8711,1.8711,1.8711,1.8711,1.9838,2.0085,1.8836,1.8711,1.8202,1.692,1.6858,1.6858,1.6858,1.643,1.6419,1.6795,1.643,1.6076,1.5787,0.0,0.0,0.0,0.0,0.0,0.0,0.0,0.0,0.0,0.0,0.0,0.0,0.0,0.0,0.0,0.0,0.0,0.0,0.0,0.0,0.0,0.0,0.0,0.0,0.0,0.0,0.0,3.727,3.6455,3.421,3.3955,3.2798,0.0,0.0,0.0,0.0,0.0,0.0,0.0,0.0,0.0,2.3903,2.3963,2.4381,2.5287,2.5287,2.5287,2.5287,2.5287,2.5287,2.5228,2.4381,2.49,2.6581,2.6405,2.7263,2.8855,2.7975,2.678,2.5475,0.0,0.0,0.0,0.0,2.4262,2.4559,2.6856,2.7628,2.7744,2.8378,0.0,0.0,0.0,0.0,0.0,0.0,0.0,2.7802,2.8665,2.8779,2.8855,2.9728,2.9255,2.8435,2.7744,2.5137,2.2943,2.2943,2.2414,2.1653,2.0762,1.9208,0.0,0.0,0.0,1.8089,1.8089,1.8898,1.9146,1.8214,1.7391,1.6555,1.5602,1.5539,1.5539,1.5539,1.4836,1.4773,1.5539,1.4676,1.4089,0.0,0.0,0.0,0.0,0.0,0.0,0.0,0.0,0.0,0.0,0.0,0.0,0.0,0.0,0.0,0.0,0.0,0.0,0.0,0.0,0.0,0.0,0.0,0.0,0.0,0.0,0.0,0.0,0.0,3.794,3.6518,0.0,0.0,0.0,0.0,0.0,0.0,0.0,0.0,0.0,0.0,0.0,0.0,0.0,2.57,2.5877,2.5877,2.5877,2.5877,2.57,2.5582,2.5566,2.5168,2.5228,2.5641,2.7222,0.0,2.7859,2.7454,0.0,0.0,0.0,0.0,0.0,0.0,0.0,0.0,0.0,0.0,0.0,0.0,0.0,0.0,0.0,0.0,0.0,0.0,0.0,0.0,0.0,0.0,2.9238,2.9293,2.9482,2.9199,2.7652,2.5216,2.3156,2.28,2.1586,2.0626,0.0,0.0,0.0,0.0,0.0,0.0,1.7766,1.7964,1.8027,1.7766,1.6241,1.5151,1.4909,1.4909,1.4909,1.4909,1.3515,1.3299,1.4761,1.3252,0.0,0.0,0.0,0.0,0.0,0.0,0.0,0.0,0.0,0.0,0.0,0.0,0.0,0.0,0.0,0.0,0.0,0.0,0.0,0.0,0.0,0.0,0.0,0.0,0.0,0.0,0.0,0.0,0.0,0.0,0.0,0.0,0.0,0.0,0.0,0.0,0.0,0.0,0.0,0.0,0.0,0.0,0.0,0.0,0.0,0.0,0.0,0.0,0.0,0.0,2.7802,2.7205,2.7106,2.4544,2.4722,2.7263,2.8855,2.9539,2.9312,2.6739,0.0,0.0,0.0,0.0,0.0,0.0,0.0,0.0,0.0,0.0,0.0,0.0,0.0,0.0,0.0,0.0,0.0,0.0,0.0,0.0,0.0,0.0,2.5537,2.5963,2.7106,2.762,2.6161,0.0,0.0,0.0,0.0,0.0,0.0,0.0,0.0,0.0,0.0,0.0,1.6178,1.7192,1.7516,1.6116,1.4457,1.2879,1.1503,1.1374,1.1374,1.1374,1.1117,1.0934,0.0,0.0,0.0,0.0,0.0,0.0,0.0,0.0,0.0,0.0,0.0,0.0,0.0,0.0,0.0,0.0,0.0,0.0,0.0,0.0,0.0,0.0,0.0,0.0,0.0,0.0,0.0,0.0,0.0,0.0,0.0,0.0,0.0,0.0,0.0,0.0,0.0,0.0,0.0,0.0,0.0,0.0,0.0,0.0,0.0,0.0,0.0,0.0,0.0,0.0,0.0,0.0,0.0,0.0,0.0,0.0,0.0,0.0,2.8722,2.8722,0.0,0.0,0.0,0.0,0.0,0.0,0.0,0.0,0.0,0.0,0.0,0.0,0.0,0.0,0.0,0.0,0.0,0.0,0.0,0.0,0.0,0.0,0.0,0.0,0.0,0.0,0.0,0.0,0.0,0.0,0.0,0.0,0.0,0.0,0.0,0.0,0.0,0.0,0.0,0.0,1.6942,1.6806,1.643,1.5665,1.326,1.1367,1.0552,1.0487,1.0487,1.0487,1.0278,0.0,0.0,0.0,0.0,0.0,0.0,0.0,0.0,0.0,0.0,0.0,0.0,0.0,0.0,0.0,0.0,0.0,0.0,0.0,0.0,0.0,0.0,0.0,0.0,0.0,0.0,0.0,0.0,0.0,0.0,0.0,0.0,0.0,0.0,0.0,0.0,0.0,0.0,0.0,0.0,0.0,0.0,0.0,0.0,0.0,0.0,0.0,0.0,0.0,0.0,0.0,0.0,0.0,0.0,0.0,0.0,0.0,0.0,0.0,2.8608,2.809,0.0,0.0,0.0,0.0,0.0,0.0,0.0,0.0,0.0,0.0,0.0,0.0,0.0,0.0,0.0,0.0,0.0,0.0,0.0,0.0,0.0,0.0,0.0,0.0,0.0,0.0,0.0,0.0,0.0,0.0,0.0,0.0,0.0,0.0,0.0,0.0,0.0,0.0,0.0,0.0,1.8151,1.6618,1.5539,1.5539,1.2512,1.0487,1.0487,1.0487,1.0487,1.0487,1.014,0.0,0.0,0.0,0.0,0.0,0.0,0.0,0.0,0.0,0.0,0.0,0.0,0.0,0.0,0.0,0.0,0.0,0.0,0.0,0.0,0.0,0.0,0.0,0.0,0.0,0.0,0.0,0.0,0.0,0.0,0.0,0.0,0.0,0.0,0.0,0.0,0.0,0.0,0.0,0.0,0.0,0.0,0.0,0.0,0.0,0.0,0.0,0.0,0.0,0.0,0.0,0.0,0.0,0.0,0.0,0.0,0.0,0.0,0.0,0.0,0.0,0.0,0.0,0.0,0.0,0.0,0.0,0.0,0.0,0.0,0.0,0.0,0.0,0.0,0.0,0.0,0.0,0.0,0.0,0.0,0.0,0.0,0.0,0.0,0.0,0.0,0.0,0.0,0.0,0.0,0.0,0.0,0.0,0.0,0.0,0.0,0.0,0.0,0.0,0.0,0.0,1.8276,1.6618,1.5539,1.5539,1.2512,1.0487,1.0487,1.0487,1.0487,1.0487,0.0,0.0,0.0,0.0,0.0,0.0,0.0,0.0,0.0,0.0,0.0,0.0,0.0,0.0,0.0,0.0,0.0,0.0,0.0,0.0,0.0,0.0,0.0,0.0,0.0,0.0,0.0,0.0,0.0,0.0,0.0,0.0,0.0,0.0,0.0,0.0,0.0,0.0,0.0,0.0,0.0,0.0,0.0,0.0,0.0,0.0,0.0,0.0,0.0,0.0,0.0,0.0,0.0,0.0,0.0,0.0,0.0,0.0,0.0,0.0,0.0,0.0,0.0,0.0,0.0,0.0,0.0,0.0,0.0,0.0,0.0,0.0,0.0,0.0,0.0,0.0,0.0,0.0,0.0,0.0,0.0,0.0,0.0,0.0,0.0,0.0,0.0,0.0,0.0,0.0,0.0,0.0,0.0,0.0,0.0,0.0,0.0,0.0,0.0,0.0,0.0,0.0,1.9603,1.7244,1.5539,1.5539,1.2512,1.0487,1.0487,1.0487,1.0408,1.0159,0.0,0.0,0.0,0.0,0.0,0.0,0.0,0.0,0.0,0.0,0.0,0.0,0.0,0.0,0.0,0.0,0.0,0.0,0.0,0.0,0.0,0.0,0.0,0.0,0.0,0.0,0.0,0.0,0.0,0.0,0.0,0.0,0.0,0.0,0.0,0.0,0.0,0.0,0.0,0.0,0.0,0.0,0.0,0.0,0.0,0.0,0.0,0.0,0.0,0.0,0.0,0.0,0.0,0.0,0.0,0.0,0.0,0.0,0.0,0.0,0.0,0.0,0.0,0.0,0.0,0.0,0.0,0.0,0.0,0.0,0.0,0.0,0.0,0.0,0.0,0.0,0.0,0.0,0.0,0.0,0.0,0.0,0.0,0.0,0.0,0.0,0.0,0.0,0.0,0.0,0.0,0.0,0.0,0.0,0.0,0.0,0.0,0.0,0.0,0.0,0.0,0.0,2.0513,1.8066,1.6304,1.6304,1.3269,1.1239,1.1239,1.0803,1.0355,0.9933,0.0,0.0,0.0,0.0,0.0,0.0,0.0,0.0,0.0,0.0,0.0,0.0,0.0,0.0,0.0,0.0,0.0,0.0,0.0,0.0,0.0,0.0,0.0,0.0,0.0,0.0,0.0,0.0,0.0,0.0,0.0,0.0,0.0,0.0,0.0,0.0,0.0,0.0,0.0,0.0,0.0,0.0,0.0,0.0,0.0,0.0,0.0,0.0,0.0,0.0,0.0,0.0,0.0,0.0,0.0,0.0,0.0,0.0,0.0,0.0,0.0,0.0,0.0,0.0,0.0,0.0,0.0,0.0,0.0,0.0,0.0,0.0,0.0,0.0,0.0,0.0,0.0,0.0,0.0,0.0,0.0,0.0,0.0,0.0,0.0,0.0,0.0,0.0,0.0,0.0,0.0,0.0,0.0,0.0,0.0,0.0,0.0,0.0,0.0,0.0,0.0,0.0,2.0513,1.9084,1.8027,1.8027,1.5025,1.2998,1.2998,1.1431,1.0355,0.0,0.0,0.0,0.0,0.0,0.0,0.0,0.0,0.0,0.0,0.0,0.0,0.0,0.0,0.0,0.0,0.0,0.0,0.0,0.0,0.0,0.0,0.0,0.0,0.0,0.0,0.0,0.0,0.0,0.0,0.0,0.0,0.0,0.0,0.0,0.0,0.0,0.0,0.0,0.0,0.0,0.0,0.0,0.0,0.0,0.0,0.0,0.0,0.0,0.0,0.0,0.0,0.0,0.0,0.0,0.0,0.0,0.0,0.0,0.0,0.0,0.0,0.0,0.0,0.0,0.0,0.0,0.0,0.0,0.0,0.0,0.0,0.0,0.0,0.0,0.0,0.0,0.0,0.0,0.0,0.0,0.0,0.0,0.0,0.0,0.0,0.0,0.0,0.0,0.0,0.0,0.0,0.0,0.0,0.0,0.0,0.0,0.0,0.0,0.0,0.0,0.0,0.0,2.0461,1.9146,1.8089,1.8089,1.6116,1.4773,1.4773,1.3835,1.273,1.1469,0.0,0.0,0.0,0.0,0.0,0.0,0.0,0.0,0.0,0.0,0.0,0.0,0.0,0.0,0.0,0.0,0.0,0.0,0.0,0.0,0.0,0.0,0.0,0.0,0.0,0.0,0.0,0.0,0.0,0.0,0.0,0.0,0.0,0.0,0.0,0.0,0.0,0.0,0.0,0.0,0.0,0.0,0.0,0.0,0.0,0.0,0.0,0.0,0.0,0.0,0.0,0.0,0.0,0.0,0.0,0.0,0.0,0.0,0.0,0.0,0.0,0.0,0.0,0.0,0.0,0.0,0.0,0.0,0.0,0.0,0.0,0.0,0.0,0.0,0.0,0.0,0.0,0.0,0.0,0.0,0.0,0.0,0.0,0.0,0.0,0.0,0.0,0.0,0.0,0.0,0.0,0.0,0.0,0.0,0.0,0.0,0.0,0.0,0.0,0.0,0.0,0.0,0.0,1.9516,1.9022,1.9022,1.7505,1.6492,1.6492,1.5329,1.4104,1.2923,0.0,0.0,0.0,0.0,0.0,0.0,0.0,0.0,0.0,0.0,0.0,0.0,0.0,0.0,0.0,0.0,0.0,0.0,0.0,0.0,0.0,0.0,0.0,0.0,0.0,0.0,0.0,0.0,0.0,0.0,0.0,0.0,0.0,0.0,0.0,0.0,0.0,0.0,0.0,0.0,0.0,0.0,0.0,0.0,0.0,0.0,0.0,0.0,0.0,0.0,0.0,0.0,0.0,0.0,0.0,0.0,0.0,0.0,0.0,0.0,0.0,0.0,0.0,0.0,0.0,0.0,0.0,0.0,0.0,0.0,0.0,0.0,0.0,0.0,0.0,0.0,0.0,0.0,0.0,0.0,0.0,0.0,0.0,0.0,0.0,0.0,0.0,0.0,0.0,0.0,0.0,0.0,0.0,0.0,0.0,0.0,0.0,0.0,0.0,0.0,0.0,0.0,0.0,2.0407,2.0762,2.0762,1.927,1.8276,1.8276,1.6154,1.4731,1.4372,1.3849,0.0,0.0,0.0,0.0,0.0,0.0,0.0,0.0,0.0,0.0,0.0,0.0,0.0,0.0,0.0,0.0,0.0,0.0,0.0,0.0,0.0,0.0,0.0,0.0,0.0,0.0,0.0,0.0,0.0,0.0,0.0,0.0,0.0,0.0,0.0,0.0,0.0,0.0,0.0,0.0,0.0,0.0,0.0,0.0,0.0,0.0,0.0,0.0,0.0,0.0,0.0,0.0,0.0,0.0,0.0,0.0,0.0,0.0,0.0,0.0,0.0,0.0,0.0,0.0,0.0,0.0,0.0,0.0,0.0,0.0,0.0,0.0,0.0,0.0,0.0,0.0,0.0,0.0,0.0,0.0,0.0,0.0,0.0,0.0,0.0,0.0,0.0,0.0,0.0,0.0,0.0,0.0,0.0,0.0,0.0,0.0,0.0,0.0,0.0,0.0,0.0,0.0,2.2683,2.2414,2.2414,2.0981,2.0024,2.0024,1.8699,1.7323,1.6211,1.5175,0.0,0.0,0.0,0.0,0.0,0.0,0.0,0.0,0.0,0.0,0.0,0.0,0.0,0.0,0.0,0.0,0.0,0.0,0.0,0.0,0.0,0.0,0.0,0.0,0.0,0.0,0.0,0.0,0.0,0.0,0.0,0.0,0.0,0.0,0.0,0.0,0.0,0.0,0.0,0.0,0.0,0.0,0.0,0.0,0.0,0.0,0.0,0.0,0.0,0.0,0.0,0.0,0.0,0.0,0.0,0.0,0.0,0.0,0.0,0.0,0.0,0.0,0.0,0.0,0.0,0.0,0.0,0.0,0.0,0.0,0.0,0.0,0.0,0.0,0.0,0.0,0.0,0.0,0.0,0.0,0.0,0.0,0.0,0.0,0.0,0.0,0.0,0.0,0.0,0.0,0.0,0.0,0.0,0.0,0.0,0.0,0.0,0.0,0.0,0.0,0.0,0.0,2.3771,2.3031,2.293,2.2186,2.1653,2.1653,2.0483,1.9716,1.9661,1.8438,0.0,0.0,0.0,0.0,0.0,0.0,0.0,0.0,0.0,0.0,0.0,0.0,0.0,0.0,0.0,0.0,0.0,0.0,0.0,0.0,0.0,0.0,0.0,0.0,0.0,0.0,0.0,0.0,0.0,0.0,0.0,0.0,0.0,0.0,0.0,0.0,0.0,0.0,0.0,0.0,0.0,0.0,0.0,0.0,0.0,0.0,0.0,0.0,0.0,0.0,0.0,0.0,0.0,0.0,0.0,0.0,0.0,0.0,0.0,0.0,0.0,0.0,0.0,0.0,0.0,0.0,0.0,0.0,0.0,0.0,0.0,0.0,0.0,0.0,0.0,0.0,0.0,0.0,0.0,0.0,0.0,0.0,0.0,0.0,0.0,0.0,0.0,0.0,0.0,0.0,0.0,0.0,0.0,0.0,0.0,0.0,0.0,0.0,0.0,0.0,0.0,0.0,0.0,2.3949,2.3541,2.335,2.326,2.3111,2.1876,2.169,2.2853,0.0,0.0,0.0,0.0,0.0,0.0,0.0,0.0,0.0,0.0,0.0,0.0,0.0,0.0,0.0,0.0,0.0,0.0,0.0,0.0,0.0,0.0,0.0,0.0,0.0,0.0,0.0,0.0,0.0,0.0,0.0,0.0,0.0,0.0,0.0,0.0,0.0,0.0,0.0,0.0,0.0,0.0,0.0,0.0,0.0,0.0,0.0,0.0,0.0,0.0,0.0,0.0,0.0,0.0,0.0,0.0,0.0,0.0,0.0,0.0,0.0,0.0,0.0,0.0,0.0,0.0,0.0,0.0,0.0,0.0,0.0,0.0,0.0,0.0,0.0,0.0,0.0,0.0,0.0,0.0,0.0,0.0,0.0,0.0,0.0,0.0,0.0,0.0,0.0,0.0,0.0,0.0,0.0,0.0,0.0,0.0,0.0,0.0,0.0,0.0,0.0,0.0,0.0,0.0,2.7772,2.6057,2.5325,2.4635,2.401,2.3231,2.2596,2.2182,0.0,0.0,0.0,0.0,0.0,0.0,0.0,0.0,0.0,0.0,0.0,0.0,0.0,0.0]}]]]